<?xml version="1.0" encoding="UTF-8" standalone="no" ?>
<gpx xmlns="http://www.topografix.com/GPX/1/1" xmlns:xsi="http://www.w3.org/2001/XMLSchema-instance" xsi:schemaLocation="http://www.topografix.com/GPX/1/1 http://www.topografix.com/GPX/1/1/gpx.xsd" version="1.1" creator="VisuGPX - https://www.visugpx.com">
  <metadata>
    <name>Bena pic Punxo en circuit</name>
    <desc><![CDATA[départ du parking à l'est de Bena (accès par Enveigt) sens horaire; gr de pays variante Tour du Carlit, puis Tour du Carlit bien balisé jusqu'à 2200m; ensuite on remonte sur la droite, bien que le Punxo soit droit devant en ligne de mire, on va chercher une pente d'accès facile en rejoignant la crête et en la prenant sur la gauche jusqu'au sommet du Punxo qui, s'il ne paye pas de mine avec ses 2581m, offre un belvédère magnifique à 360° sur le Carlit et son massif, le Lanoux et la Coume d'Or, le Puymorens, les pics de l'Andorre, le Campcardos, la chaîne des puigs (Molina) et la Cerdagne... Le retour peut se faire par le même itinéraire ou en contournant le pic Bena par la gauche, ce que la trace indique. Quasiment pas de sentiers ni de balisage au-dessus de 2200m, mais pas de difficultés avec la trace ou avec la carte et la boussole.]]></desc>
  </metadata>
  <trk>
    <name><![CDATA[20180806143245-oG1Sh]]></name>
    <trkseg>
      <trkpt lat="42.48486" lon="1.89162">
        <ele>1597</ele>
        <time>2018-08-02T07:08:24Z</time>
      </trkpt>
      <trkpt lat="42.48486" lon="1.89162">
        <ele>1597</ele>
        <time>2018-08-02T07:08:25Z</time>
      </trkpt>
      <trkpt lat="42.4849" lon="1.89167">
        <ele>1598</ele>
        <time>2018-08-02T07:09:19Z</time>
      </trkpt>
      <trkpt lat="42.48496" lon="1.89154">
        <ele>1597</ele>
        <time>2018-08-02T07:09:55Z</time>
      </trkpt>
      <trkpt lat="42.48495" lon="1.89147">
        <ele>1597</ele>
        <time>2018-08-02T07:10:01Z</time>
      </trkpt>
      <trkpt lat="42.48497" lon="1.89138">
        <ele>1596</ele>
        <time>2018-08-02T07:10:09Z</time>
      </trkpt>
      <trkpt lat="42.48502" lon="1.89134">
        <ele>1601</ele>
        <time>2018-08-02T07:10:13Z</time>
      </trkpt>
      <trkpt lat="42.48504" lon="1.89129">
        <ele>1601</ele>
        <time>2018-08-02T07:10:17Z</time>
      </trkpt>
      <trkpt lat="42.48504" lon="1.89119">
        <ele>1601</ele>
        <time>2018-08-02T07:10:29Z</time>
      </trkpt>
      <trkpt lat="42.48501" lon="1.89114">
        <ele>1601</ele>
        <time>2018-08-02T07:10:32Z</time>
      </trkpt>
      <trkpt lat="42.48494" lon="1.89105">
        <ele>1596</ele>
        <time>2018-08-02T07:10:39Z</time>
      </trkpt>
      <trkpt lat="42.48491" lon="1.89099">
        <ele>1596</ele>
        <time>2018-08-02T07:10:44Z</time>
      </trkpt>
      <trkpt lat="42.48463" lon="1.89068">
        <ele>1595</ele>
        <time>2018-08-02T07:11:18Z</time>
      </trkpt>
      <trkpt lat="42.48446" lon="1.89041">
        <ele>1595</ele>
        <time>2018-08-02T07:11:42Z</time>
      </trkpt>
      <trkpt lat="42.48445" lon="1.89034">
        <ele>1595</ele>
        <time>2018-08-02T07:11:46Z</time>
      </trkpt>
      <trkpt lat="42.48441" lon="1.89028">
        <ele>1595</ele>
        <time>2018-08-02T07:11:53Z</time>
      </trkpt>
      <trkpt lat="42.48436" lon="1.89021">
        <ele>1595</ele>
        <time>2018-08-02T07:12:13Z</time>
      </trkpt>
      <trkpt lat="42.48433" lon="1.89017">
        <ele>1595</ele>
        <time>2018-08-02T07:12:17Z</time>
      </trkpt>
      <trkpt lat="42.48409" lon="1.88991">
        <ele>1599</ele>
        <time>2018-08-02T07:12:39Z</time>
      </trkpt>
      <trkpt lat="42.48403" lon="1.88988">
        <ele>1601</ele>
        <time>2018-08-02T07:12:46Z</time>
      </trkpt>
      <trkpt lat="42.48398" lon="1.88986">
        <ele>1601</ele>
        <time>2018-08-02T07:12:51Z</time>
      </trkpt>
      <trkpt lat="42.484" lon="1.88982">
        <ele>1602</ele>
        <time>2018-08-02T07:13:31Z</time>
      </trkpt>
      <trkpt lat="42.48405" lon="1.88982">
        <ele>1601</ele>
        <time>2018-08-02T07:13:35Z</time>
      </trkpt>
      <trkpt lat="42.4841" lon="1.88981">
        <ele>1601</ele>
        <time>2018-08-02T07:13:40Z</time>
      </trkpt>
      <trkpt lat="42.48416" lon="1.88978">
        <ele>1602</ele>
        <time>2018-08-02T07:13:48Z</time>
      </trkpt>
      <trkpt lat="42.48421" lon="1.88978">
        <ele>1603</ele>
        <time>2018-08-02T07:13:55Z</time>
      </trkpt>
      <trkpt lat="42.48424" lon="1.88982">
        <ele>1602</ele>
        <time>2018-08-02T07:13:59Z</time>
      </trkpt>
      <trkpt lat="42.48441" lon="1.8898">
        <ele>1604</ele>
        <time>2018-08-02T07:14:15Z</time>
      </trkpt>
      <trkpt lat="42.48461" lon="1.88973">
        <ele>1605</ele>
        <time>2018-08-02T07:14:35Z</time>
      </trkpt>
      <trkpt lat="42.48471" lon="1.88973">
        <ele>1604</ele>
        <time>2018-08-02T07:14:41Z</time>
      </trkpt>
      <trkpt lat="42.48475" lon="1.88972">
        <ele>1604</ele>
        <time>2018-08-02T07:14:46Z</time>
      </trkpt>
      <trkpt lat="42.48479" lon="1.88964">
        <ele>1605</ele>
        <time>2018-08-02T07:14:54Z</time>
      </trkpt>
      <trkpt lat="42.48483" lon="1.8896">
        <ele>1606</ele>
        <time>2018-08-02T07:15:00Z</time>
      </trkpt>
      <trkpt lat="42.48484" lon="1.88955">
        <ele>1606</ele>
        <time>2018-08-02T07:15:06Z</time>
      </trkpt>
      <trkpt lat="42.48493" lon="1.88947">
        <ele>1607</ele>
        <time>2018-08-02T07:15:19Z</time>
      </trkpt>
      <trkpt lat="42.48496" lon="1.88941">
        <ele>1608</ele>
        <time>2018-08-02T07:15:27Z</time>
      </trkpt>
      <trkpt lat="42.485" lon="1.88937">
        <ele>1608</ele>
        <time>2018-08-02T07:15:32Z</time>
      </trkpt>
      <trkpt lat="42.48503" lon="1.88931">
        <ele>1609</ele>
        <time>2018-08-02T07:15:40Z</time>
      </trkpt>
      <trkpt lat="42.48505" lon="1.88925">
        <ele>1610</ele>
        <time>2018-08-02T07:15:45Z</time>
      </trkpt>
      <trkpt lat="42.48509" lon="1.88921">
        <ele>1610</ele>
        <time>2018-08-02T07:15:50Z</time>
      </trkpt>
      <trkpt lat="42.48514" lon="1.88918">
        <ele>1610</ele>
        <time>2018-08-02T07:15:54Z</time>
      </trkpt>
      <trkpt lat="42.48515" lon="1.8891">
        <ele>1617</ele>
        <time>2018-08-02T07:16:02Z</time>
      </trkpt>
      <trkpt lat="42.4852" lon="1.88908">
        <ele>1617</ele>
        <time>2018-08-02T07:16:11Z</time>
      </trkpt>
      <trkpt lat="42.48522" lon="1.889">
        <ele>1619</ele>
        <time>2018-08-02T07:16:29Z</time>
      </trkpt>
      <trkpt lat="42.48543" lon="1.88893">
        <ele>1619</ele>
        <time>2018-08-02T07:16:56Z</time>
      </trkpt>
      <trkpt lat="42.48547" lon="1.88891">
        <ele>1619</ele>
        <time>2018-08-02T07:17:01Z</time>
      </trkpt>
      <trkpt lat="42.48564" lon="1.88873">
        <ele>1621</ele>
        <time>2018-08-02T07:17:21Z</time>
      </trkpt>
      <trkpt lat="42.48578" lon="1.88866">
        <ele>1622</ele>
        <time>2018-08-02T07:17:35Z</time>
      </trkpt>
      <trkpt lat="42.48582" lon="1.8886">
        <ele>1622</ele>
        <time>2018-08-02T07:17:47Z</time>
      </trkpt>
      <trkpt lat="42.48589" lon="1.88856">
        <ele>1620</ele>
        <time>2018-08-02T07:17:53Z</time>
      </trkpt>
      <trkpt lat="42.48594" lon="1.88854">
        <ele>1620</ele>
        <time>2018-08-02T07:17:56Z</time>
      </trkpt>
      <trkpt lat="42.48598" lon="1.88853">
        <ele>1620</ele>
        <time>2018-08-02T07:18:01Z</time>
      </trkpt>
      <trkpt lat="42.48602" lon="1.88849">
        <ele>1620</ele>
        <time>2018-08-02T07:18:06Z</time>
      </trkpt>
      <trkpt lat="42.48608" lon="1.88846">
        <ele>1620</ele>
        <time>2018-08-02T07:18:14Z</time>
      </trkpt>
      <trkpt lat="42.48614" lon="1.88846">
        <ele>1619</ele>
        <time>2018-08-02T07:18:18Z</time>
      </trkpt>
      <trkpt lat="42.48628" lon="1.88839">
        <ele>1619</ele>
        <time>2018-08-02T07:18:30Z</time>
      </trkpt>
      <trkpt lat="42.48632" lon="1.88835">
        <ele>1619</ele>
        <time>2018-08-02T07:18:35Z</time>
      </trkpt>
      <trkpt lat="42.48637" lon="1.88834">
        <ele>1618</ele>
        <time>2018-08-02T07:18:38Z</time>
      </trkpt>
      <trkpt lat="42.48641" lon="1.88828">
        <ele>1627</ele>
        <time>2018-08-02T07:18:46Z</time>
      </trkpt>
      <trkpt lat="42.48641" lon="1.88821">
        <ele>1628</ele>
        <time>2018-08-02T07:18:51Z</time>
      </trkpt>
      <trkpt lat="42.48647" lon="1.88818">
        <ele>1627</ele>
        <time>2018-08-02T07:19:05Z</time>
      </trkpt>
      <trkpt lat="42.48661" lon="1.888">
        <ele>1629</ele>
        <time>2018-08-02T07:19:24Z</time>
      </trkpt>
      <trkpt lat="42.48663" lon="1.88791">
        <ele>1630</ele>
        <time>2018-08-02T07:19:32Z</time>
      </trkpt>
      <trkpt lat="42.48664" lon="1.88782">
        <ele>1631</ele>
        <time>2018-08-02T07:19:42Z</time>
      </trkpt>
      <trkpt lat="42.48667" lon="1.88778">
        <ele>1626</ele>
        <time>2018-08-02T07:19:54Z</time>
      </trkpt>
      <trkpt lat="42.48679" lon="1.88764">
        <ele>1627</ele>
        <time>2018-08-02T07:20:14Z</time>
      </trkpt>
      <trkpt lat="42.48683" lon="1.88763">
        <ele>1627</ele>
        <time>2018-08-02T07:20:18Z</time>
      </trkpt>
      <trkpt lat="42.4869" lon="1.88759">
        <ele>1626</ele>
        <time>2018-08-02T07:20:24Z</time>
      </trkpt>
      <trkpt lat="42.48694" lon="1.88754">
        <ele>1626</ele>
        <time>2018-08-02T07:20:28Z</time>
      </trkpt>
      <trkpt lat="42.48698" lon="1.8875">
        <ele>1635</ele>
        <time>2018-08-02T07:20:33Z</time>
      </trkpt>
      <trkpt lat="42.48703" lon="1.88747">
        <ele>1635</ele>
        <time>2018-08-02T07:20:38Z</time>
      </trkpt>
      <trkpt lat="42.4871" lon="1.88739">
        <ele>1635</ele>
        <time>2018-08-02T07:20:47Z</time>
      </trkpt>
      <trkpt lat="42.48716" lon="1.88731">
        <ele>1635</ele>
        <time>2018-08-02T07:21:03Z</time>
      </trkpt>
      <trkpt lat="42.48721" lon="1.88728">
        <ele>1635</ele>
        <time>2018-08-02T07:21:08Z</time>
      </trkpt>
      <trkpt lat="42.48741" lon="1.88725">
        <ele>1633</ele>
        <time>2018-08-02T07:21:20Z</time>
      </trkpt>
      <trkpt lat="42.4875" lon="1.88721">
        <ele>1633</ele>
        <time>2018-08-02T07:21:27Z</time>
      </trkpt>
      <trkpt lat="42.48753" lon="1.88718">
        <ele>1631</ele>
        <time>2018-08-02T07:21:32Z</time>
      </trkpt>
      <trkpt lat="42.48761" lon="1.88718">
        <ele>1631</ele>
        <time>2018-08-02T07:21:38Z</time>
      </trkpt>
      <trkpt lat="42.48766" lon="1.88713">
        <ele>1631</ele>
        <time>2018-08-02T07:21:42Z</time>
      </trkpt>
      <trkpt lat="42.48769" lon="1.88709">
        <ele>1632</ele>
        <time>2018-08-02T07:21:46Z</time>
      </trkpt>
      <trkpt lat="42.48773" lon="1.88706">
        <ele>1632</ele>
        <time>2018-08-02T07:21:50Z</time>
      </trkpt>
      <trkpt lat="42.48777" lon="1.88702">
        <ele>1633</ele>
        <time>2018-08-02T07:21:54Z</time>
      </trkpt>
      <trkpt lat="42.4878" lon="1.88696">
        <ele>1633</ele>
        <time>2018-08-02T07:21:58Z</time>
      </trkpt>
      <trkpt lat="42.48801" lon="1.88659">
        <ele>1639</ele>
        <time>2018-08-02T07:22:32Z</time>
      </trkpt>
      <trkpt lat="42.4881" lon="1.88639">
        <ele>1639</ele>
        <time>2018-08-02T07:22:48Z</time>
      </trkpt>
      <trkpt lat="42.48832" lon="1.88612">
        <ele>1640</ele>
        <time>2018-08-02T07:23:23Z</time>
      </trkpt>
      <trkpt lat="42.48838" lon="1.88609">
        <ele>1639</ele>
        <time>2018-08-02T07:23:30Z</time>
      </trkpt>
      <trkpt lat="42.48851" lon="1.88594">
        <ele>1639</ele>
        <time>2018-08-02T07:23:47Z</time>
      </trkpt>
      <trkpt lat="42.48849" lon="1.88588">
        <ele>1639</ele>
        <time>2018-08-02T07:23:53Z</time>
      </trkpt>
      <trkpt lat="42.48855" lon="1.88578">
        <ele>1642</ele>
        <time>2018-08-02T07:24:02Z</time>
      </trkpt>
      <trkpt lat="42.4886" lon="1.88566">
        <ele>1643</ele>
        <time>2018-08-02T07:24:14Z</time>
      </trkpt>
      <trkpt lat="42.48863" lon="1.88561">
        <ele>1643</ele>
        <time>2018-08-02T07:24:19Z</time>
      </trkpt>
      <trkpt lat="42.48864" lon="1.88554">
        <ele>1644</ele>
        <time>2018-08-02T07:24:24Z</time>
      </trkpt>
      <trkpt lat="42.48861" lon="1.88541">
        <ele>1645</ele>
        <time>2018-08-02T07:24:33Z</time>
      </trkpt>
      <trkpt lat="42.48867" lon="1.88535">
        <ele>1645</ele>
        <time>2018-08-02T07:24:41Z</time>
      </trkpt>
      <trkpt lat="42.4887" lon="1.88529">
        <ele>1645</ele>
        <time>2018-08-02T07:24:48Z</time>
      </trkpt>
      <trkpt lat="42.48873" lon="1.88524">
        <ele>1645</ele>
        <time>2018-08-02T07:24:52Z</time>
      </trkpt>
      <trkpt lat="42.48874" lon="1.88516">
        <ele>1645</ele>
        <time>2018-08-02T07:24:56Z</time>
      </trkpt>
      <trkpt lat="42.48895" lon="1.88468">
        <ele>1648</ele>
        <time>2018-08-02T07:25:24Z</time>
      </trkpt>
      <trkpt lat="42.48897" lon="1.88455">
        <ele>1649</ele>
        <time>2018-08-02T07:25:33Z</time>
      </trkpt>
      <trkpt lat="42.48896" lon="1.88444">
        <ele>1649</ele>
        <time>2018-08-02T07:25:42Z</time>
      </trkpt>
      <trkpt lat="42.48893" lon="1.88436">
        <ele>1649</ele>
        <time>2018-08-02T07:25:49Z</time>
      </trkpt>
      <trkpt lat="42.48892" lon="1.88428">
        <ele>1649</ele>
        <time>2018-08-02T07:25:56Z</time>
      </trkpt>
      <trkpt lat="42.48891" lon="1.8842">
        <ele>1649</ele>
        <time>2018-08-02T07:26:04Z</time>
      </trkpt>
      <trkpt lat="42.48893" lon="1.8841">
        <ele>1652</ele>
        <time>2018-08-02T07:26:16Z</time>
      </trkpt>
      <trkpt lat="42.48897" lon="1.88399">
        <ele>1652</ele>
        <time>2018-08-02T07:26:26Z</time>
      </trkpt>
      <trkpt lat="42.48896" lon="1.88391">
        <ele>1653</ele>
        <time>2018-08-02T07:26:35Z</time>
      </trkpt>
      <trkpt lat="42.48899" lon="1.8838">
        <ele>1653</ele>
        <time>2018-08-02T07:26:53Z</time>
      </trkpt>
      <trkpt lat="42.48897" lon="1.88366">
        <ele>1654</ele>
        <time>2018-08-02T07:27:03Z</time>
      </trkpt>
      <trkpt lat="42.48898" lon="1.88359">
        <ele>1654</ele>
        <time>2018-08-02T07:27:07Z</time>
      </trkpt>
      <trkpt lat="42.48912" lon="1.88325">
        <ele>1656</ele>
        <time>2018-08-02T07:27:36Z</time>
      </trkpt>
      <trkpt lat="42.48931" lon="1.88298">
        <ele>1656</ele>
        <time>2018-08-02T07:28:02Z</time>
      </trkpt>
      <trkpt lat="42.48937" lon="1.88278">
        <ele>1658</ele>
        <time>2018-08-02T07:28:21Z</time>
      </trkpt>
      <trkpt lat="42.48941" lon="1.88275">
        <ele>1658</ele>
        <time>2018-08-02T07:28:26Z</time>
      </trkpt>
      <trkpt lat="42.48946" lon="1.88272">
        <ele>1658</ele>
        <time>2018-08-02T07:28:30Z</time>
      </trkpt>
      <trkpt lat="42.48953" lon="1.88264">
        <ele>1658</ele>
        <time>2018-08-02T07:28:39Z</time>
      </trkpt>
      <trkpt lat="42.48959" lon="1.8826">
        <ele>1658</ele>
        <time>2018-08-02T07:28:45Z</time>
      </trkpt>
      <trkpt lat="42.48974" lon="1.88254">
        <ele>1657</ele>
        <time>2018-08-02T07:28:56Z</time>
      </trkpt>
      <trkpt lat="42.48978" lon="1.8825">
        <ele>1657</ele>
        <time>2018-08-02T07:29:01Z</time>
      </trkpt>
      <trkpt lat="42.48985" lon="1.88235">
        <ele>1664</ele>
        <time>2018-08-02T07:29:21Z</time>
      </trkpt>
      <trkpt lat="42.48995" lon="1.8823">
        <ele>1664</ele>
        <time>2018-08-02T07:29:32Z</time>
      </trkpt>
      <trkpt lat="42.48997" lon="1.88225">
        <ele>1665</ele>
        <time>2018-08-02T07:29:37Z</time>
      </trkpt>
      <trkpt lat="42.49005" lon="1.88213">
        <ele>1664</ele>
        <time>2018-08-02T07:29:48Z</time>
      </trkpt>
      <trkpt lat="42.49009" lon="1.88204">
        <ele>1665</ele>
        <time>2018-08-02T07:29:56Z</time>
      </trkpt>
      <trkpt lat="42.49013" lon="1.88197">
        <ele>1666</ele>
        <time>2018-08-02T07:30:04Z</time>
      </trkpt>
      <trkpt lat="42.49015" lon="1.88191">
        <ele>1667</ele>
        <time>2018-08-02T07:30:09Z</time>
      </trkpt>
      <trkpt lat="42.49026" lon="1.88172">
        <ele>1667</ele>
        <time>2018-08-02T07:30:28Z</time>
      </trkpt>
      <trkpt lat="42.49031" lon="1.88167">
        <ele>1667</ele>
        <time>2018-08-02T07:30:36Z</time>
      </trkpt>
      <trkpt lat="42.49041" lon="1.88154">
        <ele>1676</ele>
        <time>2018-08-02T07:30:59Z</time>
      </trkpt>
      <trkpt lat="42.49044" lon="1.88151">
        <ele>1676</ele>
        <time>2018-08-02T07:31:11Z</time>
      </trkpt>
      <trkpt lat="42.49048" lon="1.88156">
        <ele>1676</ele>
        <time>2018-08-02T07:31:21Z</time>
      </trkpt>
      <trkpt lat="42.49053" lon="1.88157">
        <ele>1675</ele>
        <time>2018-08-02T07:31:41Z</time>
      </trkpt>
      <trkpt lat="42.49061" lon="1.8815">
        <ele>1675</ele>
        <time>2018-08-02T07:31:49Z</time>
      </trkpt>
      <trkpt lat="42.4907" lon="1.88147">
        <ele>1675</ele>
        <time>2018-08-02T07:31:59Z</time>
      </trkpt>
      <trkpt lat="42.49073" lon="1.88143">
        <ele>1675</ele>
        <time>2018-08-02T07:32:07Z</time>
      </trkpt>
      <trkpt lat="42.4908" lon="1.88138">
        <ele>1676</ele>
        <time>2018-08-02T07:32:18Z</time>
      </trkpt>
      <trkpt lat="42.4909" lon="1.88131">
        <ele>1676</ele>
        <time>2018-08-02T07:32:30Z</time>
      </trkpt>
      <trkpt lat="42.49095" lon="1.88128">
        <ele>1677</ele>
        <time>2018-08-02T07:32:35Z</time>
      </trkpt>
      <trkpt lat="42.49102" lon="1.88122">
        <ele>1678</ele>
        <time>2018-08-02T07:32:47Z</time>
      </trkpt>
      <trkpt lat="42.49107" lon="1.88112">
        <ele>1679</ele>
        <time>2018-08-02T07:33:01Z</time>
      </trkpt>
      <trkpt lat="42.49112" lon="1.88108">
        <ele>1679</ele>
        <time>2018-08-02T07:33:13Z</time>
      </trkpt>
      <trkpt lat="42.49111" lon="1.88099">
        <ele>1679</ele>
        <time>2018-08-02T07:33:26Z</time>
      </trkpt>
      <trkpt lat="42.49112" lon="1.88084">
        <ele>1680</ele>
        <time>2018-08-02T07:33:36Z</time>
      </trkpt>
      <trkpt lat="42.49118" lon="1.88074">
        <ele>1687</ele>
        <time>2018-08-02T07:33:45Z</time>
      </trkpt>
      <trkpt lat="42.49123" lon="1.88059">
        <ele>1688</ele>
        <time>2018-08-02T07:34:05Z</time>
      </trkpt>
      <trkpt lat="42.49125" lon="1.88053">
        <ele>1689</ele>
        <time>2018-08-02T07:34:17Z</time>
      </trkpt>
      <trkpt lat="42.49119" lon="1.88034">
        <ele>1690</ele>
        <time>2018-08-02T07:34:47Z</time>
      </trkpt>
      <trkpt lat="42.49116" lon="1.88024">
        <ele>1691</ele>
        <time>2018-08-02T07:34:58Z</time>
      </trkpt>
      <trkpt lat="42.49112" lon="1.88021">
        <ele>1691</ele>
        <time>2018-08-02T07:35:03Z</time>
      </trkpt>
      <trkpt lat="42.49107" lon="1.88008">
        <ele>1691</ele>
        <time>2018-08-02T07:35:16Z</time>
      </trkpt>
      <trkpt lat="42.49103" lon="1.87997">
        <ele>1697</ele>
        <time>2018-08-02T07:35:27Z</time>
      </trkpt>
      <trkpt lat="42.49101" lon="1.87979">
        <ele>1699</ele>
        <time>2018-08-02T07:36:02Z</time>
      </trkpt>
      <trkpt lat="42.491" lon="1.87955">
        <ele>1701</ele>
        <time>2018-08-02T07:36:21Z</time>
      </trkpt>
      <trkpt lat="42.49104" lon="1.87948">
        <ele>1702</ele>
        <time>2018-08-02T07:36:46Z</time>
      </trkpt>
      <trkpt lat="42.49108" lon="1.87945">
        <ele>1702</ele>
        <time>2018-08-02T07:36:50Z</time>
      </trkpt>
      <trkpt lat="42.4912" lon="1.8794">
        <ele>1703</ele>
        <time>2018-08-02T07:37:08Z</time>
      </trkpt>
      <trkpt lat="42.49127" lon="1.8793">
        <ele>1704</ele>
        <time>2018-08-02T07:37:34Z</time>
      </trkpt>
      <trkpt lat="42.49129" lon="1.87924">
        <ele>1705</ele>
        <time>2018-08-02T07:37:52Z</time>
      </trkpt>
      <trkpt lat="42.49136" lon="1.87916">
        <ele>1714</ele>
        <time>2018-08-02T07:38:04Z</time>
      </trkpt>
      <trkpt lat="42.49136" lon="1.87907">
        <ele>1715</ele>
        <time>2018-08-02T07:38:28Z</time>
      </trkpt>
      <trkpt lat="42.49141" lon="1.87899">
        <ele>1715</ele>
        <time>2018-08-02T07:38:46Z</time>
      </trkpt>
      <trkpt lat="42.49146" lon="1.87893">
        <ele>1716</ele>
        <time>2018-08-02T07:38:58Z</time>
      </trkpt>
      <trkpt lat="42.4915" lon="1.87888">
        <ele>1716</ele>
        <time>2018-08-02T07:39:05Z</time>
      </trkpt>
      <trkpt lat="42.49149" lon="1.87879">
        <ele>1717</ele>
        <time>2018-08-02T07:39:18Z</time>
      </trkpt>
      <trkpt lat="42.49151" lon="1.87872">
        <ele>1718</ele>
        <time>2018-08-02T07:39:24Z</time>
      </trkpt>
      <trkpt lat="42.49155" lon="1.87858">
        <ele>1720</ele>
        <time>2018-08-02T07:39:50Z</time>
      </trkpt>
      <trkpt lat="42.49159" lon="1.87851">
        <ele>1722</ele>
        <time>2018-08-02T07:40:02Z</time>
      </trkpt>
      <trkpt lat="42.49169" lon="1.87827">
        <ele>1730</ele>
        <time>2018-08-02T07:40:27Z</time>
      </trkpt>
      <trkpt lat="42.49171" lon="1.87818">
        <ele>1733</ele>
        <time>2018-08-02T07:40:41Z</time>
      </trkpt>
      <trkpt lat="42.49179" lon="1.87804">
        <ele>1736</ele>
        <time>2018-08-02T07:40:57Z</time>
      </trkpt>
      <trkpt lat="42.4918" lon="1.87785">
        <ele>1739</ele>
        <time>2018-08-02T07:41:23Z</time>
      </trkpt>
      <trkpt lat="42.49184" lon="1.87779">
        <ele>1740</ele>
        <time>2018-08-02T07:41:35Z</time>
      </trkpt>
      <trkpt lat="42.49186" lon="1.87768">
        <ele>1741</ele>
        <time>2018-08-02T07:41:53Z</time>
      </trkpt>
      <trkpt lat="42.49187" lon="1.87753">
        <ele>1742</ele>
        <time>2018-08-02T07:42:11Z</time>
      </trkpt>
      <trkpt lat="42.49192" lon="1.87746">
        <ele>1751</ele>
        <time>2018-08-02T07:42:24Z</time>
      </trkpt>
      <trkpt lat="42.49194" lon="1.87738">
        <ele>1752</ele>
        <time>2018-08-02T07:42:42Z</time>
      </trkpt>
      <trkpt lat="42.492" lon="1.87728">
        <ele>1754</ele>
        <time>2018-08-02T07:43:00Z</time>
      </trkpt>
      <trkpt lat="42.49201" lon="1.87721">
        <ele>1754</ele>
        <time>2018-08-02T07:43:06Z</time>
      </trkpt>
      <trkpt lat="42.49203" lon="1.87715">
        <ele>1755</ele>
        <time>2018-08-02T07:43:37Z</time>
      </trkpt>
      <trkpt lat="42.49207" lon="1.87705">
        <ele>1756</ele>
        <time>2018-08-02T07:44:43Z</time>
      </trkpt>
      <trkpt lat="42.49211" lon="1.87703">
        <ele>1757</ele>
        <time>2018-08-02T07:44:47Z</time>
      </trkpt>
      <trkpt lat="42.49221" lon="1.87685">
        <ele>1758</ele>
        <time>2018-08-02T07:45:12Z</time>
      </trkpt>
      <trkpt lat="42.49226" lon="1.87679">
        <ele>1759</ele>
        <time>2018-08-02T07:45:26Z</time>
      </trkpt>
      <trkpt lat="42.49232" lon="1.87661">
        <ele>1768</ele>
        <time>2018-08-02T07:45:50Z</time>
      </trkpt>
      <trkpt lat="42.4923" lon="1.87654">
        <ele>1769</ele>
        <time>2018-08-02T07:46:02Z</time>
      </trkpt>
      <trkpt lat="42.49231" lon="1.87645">
        <ele>1770</ele>
        <time>2018-08-02T07:46:14Z</time>
      </trkpt>
      <trkpt lat="42.49232" lon="1.87634">
        <ele>1772</ele>
        <time>2018-08-02T07:46:26Z</time>
      </trkpt>
      <trkpt lat="42.49231" lon="1.87624">
        <ele>1773</ele>
        <time>2018-08-02T07:46:38Z</time>
      </trkpt>
      <trkpt lat="42.49229" lon="1.87613">
        <ele>1774</ele>
        <time>2018-08-02T07:46:51Z</time>
      </trkpt>
      <trkpt lat="42.49229" lon="1.87605">
        <ele>1775</ele>
        <time>2018-08-02T07:47:03Z</time>
      </trkpt>
      <trkpt lat="42.49228" lon="1.87577">
        <ele>1783</ele>
        <time>2018-08-02T07:47:36Z</time>
      </trkpt>
      <trkpt lat="42.49229" lon="1.87571">
        <ele>1783</ele>
        <time>2018-08-02T07:47:48Z</time>
      </trkpt>
      <trkpt lat="42.49233" lon="1.87567">
        <ele>1783</ele>
        <time>2018-08-02T07:48:30Z</time>
      </trkpt>
      <trkpt lat="42.49228" lon="1.8756">
        <ele>1783</ele>
        <time>2018-08-02T07:48:41Z</time>
      </trkpt>
      <trkpt lat="42.49224" lon="1.87552">
        <ele>1783</ele>
        <time>2018-08-02T07:48:54Z</time>
      </trkpt>
      <trkpt lat="42.4922" lon="1.87546">
        <ele>1783</ele>
        <time>2018-08-02T07:49:02Z</time>
      </trkpt>
      <trkpt lat="42.49219" lon="1.8754">
        <ele>1783</ele>
        <time>2018-08-02T07:49:08Z</time>
      </trkpt>
      <trkpt lat="42.49215" lon="1.87537">
        <ele>1783</ele>
        <time>2018-08-02T07:49:13Z</time>
      </trkpt>
      <trkpt lat="42.4921" lon="1.87529">
        <ele>1783</ele>
        <time>2018-08-02T07:49:20Z</time>
      </trkpt>
      <trkpt lat="42.49207" lon="1.87525">
        <ele>1783</ele>
        <time>2018-08-02T07:49:24Z</time>
      </trkpt>
      <trkpt lat="42.49204" lon="1.87517">
        <ele>1783</ele>
        <time>2018-08-02T07:49:37Z</time>
      </trkpt>
      <trkpt lat="42.49209" lon="1.87513">
        <ele>1783</ele>
        <time>2018-08-02T07:49:47Z</time>
      </trkpt>
      <trkpt lat="42.49214" lon="1.87512">
        <ele>1784</ele>
        <time>2018-08-02T07:49:52Z</time>
      </trkpt>
      <trkpt lat="42.49219" lon="1.87508">
        <ele>1784</ele>
        <time>2018-08-02T07:49:57Z</time>
      </trkpt>
      <trkpt lat="42.49228" lon="1.87502">
        <ele>1785</ele>
        <time>2018-08-02T07:50:07Z</time>
      </trkpt>
      <trkpt lat="42.49233" lon="1.875">
        <ele>1786</ele>
        <time>2018-08-02T07:50:12Z</time>
      </trkpt>
      <trkpt lat="42.49243" lon="1.87502">
        <ele>1787</ele>
        <time>2018-08-02T07:50:22Z</time>
      </trkpt>
      <trkpt lat="42.49255" lon="1.87512">
        <ele>1792</ele>
        <time>2018-08-02T07:50:36Z</time>
      </trkpt>
      <trkpt lat="42.49261" lon="1.87515">
        <ele>1792</ele>
        <time>2018-08-02T07:50:46Z</time>
      </trkpt>
      <trkpt lat="42.49271" lon="1.87491">
        <ele>1794</ele>
        <time>2018-08-02T07:51:16Z</time>
      </trkpt>
      <trkpt lat="42.49273" lon="1.87485">
        <ele>1795</ele>
        <time>2018-08-02T07:51:40Z</time>
      </trkpt>
      <trkpt lat="42.49282" lon="1.87475">
        <ele>1796</ele>
        <time>2018-08-02T07:52:52Z</time>
      </trkpt>
      <trkpt lat="42.49287" lon="1.87475">
        <ele>1797</ele>
        <time>2018-08-02T07:53:04Z</time>
      </trkpt>
      <trkpt lat="42.49291" lon="1.87468">
        <ele>1797</ele>
        <time>2018-08-02T07:53:16Z</time>
      </trkpt>
      <trkpt lat="42.49297" lon="1.87465">
        <ele>1798</ele>
        <time>2018-08-02T07:53:29Z</time>
      </trkpt>
      <trkpt lat="42.49301" lon="1.87461">
        <ele>1799</ele>
        <time>2018-08-02T07:53:41Z</time>
      </trkpt>
      <trkpt lat="42.49303" lon="1.87453">
        <ele>1799</ele>
        <time>2018-08-02T07:53:53Z</time>
      </trkpt>
      <trkpt lat="42.49313" lon="1.87424">
        <ele>1801</ele>
        <time>2018-08-02T07:54:23Z</time>
      </trkpt>
      <trkpt lat="42.49311" lon="1.87413">
        <ele>1796</ele>
        <time>2018-08-02T07:54:43Z</time>
      </trkpt>
      <trkpt lat="42.49313" lon="1.87407">
        <ele>1796</ele>
        <time>2018-08-02T07:54:48Z</time>
      </trkpt>
      <trkpt lat="42.49317" lon="1.87403">
        <ele>1796</ele>
        <time>2018-08-02T07:54:56Z</time>
      </trkpt>
      <trkpt lat="42.49328" lon="1.87394">
        <ele>1796</ele>
        <time>2018-08-02T07:55:14Z</time>
      </trkpt>
      <trkpt lat="42.49338" lon="1.87381">
        <ele>1811</ele>
        <time>2018-08-02T07:55:34Z</time>
      </trkpt>
      <trkpt lat="42.49342" lon="1.87375">
        <ele>1811</ele>
        <time>2018-08-02T07:55:39Z</time>
      </trkpt>
      <trkpt lat="42.49352" lon="1.87361">
        <ele>1810</ele>
        <time>2018-08-02T07:55:54Z</time>
      </trkpt>
      <trkpt lat="42.49357" lon="1.87352">
        <ele>1810</ele>
        <time>2018-08-02T07:56:13Z</time>
      </trkpt>
      <trkpt lat="42.49359" lon="1.87346">
        <ele>1809</ele>
        <time>2018-08-02T07:56:19Z</time>
      </trkpt>
      <trkpt lat="42.49361" lon="1.87338">
        <ele>1809</ele>
        <time>2018-08-02T07:56:27Z</time>
      </trkpt>
      <trkpt lat="42.49368" lon="1.87325">
        <ele>1809</ele>
        <time>2018-08-02T07:56:50Z</time>
      </trkpt>
      <trkpt lat="42.49373" lon="1.8732">
        <ele>1811</ele>
        <time>2018-08-02T07:57:05Z</time>
      </trkpt>
      <trkpt lat="42.49396" lon="1.8731">
        <ele>1815</ele>
        <time>2018-08-02T07:57:39Z</time>
      </trkpt>
      <trkpt lat="42.49414" lon="1.87303">
        <ele>1816</ele>
        <time>2018-08-02T07:58:01Z</time>
      </trkpt>
      <trkpt lat="42.49419" lon="1.87299">
        <ele>1826</ele>
        <time>2018-08-02T07:58:13Z</time>
      </trkpt>
      <trkpt lat="42.49423" lon="1.87297">
        <ele>1826</ele>
        <time>2018-08-02T07:58:18Z</time>
      </trkpt>
      <trkpt lat="42.49432" lon="1.87297">
        <ele>1827</ele>
        <time>2018-08-02T07:58:33Z</time>
      </trkpt>
      <trkpt lat="42.49438" lon="1.87295">
        <ele>1827</ele>
        <time>2018-08-02T07:58:37Z</time>
      </trkpt>
      <trkpt lat="42.49442" lon="1.87291">
        <ele>1827</ele>
        <time>2018-08-02T07:58:42Z</time>
      </trkpt>
      <trkpt lat="42.49444" lon="1.87284">
        <ele>1827</ele>
        <time>2018-08-02T07:58:49Z</time>
      </trkpt>
      <trkpt lat="42.49449" lon="1.87281">
        <ele>1828</ele>
        <time>2018-08-02T07:58:53Z</time>
      </trkpt>
      <trkpt lat="42.4947" lon="1.87276">
        <ele>1828</ele>
        <time>2018-08-02T07:59:20Z</time>
      </trkpt>
      <trkpt lat="42.49476" lon="1.87276">
        <ele>1829</ele>
        <time>2018-08-02T07:59:39Z</time>
      </trkpt>
      <trkpt lat="42.4948" lon="1.87275">
        <ele>1829</ele>
        <time>2018-08-02T08:00:03Z</time>
      </trkpt>
      <trkpt lat="42.49487" lon="1.87274">
        <ele>1829</ele>
        <time>2018-08-02T08:00:44Z</time>
      </trkpt>
      <trkpt lat="42.49491" lon="1.87269">
        <ele>1829</ele>
        <time>2018-08-02T08:00:52Z</time>
      </trkpt>
      <trkpt lat="42.49493" lon="1.87259">
        <ele>1829</ele>
        <time>2018-08-02T08:01:04Z</time>
      </trkpt>
      <trkpt lat="42.49501" lon="1.87244">
        <ele>1833</ele>
        <time>2018-08-02T08:01:28Z</time>
      </trkpt>
      <trkpt lat="42.49496" lon="1.87225">
        <ele>1833</ele>
        <time>2018-08-02T08:02:00Z</time>
      </trkpt>
      <trkpt lat="42.49491" lon="1.8721">
        <ele>1834</ele>
        <time>2018-08-02T08:02:14Z</time>
      </trkpt>
      <trkpt lat="42.49496" lon="1.87198">
        <ele>1835</ele>
        <time>2018-08-02T08:02:26Z</time>
      </trkpt>
      <trkpt lat="42.49494" lon="1.87188">
        <ele>1836</ele>
        <time>2018-08-02T08:02:38Z</time>
      </trkpt>
      <trkpt lat="42.49498" lon="1.87162">
        <ele>1841</ele>
        <time>2018-08-02T08:03:14Z</time>
      </trkpt>
      <trkpt lat="42.495" lon="1.87154">
        <ele>1843</ele>
        <time>2018-08-02T08:03:26Z</time>
      </trkpt>
      <trkpt lat="42.49497" lon="1.87141">
        <ele>1845</ele>
        <time>2018-08-02T08:03:44Z</time>
      </trkpt>
      <trkpt lat="42.495" lon="1.87135">
        <ele>1846</ele>
        <time>2018-08-02T08:03:56Z</time>
      </trkpt>
      <trkpt lat="42.49499" lon="1.87129">
        <ele>1847</ele>
        <time>2018-08-02T08:04:06Z</time>
      </trkpt>
      <trkpt lat="42.49496" lon="1.87123">
        <ele>1848</ele>
        <time>2018-08-02T08:04:16Z</time>
      </trkpt>
      <trkpt lat="42.49498" lon="1.87122">
        <ele>1848</ele>
        <time>2018-08-02T08:04:58Z</time>
      </trkpt>
      <trkpt lat="42.49503" lon="1.87113">
        <ele>1852</ele>
        <time>2018-08-02T08:05:16Z</time>
      </trkpt>
      <trkpt lat="42.49506" lon="1.87106">
        <ele>1853</ele>
        <time>2018-08-02T08:05:28Z</time>
      </trkpt>
      <trkpt lat="42.49511" lon="1.87098">
        <ele>1854</ele>
        <time>2018-08-02T08:05:40Z</time>
      </trkpt>
      <trkpt lat="42.49515" lon="1.87096">
        <ele>1854</ele>
        <time>2018-08-02T08:05:46Z</time>
      </trkpt>
      <trkpt lat="42.49541" lon="1.87088">
        <ele>1856</ele>
        <time>2018-08-02T08:06:22Z</time>
      </trkpt>
      <trkpt lat="42.49545" lon="1.8708">
        <ele>1869</ele>
        <time>2018-08-02T08:06:34Z</time>
      </trkpt>
      <trkpt lat="42.49545" lon="1.87072">
        <ele>1869</ele>
        <time>2018-08-02T08:06:52Z</time>
      </trkpt>
      <trkpt lat="42.49548" lon="1.87065">
        <ele>1870</ele>
        <time>2018-08-02T08:07:10Z</time>
      </trkpt>
      <trkpt lat="42.49554" lon="1.87061">
        <ele>1871</ele>
        <time>2018-08-02T08:07:22Z</time>
      </trkpt>
      <trkpt lat="42.4956" lon="1.87059">
        <ele>1872</ele>
        <time>2018-08-02T08:07:46Z</time>
      </trkpt>
      <trkpt lat="42.49564" lon="1.8706">
        <ele>1872</ele>
        <time>2018-08-02T08:07:50Z</time>
      </trkpt>
      <trkpt lat="42.4957" lon="1.87065">
        <ele>1871</ele>
        <time>2018-08-02T08:08:00Z</time>
      </trkpt>
      <trkpt lat="42.49577" lon="1.87066">
        <ele>1871</ele>
        <time>2018-08-02T08:08:12Z</time>
      </trkpt>
      <trkpt lat="42.4959" lon="1.87076">
        <ele>1878</ele>
        <time>2018-08-02T08:08:35Z</time>
      </trkpt>
      <trkpt lat="42.49595" lon="1.87078">
        <ele>1879</ele>
        <time>2018-08-02T08:08:54Z</time>
      </trkpt>
      <trkpt lat="42.49601" lon="1.87079">
        <ele>1882</ele>
        <time>2018-08-02T08:09:24Z</time>
      </trkpt>
      <trkpt lat="42.49606" lon="1.87075">
        <ele>1885</ele>
        <time>2018-08-02T08:10:35Z</time>
      </trkpt>
      <trkpt lat="42.49613" lon="1.8708">
        <ele>1887</ele>
        <time>2018-08-02T08:11:18Z</time>
      </trkpt>
      <trkpt lat="42.49619" lon="1.87077">
        <ele>1889</ele>
        <time>2018-08-02T08:11:30Z</time>
      </trkpt>
      <trkpt lat="42.49625" lon="1.87075">
        <ele>1891</ele>
        <time>2018-08-02T08:11:41Z</time>
      </trkpt>
      <trkpt lat="42.49638" lon="1.87077">
        <ele>1894</ele>
        <time>2018-08-02T08:12:07Z</time>
      </trkpt>
      <trkpt lat="42.49644" lon="1.8707">
        <ele>1895</ele>
        <time>2018-08-02T08:12:24Z</time>
      </trkpt>
      <trkpt lat="42.49654" lon="1.87071">
        <ele>1896</ele>
        <time>2018-08-02T08:12:37Z</time>
      </trkpt>
      <trkpt lat="42.49659" lon="1.87073">
        <ele>1897</ele>
        <time>2018-08-02T08:13:03Z</time>
      </trkpt>
      <trkpt lat="42.49663" lon="1.87073">
        <ele>1897</ele>
        <time>2018-08-02T08:13:21Z</time>
      </trkpt>
      <trkpt lat="42.49669" lon="1.87074">
        <ele>1906</ele>
        <time>2018-08-02T08:13:37Z</time>
      </trkpt>
      <trkpt lat="42.49676" lon="1.87075">
        <ele>1908</ele>
        <time>2018-08-02T08:13:46Z</time>
      </trkpt>
      <trkpt lat="42.49682" lon="1.87081">
        <ele>1910</ele>
        <time>2018-08-02T08:13:54Z</time>
      </trkpt>
      <trkpt lat="42.49683" lon="1.87087">
        <ele>1904</ele>
        <time>2018-08-02T08:14:19Z</time>
      </trkpt>
      <trkpt lat="42.49687" lon="1.8709">
        <ele>1905</ele>
        <time>2018-08-02T08:14:39Z</time>
      </trkpt>
      <trkpt lat="42.49691" lon="1.87087">
        <ele>1906</ele>
        <time>2018-08-02T08:14:51Z</time>
      </trkpt>
      <trkpt lat="42.49697" lon="1.87081">
        <ele>1916</ele>
        <time>2018-08-02T08:15:09Z</time>
      </trkpt>
      <trkpt lat="42.497" lon="1.87073">
        <ele>1917</ele>
        <time>2018-08-02T08:15:33Z</time>
      </trkpt>
      <trkpt lat="42.4971" lon="1.87079">
        <ele>1920</ele>
        <time>2018-08-02T08:16:38Z</time>
      </trkpt>
      <trkpt lat="42.49715" lon="1.87078">
        <ele>1921</ele>
        <time>2018-08-02T08:17:02Z</time>
      </trkpt>
      <trkpt lat="42.49718" lon="1.87073">
        <ele>1922</ele>
        <time>2018-08-02T08:17:07Z</time>
      </trkpt>
      <trkpt lat="42.49729" lon="1.87071">
        <ele>1924</ele>
        <time>2018-08-02T08:17:36Z</time>
      </trkpt>
      <trkpt lat="42.49737" lon="1.87072">
        <ele>1926</ele>
        <time>2018-08-02T08:17:51Z</time>
      </trkpt>
      <trkpt lat="42.49742" lon="1.87072">
        <ele>1927</ele>
        <time>2018-08-02T08:17:56Z</time>
      </trkpt>
      <trkpt lat="42.49745" lon="1.87069">
        <ele>1927</ele>
        <time>2018-08-02T08:18:16Z</time>
      </trkpt>
      <trkpt lat="42.49753" lon="1.87064">
        <ele>1942</ele>
        <time>2018-08-02T08:18:47Z</time>
      </trkpt>
      <trkpt lat="42.49757" lon="1.87061">
        <ele>1944</ele>
        <time>2018-08-02T08:19:06Z</time>
      </trkpt>
      <trkpt lat="42.49762" lon="1.87063">
        <ele>1944</ele>
        <time>2018-08-02T08:19:25Z</time>
      </trkpt>
      <trkpt lat="42.49765" lon="1.87058">
        <ele>1946</ele>
        <time>2018-08-02T08:19:37Z</time>
      </trkpt>
      <trkpt lat="42.49767" lon="1.87052">
        <ele>1948</ele>
        <time>2018-08-02T08:20:07Z</time>
      </trkpt>
      <trkpt lat="42.4977" lon="1.87043">
        <ele>1949</ele>
        <time>2018-08-02T08:20:37Z</time>
      </trkpt>
      <trkpt lat="42.49774" lon="1.87037">
        <ele>1950</ele>
        <time>2018-08-02T08:20:49Z</time>
      </trkpt>
      <trkpt lat="42.4978" lon="1.8704">
        <ele>1951</ele>
        <time>2018-08-02T08:21:01Z</time>
      </trkpt>
      <trkpt lat="42.49783" lon="1.87035">
        <ele>1952</ele>
        <time>2018-08-02T08:21:19Z</time>
      </trkpt>
      <trkpt lat="42.49792" lon="1.87019">
        <ele>1955</ele>
        <time>2018-08-02T08:21:55Z</time>
      </trkpt>
      <trkpt lat="42.49794" lon="1.87009">
        <ele>1956</ele>
        <time>2018-08-02T08:22:19Z</time>
      </trkpt>
      <trkpt lat="42.49793" lon="1.87002">
        <ele>1956</ele>
        <time>2018-08-02T08:23:01Z</time>
      </trkpt>
      <trkpt lat="42.49795" lon="1.86994">
        <ele>1965</ele>
        <time>2018-08-02T08:24:11Z</time>
      </trkpt>
      <trkpt lat="42.49802" lon="1.86996">
        <ele>1967</ele>
        <time>2018-08-02T08:24:29Z</time>
      </trkpt>
      <trkpt lat="42.49805" lon="1.86988">
        <ele>1967</ele>
        <time>2018-08-02T08:24:59Z</time>
      </trkpt>
      <trkpt lat="42.49808" lon="1.86983">
        <ele>1968</ele>
        <time>2018-08-02T08:25:23Z</time>
      </trkpt>
      <trkpt lat="42.49812" lon="1.8698">
        <ele>1969</ele>
        <time>2018-08-02T08:25:47Z</time>
      </trkpt>
      <trkpt lat="42.49816" lon="1.86975">
        <ele>1970</ele>
        <time>2018-08-02T08:25:59Z</time>
      </trkpt>
      <trkpt lat="42.49816" lon="1.86968">
        <ele>1970</ele>
        <time>2018-08-02T08:26:36Z</time>
      </trkpt>
      <trkpt lat="42.4982" lon="1.86961">
        <ele>1971</ele>
        <time>2018-08-02T08:27:18Z</time>
      </trkpt>
      <trkpt lat="42.4983" lon="1.86945">
        <ele>1975</ele>
        <time>2018-08-02T08:27:46Z</time>
      </trkpt>
      <trkpt lat="42.49834" lon="1.86941">
        <ele>1991</ele>
        <time>2018-08-02T08:27:58Z</time>
      </trkpt>
      <trkpt lat="42.49835" lon="1.86935">
        <ele>1991</ele>
        <time>2018-08-02T08:28:16Z</time>
      </trkpt>
      <trkpt lat="42.49838" lon="1.86929">
        <ele>1991</ele>
        <time>2018-08-02T08:28:28Z</time>
      </trkpt>
      <trkpt lat="42.4984" lon="1.86923">
        <ele>1991</ele>
        <time>2018-08-02T08:28:46Z</time>
      </trkpt>
      <trkpt lat="42.49838" lon="1.86915">
        <ele>1992</ele>
        <time>2018-08-02T08:29:22Z</time>
      </trkpt>
      <trkpt lat="42.49838" lon="1.86908">
        <ele>1996</ele>
        <time>2018-08-02T08:29:35Z</time>
      </trkpt>
      <trkpt lat="42.49834" lon="1.86898">
        <ele>1999</ele>
        <time>2018-08-02T08:30:05Z</time>
      </trkpt>
      <trkpt lat="42.49836" lon="1.86878">
        <ele>2004</ele>
        <time>2018-08-02T08:30:35Z</time>
      </trkpt>
      <trkpt lat="42.49838" lon="1.86861">
        <ele>2006</ele>
        <time>2018-08-02T08:31:06Z</time>
      </trkpt>
      <trkpt lat="42.49841" lon="1.86852">
        <ele>2007</ele>
        <time>2018-08-02T08:31:48Z</time>
      </trkpt>
      <trkpt lat="42.49843" lon="1.86844">
        <ele>2007</ele>
        <time>2018-08-02T08:32:00Z</time>
      </trkpt>
      <trkpt lat="42.49844" lon="1.86836">
        <ele>2007</ele>
        <time>2018-08-02T08:32:12Z</time>
      </trkpt>
      <trkpt lat="42.49848" lon="1.86828">
        <ele>2013</ele>
        <time>2018-08-02T08:32:32Z</time>
      </trkpt>
      <trkpt lat="42.49859" lon="1.86818">
        <ele>2016</ele>
        <time>2018-08-02T08:32:57Z</time>
      </trkpt>
      <trkpt lat="42.49863" lon="1.86809">
        <ele>2018</ele>
        <time>2018-08-02T08:33:08Z</time>
      </trkpt>
      <trkpt lat="42.49868" lon="1.86803">
        <ele>2019</ele>
        <time>2018-08-02T08:33:20Z</time>
      </trkpt>
      <trkpt lat="42.49871" lon="1.86798">
        <ele>2020</ele>
        <time>2018-08-02T08:33:32Z</time>
      </trkpt>
      <trkpt lat="42.49876" lon="1.86795">
        <ele>2020</ele>
        <time>2018-08-02T08:33:44Z</time>
      </trkpt>
      <trkpt lat="42.49879" lon="1.86788">
        <ele>2021</ele>
        <time>2018-08-02T08:34:02Z</time>
      </trkpt>
      <trkpt lat="42.49884" lon="1.86785">
        <ele>2022</ele>
        <time>2018-08-02T08:34:20Z</time>
      </trkpt>
      <trkpt lat="42.49888" lon="1.86781">
        <ele>2023</ele>
        <time>2018-08-02T08:34:25Z</time>
      </trkpt>
      <trkpt lat="42.49891" lon="1.86776">
        <ele>2024</ele>
        <time>2018-08-02T08:34:30Z</time>
      </trkpt>
      <trkpt lat="42.49896" lon="1.86773">
        <ele>2025</ele>
        <time>2018-08-02T08:34:36Z</time>
      </trkpt>
      <trkpt lat="42.49899" lon="1.86766">
        <ele>2026</ele>
        <time>2018-08-02T08:34:56Z</time>
      </trkpt>
      <trkpt lat="42.49903" lon="1.86761">
        <ele>2028</ele>
        <time>2018-08-02T08:35:02Z</time>
      </trkpt>
      <trkpt lat="42.49906" lon="1.86755">
        <ele>2029</ele>
        <time>2018-08-02T08:35:10Z</time>
      </trkpt>
      <trkpt lat="42.49914" lon="1.86744">
        <ele>2033</ele>
        <time>2018-08-02T08:35:35Z</time>
      </trkpt>
      <trkpt lat="42.49935" lon="1.86734">
        <ele>2040</ele>
        <time>2018-08-02T08:37:56Z</time>
      </trkpt>
      <trkpt lat="42.49939" lon="1.8673">
        <ele>2041</ele>
        <time>2018-08-02T08:38:01Z</time>
      </trkpt>
      <trkpt lat="42.49946" lon="1.86727">
        <ele>2042</ele>
        <time>2018-08-02T08:38:11Z</time>
      </trkpt>
      <trkpt lat="42.49962" lon="1.86712">
        <ele>2044</ele>
        <time>2018-08-02T08:38:47Z</time>
      </trkpt>
      <trkpt lat="42.49966" lon="1.86709">
        <ele>2044</ele>
        <time>2018-08-02T08:38:52Z</time>
      </trkpt>
      <trkpt lat="42.49979" lon="1.86706">
        <ele>2045</ele>
        <time>2018-08-02T08:39:23Z</time>
      </trkpt>
      <trkpt lat="42.49984" lon="1.86702">
        <ele>2046</ele>
        <time>2018-08-02T08:39:37Z</time>
      </trkpt>
      <trkpt lat="42.49992" lon="1.86699">
        <ele>2047</ele>
        <time>2018-08-02T08:39:50Z</time>
      </trkpt>
      <trkpt lat="42.50006" lon="1.86693">
        <ele>2055</ele>
        <time>2018-08-02T08:40:30Z</time>
      </trkpt>
      <trkpt lat="42.5001" lon="1.86686">
        <ele>2055</ele>
        <time>2018-08-02T08:43:32Z</time>
      </trkpt>
      <trkpt lat="42.50013" lon="1.86682">
        <ele>2055</ele>
        <time>2018-08-02T08:43:37Z</time>
      </trkpt>
      <trkpt lat="42.50023" lon="1.86671">
        <ele>2055</ele>
        <time>2018-08-02T08:43:58Z</time>
      </trkpt>
      <trkpt lat="42.50029" lon="1.86667">
        <ele>2056</ele>
        <time>2018-08-02T08:44:10Z</time>
      </trkpt>
      <trkpt lat="42.50035" lon="1.86667">
        <ele>2057</ele>
        <time>2018-08-02T08:44:22Z</time>
      </trkpt>
      <trkpt lat="42.50042" lon="1.8666">
        <ele>2060</ele>
        <time>2018-08-02T08:44:46Z</time>
      </trkpt>
      <trkpt lat="42.50067" lon="1.86655">
        <ele>2063</ele>
        <time>2018-08-02T08:45:30Z</time>
      </trkpt>
      <trkpt lat="42.50074" lon="1.86654">
        <ele>2064</ele>
        <time>2018-08-02T08:45:42Z</time>
      </trkpt>
      <trkpt lat="42.50083" lon="1.86645">
        <ele>2064</ele>
        <time>2018-08-02T08:46:03Z</time>
      </trkpt>
      <trkpt lat="42.50088" lon="1.86643">
        <ele>2072</ele>
        <time>2018-08-02T08:46:09Z</time>
      </trkpt>
      <trkpt lat="42.50093" lon="1.86639">
        <ele>2073</ele>
        <time>2018-08-02T08:46:21Z</time>
      </trkpt>
      <trkpt lat="42.501" lon="1.86638">
        <ele>2074</ele>
        <time>2018-08-02T08:46:49Z</time>
      </trkpt>
      <trkpt lat="42.50115" lon="1.86633">
        <ele>2075</ele>
        <time>2018-08-02T08:47:09Z</time>
      </trkpt>
      <trkpt lat="42.50122" lon="1.86634">
        <ele>2075</ele>
        <time>2018-08-02T08:47:19Z</time>
      </trkpt>
      <trkpt lat="42.50129" lon="1.86631">
        <ele>2076</ele>
        <time>2018-08-02T08:47:29Z</time>
      </trkpt>
      <trkpt lat="42.50141" lon="1.86625">
        <ele>2077</ele>
        <time>2018-08-02T08:47:56Z</time>
      </trkpt>
      <trkpt lat="42.50147" lon="1.86617">
        <ele>2078</ele>
        <time>2018-08-02T08:48:39Z</time>
      </trkpt>
      <trkpt lat="42.50149" lon="1.8661">
        <ele>2080</ele>
        <time>2018-08-02T08:48:46Z</time>
      </trkpt>
      <trkpt lat="42.50154" lon="1.866">
        <ele>2082</ele>
        <time>2018-08-02T08:49:07Z</time>
      </trkpt>
      <trkpt lat="42.5016" lon="1.86597">
        <ele>2083</ele>
        <time>2018-08-02T08:49:25Z</time>
      </trkpt>
      <trkpt lat="42.50164" lon="1.86593">
        <ele>2085</ele>
        <time>2018-08-02T08:49:31Z</time>
      </trkpt>
      <trkpt lat="42.50167" lon="1.8659">
        <ele>2088</ele>
        <time>2018-08-02T08:49:37Z</time>
      </trkpt>
      <trkpt lat="42.50174" lon="1.86582">
        <ele>2090</ele>
        <time>2018-08-02T08:49:50Z</time>
      </trkpt>
      <trkpt lat="42.50178" lon="1.86579">
        <ele>2091</ele>
        <time>2018-08-02T08:49:56Z</time>
      </trkpt>
      <trkpt lat="42.50185" lon="1.86576">
        <ele>2092</ele>
        <time>2018-08-02T08:50:04Z</time>
      </trkpt>
      <trkpt lat="42.50212" lon="1.86577">
        <ele>2093</ele>
        <time>2018-08-02T08:50:30Z</time>
      </trkpt>
      <trkpt lat="42.50228" lon="1.86568">
        <ele>2093</ele>
        <time>2018-08-02T08:50:52Z</time>
      </trkpt>
      <trkpt lat="42.50233" lon="1.8657">
        <ele>2093</ele>
        <time>2018-08-02T08:50:57Z</time>
      </trkpt>
      <trkpt lat="42.50238" lon="1.86565">
        <ele>2094</ele>
        <time>2018-08-02T08:51:34Z</time>
      </trkpt>
      <trkpt lat="42.50242" lon="1.86561">
        <ele>2094</ele>
        <time>2018-08-02T08:51:42Z</time>
      </trkpt>
      <trkpt lat="42.50246" lon="1.86558">
        <ele>2094</ele>
        <time>2018-08-02T08:51:49Z</time>
      </trkpt>
      <trkpt lat="42.5025" lon="1.86554">
        <ele>2095</ele>
        <time>2018-08-02T08:52:21Z</time>
      </trkpt>
      <trkpt lat="42.50264" lon="1.86544">
        <ele>2101</ele>
        <time>2018-08-02T08:52:58Z</time>
      </trkpt>
      <trkpt lat="42.50275" lon="1.86537">
        <ele>2102</ele>
        <time>2018-08-02T08:53:35Z</time>
      </trkpt>
      <trkpt lat="42.5028" lon="1.86534">
        <ele>2103</ele>
        <time>2018-08-02T08:53:59Z</time>
      </trkpt>
      <trkpt lat="42.50285" lon="1.86534">
        <ele>2103</ele>
        <time>2018-08-02T08:54:08Z</time>
      </trkpt>
      <trkpt lat="42.50297" lon="1.86525">
        <ele>2104</ele>
        <time>2018-08-02T08:54:39Z</time>
      </trkpt>
      <trkpt lat="42.50304" lon="1.86521">
        <ele>2105</ele>
        <time>2018-08-02T08:54:49Z</time>
      </trkpt>
      <trkpt lat="42.50309" lon="1.86521">
        <ele>2106</ele>
        <time>2018-08-02T08:55:14Z</time>
      </trkpt>
      <trkpt lat="42.50309" lon="1.86513">
        <ele>2107</ele>
        <time>2018-08-02T08:55:40Z</time>
      </trkpt>
      <trkpt lat="42.50314" lon="1.8651">
        <ele>2108</ele>
        <time>2018-08-02T08:55:57Z</time>
      </trkpt>
      <trkpt lat="42.5032" lon="1.86511">
        <ele>2109</ele>
        <time>2018-08-02T08:56:05Z</time>
      </trkpt>
      <trkpt lat="42.50325" lon="1.86505">
        <ele>2111</ele>
        <time>2018-08-02T08:56:34Z</time>
      </trkpt>
      <trkpt lat="42.50327" lon="1.86499">
        <ele>2115</ele>
        <time>2018-08-02T08:56:48Z</time>
      </trkpt>
      <trkpt lat="42.50334" lon="1.86497">
        <ele>2117</ele>
        <time>2018-08-02T08:57:00Z</time>
      </trkpt>
      <trkpt lat="42.50339" lon="1.86491">
        <ele>2121</ele>
        <time>2018-08-02T08:57:18Z</time>
      </trkpt>
      <trkpt lat="42.50347" lon="1.8649">
        <ele>2123</ele>
        <time>2018-08-02T08:57:30Z</time>
      </trkpt>
      <trkpt lat="42.50351" lon="1.86492">
        <ele>2124</ele>
        <time>2018-08-02T09:01:02Z</time>
      </trkpt>
      <trkpt lat="42.50353" lon="1.86484">
        <ele>2125</ele>
        <time>2018-08-02T09:03:52Z</time>
      </trkpt>
      <trkpt lat="42.50356" lon="1.86478">
        <ele>2126</ele>
        <time>2018-08-02T09:04:04Z</time>
      </trkpt>
      <trkpt lat="42.50363" lon="1.86473">
        <ele>2128</ele>
        <time>2018-08-02T09:04:21Z</time>
      </trkpt>
      <trkpt lat="42.5037" lon="1.86469">
        <ele>2129</ele>
        <time>2018-08-02T09:04:34Z</time>
      </trkpt>
      <trkpt lat="42.50373" lon="1.86465">
        <ele>2130</ele>
        <time>2018-08-02T09:04:46Z</time>
      </trkpt>
      <trkpt lat="42.50379" lon="1.86464">
        <ele>2131</ele>
        <time>2018-08-02T09:04:49Z</time>
      </trkpt>
      <trkpt lat="42.50394" lon="1.86456">
        <ele>2133</ele>
        <time>2018-08-02T09:05:27Z</time>
      </trkpt>
      <trkpt lat="42.50398" lon="1.86448">
        <ele>2134</ele>
        <time>2018-08-02T09:05:39Z</time>
      </trkpt>
      <trkpt lat="42.50405" lon="1.86442">
        <ele>2136</ele>
        <time>2018-08-02T09:06:03Z</time>
      </trkpt>
      <trkpt lat="42.50411" lon="1.86443">
        <ele>2137</ele>
        <time>2018-08-02T09:06:15Z</time>
      </trkpt>
      <trkpt lat="42.50423" lon="1.86444">
        <ele>2145</ele>
        <time>2018-08-02T09:06:33Z</time>
      </trkpt>
      <trkpt lat="42.50432" lon="1.86444">
        <ele>2145</ele>
        <time>2018-08-02T09:06:51Z</time>
      </trkpt>
      <trkpt lat="42.50436" lon="1.86441">
        <ele>2145</ele>
        <time>2018-08-02T09:07:03Z</time>
      </trkpt>
      <trkpt lat="42.50442" lon="1.86439">
        <ele>2145</ele>
        <time>2018-08-02T09:07:09Z</time>
      </trkpt>
      <trkpt lat="42.50451" lon="1.86436">
        <ele>2146</ele>
        <time>2018-08-02T09:07:19Z</time>
      </trkpt>
      <trkpt lat="42.5045" lon="1.8643">
        <ele>2146</ele>
        <time>2018-08-02T09:07:33Z</time>
      </trkpt>
      <trkpt lat="42.50464" lon="1.86411">
        <ele>2156</ele>
        <time>2018-08-02T09:08:07Z</time>
      </trkpt>
      <trkpt lat="42.50469" lon="1.86408">
        <ele>2156</ele>
        <time>2018-08-02T09:08:15Z</time>
      </trkpt>
      <trkpt lat="42.50474" lon="1.86404">
        <ele>2156</ele>
        <time>2018-08-02T09:08:26Z</time>
      </trkpt>
      <trkpt lat="42.50481" lon="1.86403">
        <ele>2156</ele>
        <time>2018-08-02T09:08:37Z</time>
      </trkpt>
      <trkpt lat="42.50496" lon="1.86403">
        <ele>2156</ele>
        <time>2018-08-02T09:08:49Z</time>
      </trkpt>
      <trkpt lat="42.50518" lon="1.86389">
        <ele>2162</ele>
        <time>2018-08-02T09:09:24Z</time>
      </trkpt>
      <trkpt lat="42.50529" lon="1.86385">
        <ele>2163</ele>
        <time>2018-08-02T09:09:47Z</time>
      </trkpt>
      <trkpt lat="42.50537" lon="1.86382">
        <ele>2163</ele>
        <time>2018-08-02T09:09:57Z</time>
      </trkpt>
      <trkpt lat="42.50542" lon="1.8638">
        <ele>2164</ele>
        <time>2018-08-02T09:10:02Z</time>
      </trkpt>
      <trkpt lat="42.50546" lon="1.86376">
        <ele>2164</ele>
        <time>2018-08-02T09:10:20Z</time>
      </trkpt>
      <trkpt lat="42.50551" lon="1.86372">
        <ele>2164</ele>
        <time>2018-08-02T09:10:43Z</time>
      </trkpt>
      <trkpt lat="42.50562" lon="1.86367">
        <ele>2165</ele>
        <time>2018-08-02T09:10:56Z</time>
      </trkpt>
      <trkpt lat="42.50566" lon="1.86363">
        <ele>2166</ele>
        <time>2018-08-02T09:11:07Z</time>
      </trkpt>
      <trkpt lat="42.50575" lon="1.86361">
        <ele>2166</ele>
        <time>2018-08-02T09:12:45Z</time>
      </trkpt>
      <trkpt lat="42.50579" lon="1.8636">
        <ele>2166</ele>
        <time>2018-08-02T09:12:50Z</time>
      </trkpt>
      <trkpt lat="42.50589" lon="1.86358">
        <ele>2168</ele>
        <time>2018-08-02T09:13:01Z</time>
      </trkpt>
      <trkpt lat="42.50593" lon="1.86356">
        <ele>2168</ele>
        <time>2018-08-02T09:13:05Z</time>
      </trkpt>
      <trkpt lat="42.506" lon="1.86352">
        <ele>2168</ele>
        <time>2018-08-02T09:13:15Z</time>
      </trkpt>
      <trkpt lat="42.50605" lon="1.8635">
        <ele>2168</ele>
        <time>2018-08-02T09:13:19Z</time>
      </trkpt>
      <trkpt lat="42.50608" lon="1.86346">
        <ele>2169</ele>
        <time>2018-08-02T09:13:23Z</time>
      </trkpt>
      <trkpt lat="42.50629" lon="1.86338">
        <ele>2169</ele>
        <time>2018-08-02T09:13:44Z</time>
      </trkpt>
      <trkpt lat="42.50636" lon="1.86337">
        <ele>2169</ele>
        <time>2018-08-02T09:13:51Z</time>
      </trkpt>
      <trkpt lat="42.50642" lon="1.86332">
        <ele>2177</ele>
        <time>2018-08-02T09:13:59Z</time>
      </trkpt>
      <trkpt lat="42.50649" lon="1.8633">
        <ele>2177</ele>
        <time>2018-08-02T09:14:08Z</time>
      </trkpt>
      <trkpt lat="42.50653" lon="1.86328">
        <ele>2176</ele>
        <time>2018-08-02T09:14:13Z</time>
      </trkpt>
      <trkpt lat="42.50658" lon="1.86326">
        <ele>2176</ele>
        <time>2018-08-02T09:14:22Z</time>
      </trkpt>
      <trkpt lat="42.50671" lon="1.86326">
        <ele>2177</ele>
        <time>2018-08-02T09:14:33Z</time>
      </trkpt>
      <trkpt lat="42.50682" lon="1.8632">
        <ele>2179</ele>
        <time>2018-08-02T09:14:49Z</time>
      </trkpt>
      <trkpt lat="42.50686" lon="1.86319">
        <ele>2180</ele>
        <time>2018-08-02T09:14:54Z</time>
      </trkpt>
      <trkpt lat="42.50695" lon="1.86316">
        <ele>2181</ele>
        <time>2018-08-02T09:15:04Z</time>
      </trkpt>
      <trkpt lat="42.507" lon="1.86314">
        <ele>2181</ele>
        <time>2018-08-02T09:15:09Z</time>
      </trkpt>
      <trkpt lat="42.50713" lon="1.86314">
        <ele>2182</ele>
        <time>2018-08-02T09:15:20Z</time>
      </trkpt>
      <trkpt lat="42.50717" lon="1.8631">
        <ele>2182</ele>
        <time>2018-08-02T09:15:29Z</time>
      </trkpt>
      <trkpt lat="42.50723" lon="1.86306">
        <ele>2182</ele>
        <time>2018-08-02T09:15:39Z</time>
      </trkpt>
      <trkpt lat="42.50731" lon="1.86306">
        <ele>2182</ele>
        <time>2018-08-02T09:15:52Z</time>
      </trkpt>
      <trkpt lat="42.5074" lon="1.86307">
        <ele>2182</ele>
        <time>2018-08-02T09:16:02Z</time>
      </trkpt>
      <trkpt lat="42.5076" lon="1.863">
        <ele>2187</ele>
        <time>2018-08-02T09:16:28Z</time>
      </trkpt>
      <trkpt lat="42.50765" lon="1.86296">
        <ele>2187</ele>
        <time>2018-08-02T09:16:37Z</time>
      </trkpt>
      <trkpt lat="42.50769" lon="1.86294">
        <ele>2188</ele>
        <time>2018-08-02T09:16:42Z</time>
      </trkpt>
      <trkpt lat="42.5079" lon="1.86288">
        <ele>2189</ele>
        <time>2018-08-02T09:17:04Z</time>
      </trkpt>
      <trkpt lat="42.50799" lon="1.86282">
        <ele>2189</ele>
        <time>2018-08-02T09:17:17Z</time>
      </trkpt>
      <trkpt lat="42.50804" lon="1.86273">
        <ele>2190</ele>
        <time>2018-08-02T09:17:27Z</time>
      </trkpt>
      <trkpt lat="42.50808" lon="1.86269">
        <ele>2191</ele>
        <time>2018-08-02T09:17:32Z</time>
      </trkpt>
      <trkpt lat="42.50812" lon="1.86261">
        <ele>2191</ele>
        <time>2018-08-02T09:17:43Z</time>
      </trkpt>
      <trkpt lat="42.50817" lon="1.86256">
        <ele>2192</ele>
        <time>2018-08-02T09:17:54Z</time>
      </trkpt>
      <trkpt lat="42.50822" lon="1.86252">
        <ele>2193</ele>
        <time>2018-08-02T09:18:06Z</time>
      </trkpt>
      <trkpt lat="42.50839" lon="1.8624">
        <ele>2198</ele>
        <time>2018-08-02T09:18:29Z</time>
      </trkpt>
      <trkpt lat="42.50843" lon="1.86238">
        <ele>2198</ele>
        <time>2018-08-02T09:18:34Z</time>
      </trkpt>
      <trkpt lat="42.50847" lon="1.86233">
        <ele>2199</ele>
        <time>2018-08-02T09:18:41Z</time>
      </trkpt>
      <trkpt lat="42.5085" lon="1.86229">
        <ele>2200</ele>
        <time>2018-08-02T09:18:53Z</time>
      </trkpt>
      <trkpt lat="42.50855" lon="1.86225">
        <ele>2200</ele>
        <time>2018-08-02T09:19:04Z</time>
      </trkpt>
      <trkpt lat="42.5086" lon="1.86224">
        <ele>2200</ele>
        <time>2018-08-02T09:19:09Z</time>
      </trkpt>
      <trkpt lat="42.50866" lon="1.86221">
        <ele>2201</ele>
        <time>2018-08-02T09:19:17Z</time>
      </trkpt>
      <trkpt lat="42.50871" lon="1.86213">
        <ele>2201</ele>
        <time>2018-08-02T09:19:29Z</time>
      </trkpt>
      <trkpt lat="42.50875" lon="1.86203">
        <ele>2201</ele>
        <time>2018-08-02T09:19:40Z</time>
      </trkpt>
      <trkpt lat="42.5088" lon="1.86195">
        <ele>2202</ele>
        <time>2018-08-02T09:19:52Z</time>
      </trkpt>
      <trkpt lat="42.50888" lon="1.86188">
        <ele>2202</ele>
        <time>2018-08-02T09:20:03Z</time>
      </trkpt>
      <trkpt lat="42.50894" lon="1.86183">
        <ele>2203</ele>
        <time>2018-08-02T09:20:11Z</time>
      </trkpt>
      <trkpt lat="42.50903" lon="1.86179">
        <ele>2203</ele>
        <time>2018-08-02T09:20:22Z</time>
      </trkpt>
      <trkpt lat="42.50914" lon="1.86171">
        <ele>2204</ele>
        <time>2018-08-02T09:20:37Z</time>
      </trkpt>
      <trkpt lat="42.50918" lon="1.86171">
        <ele>2205</ele>
        <time>2018-08-02T09:20:42Z</time>
      </trkpt>
      <trkpt lat="42.50924" lon="1.86166">
        <ele>2207</ele>
        <time>2018-08-02T09:20:52Z</time>
      </trkpt>
      <trkpt lat="42.5093" lon="1.86159">
        <ele>2208</ele>
        <time>2018-08-02T09:21:04Z</time>
      </trkpt>
      <trkpt lat="42.50938" lon="1.86155">
        <ele>2209</ele>
        <time>2018-08-02T09:21:14Z</time>
      </trkpt>
      <trkpt lat="42.50944" lon="1.86151">
        <ele>2210</ele>
        <time>2018-08-02T09:21:23Z</time>
      </trkpt>
      <trkpt lat="42.5095" lon="1.86151">
        <ele>2210</ele>
        <time>2018-08-02T09:21:33Z</time>
      </trkpt>
      <trkpt lat="42.50956" lon="1.86152">
        <ele>2210</ele>
        <time>2018-08-02T09:21:39Z</time>
      </trkpt>
      <trkpt lat="42.50962" lon="1.8615">
        <ele>2210</ele>
        <time>2018-08-02T09:21:46Z</time>
      </trkpt>
      <trkpt lat="42.50967" lon="1.86148">
        <ele>2210</ele>
        <time>2018-08-02T09:21:50Z</time>
      </trkpt>
      <trkpt lat="42.5097" lon="1.86142">
        <ele>2211</ele>
        <time>2018-08-02T09:21:55Z</time>
      </trkpt>
      <trkpt lat="42.50974" lon="1.86139">
        <ele>2211</ele>
        <time>2018-08-02T09:22:00Z</time>
      </trkpt>
      <trkpt lat="42.50981" lon="1.86136">
        <ele>2211</ele>
        <time>2018-08-02T09:22:10Z</time>
      </trkpt>
      <trkpt lat="42.50986" lon="1.86136">
        <ele>2211</ele>
        <time>2018-08-02T09:22:14Z</time>
      </trkpt>
      <trkpt lat="42.50992" lon="1.86132">
        <ele>2212</ele>
        <time>2018-08-02T09:22:23Z</time>
      </trkpt>
      <trkpt lat="42.51001" lon="1.86126">
        <ele>2214</ele>
        <time>2018-08-02T09:22:33Z</time>
      </trkpt>
      <trkpt lat="42.51007" lon="1.86125">
        <ele>2215</ele>
        <time>2018-08-02T09:22:40Z</time>
      </trkpt>
      <trkpt lat="42.51014" lon="1.86127">
        <ele>2215</ele>
        <time>2018-08-02T09:22:52Z</time>
      </trkpt>
      <trkpt lat="42.51021" lon="1.86124">
        <ele>2215</ele>
        <time>2018-08-02T09:23:14Z</time>
      </trkpt>
      <trkpt lat="42.51026" lon="1.86118">
        <ele>2216</ele>
        <time>2018-08-02T09:23:24Z</time>
      </trkpt>
      <trkpt lat="42.51033" lon="1.86116">
        <ele>2216</ele>
        <time>2018-08-02T09:23:36Z</time>
      </trkpt>
      <trkpt lat="42.5104" lon="1.86114">
        <ele>2216</ele>
        <time>2018-08-02T09:23:44Z</time>
      </trkpt>
      <trkpt lat="42.51045" lon="1.86114">
        <ele>2216</ele>
        <time>2018-08-02T09:23:48Z</time>
      </trkpt>
      <trkpt lat="42.51051" lon="1.86111">
        <ele>2217</ele>
        <time>2018-08-02T09:23:55Z</time>
      </trkpt>
      <trkpt lat="42.51057" lon="1.86109">
        <ele>2217</ele>
        <time>2018-08-02T09:24:03Z</time>
      </trkpt>
      <trkpt lat="42.51063" lon="1.86103">
        <ele>2218</ele>
        <time>2018-08-02T09:24:11Z</time>
      </trkpt>
      <trkpt lat="42.51073" lon="1.86092">
        <ele>2220</ele>
        <time>2018-08-02T09:24:30Z</time>
      </trkpt>
      <trkpt lat="42.51078" lon="1.86084">
        <ele>2222</ele>
        <time>2018-08-02T09:24:41Z</time>
      </trkpt>
      <trkpt lat="42.51086" lon="1.86076">
        <ele>2225</ele>
        <time>2018-08-02T09:25:00Z</time>
      </trkpt>
      <trkpt lat="42.51093" lon="1.86076">
        <ele>2226</ele>
        <time>2018-08-02T09:25:11Z</time>
      </trkpt>
      <trkpt lat="42.511" lon="1.86069">
        <ele>2228</ele>
        <time>2018-08-02T09:25:23Z</time>
      </trkpt>
      <trkpt lat="42.5111" lon="1.86066">
        <ele>2229</ele>
        <time>2018-08-02T09:25:33Z</time>
      </trkpt>
      <trkpt lat="42.51114" lon="1.86061">
        <ele>2230</ele>
        <time>2018-08-02T09:25:48Z</time>
      </trkpt>
      <trkpt lat="42.51116" lon="1.86055">
        <ele>2230</ele>
        <time>2018-08-02T09:26:00Z</time>
      </trkpt>
      <trkpt lat="42.5112" lon="1.8605">
        <ele>2231</ele>
        <time>2018-08-02T09:26:05Z</time>
      </trkpt>
      <trkpt lat="42.51122" lon="1.86045">
        <ele>2231</ele>
        <time>2018-08-02T09:26:10Z</time>
      </trkpt>
      <trkpt lat="42.51129" lon="1.86042">
        <ele>2231</ele>
        <time>2018-08-02T09:26:17Z</time>
      </trkpt>
      <trkpt lat="42.51134" lon="1.86038">
        <ele>2232</ele>
        <time>2018-08-02T09:26:27Z</time>
      </trkpt>
      <trkpt lat="42.5114" lon="1.86031">
        <ele>2232</ele>
        <time>2018-08-02T09:26:40Z</time>
      </trkpt>
      <trkpt lat="42.51138" lon="1.86024">
        <ele>2232</ele>
        <time>2018-08-02T09:26:45Z</time>
      </trkpt>
      <trkpt lat="42.51142" lon="1.86017">
        <ele>2233</ele>
        <time>2018-08-02T09:26:52Z</time>
      </trkpt>
      <trkpt lat="42.51147" lon="1.86016">
        <ele>2233</ele>
        <time>2018-08-02T09:26:59Z</time>
      </trkpt>
      <trkpt lat="42.51152" lon="1.86015">
        <ele>2233</ele>
        <time>2018-08-02T09:27:04Z</time>
      </trkpt>
      <trkpt lat="42.51156" lon="1.86011">
        <ele>2234</ele>
        <time>2018-08-02T09:27:09Z</time>
      </trkpt>
      <trkpt lat="42.51162" lon="1.85999">
        <ele>2237</ele>
        <time>2018-08-02T09:27:23Z</time>
      </trkpt>
      <trkpt lat="42.51165" lon="1.85988">
        <ele>2238</ele>
        <time>2018-08-02T09:27:34Z</time>
      </trkpt>
      <trkpt lat="42.51169" lon="1.85986">
        <ele>2240</ele>
        <time>2018-08-02T09:27:41Z</time>
      </trkpt>
      <trkpt lat="42.51174" lon="1.85975">
        <ele>2242</ele>
        <time>2018-08-02T09:27:52Z</time>
      </trkpt>
      <trkpt lat="42.51183" lon="1.85966">
        <ele>2243</ele>
        <time>2018-08-02T09:28:16Z</time>
      </trkpt>
      <trkpt lat="42.51191" lon="1.85954">
        <ele>2244</ele>
        <time>2018-08-02T09:28:37Z</time>
      </trkpt>
      <trkpt lat="42.51202" lon="1.85945">
        <ele>2245</ele>
        <time>2018-08-02T09:28:53Z</time>
      </trkpt>
      <trkpt lat="42.51208" lon="1.85945">
        <ele>2245</ele>
        <time>2018-08-02T09:29:29Z</time>
      </trkpt>
      <trkpt lat="42.51213" lon="1.85942">
        <ele>2246</ele>
        <time>2018-08-02T09:29:40Z</time>
      </trkpt>
      <trkpt lat="42.51227" lon="1.85932">
        <ele>2247</ele>
        <time>2018-08-02T09:30:02Z</time>
      </trkpt>
      <trkpt lat="42.51239" lon="1.85912">
        <ele>2251</ele>
        <time>2018-08-02T09:30:23Z</time>
      </trkpt>
      <trkpt lat="42.51248" lon="1.85903">
        <ele>2251</ele>
        <time>2018-08-02T09:30:36Z</time>
      </trkpt>
      <trkpt lat="42.51263" lon="1.85874">
        <ele>2255</ele>
        <time>2018-08-02T09:31:06Z</time>
      </trkpt>
      <trkpt lat="42.51265" lon="1.85869">
        <ele>2256</ele>
        <time>2018-08-02T09:31:11Z</time>
      </trkpt>
      <trkpt lat="42.51274" lon="1.85861">
        <ele>2256</ele>
        <time>2018-08-02T09:31:24Z</time>
      </trkpt>
      <trkpt lat="42.51278" lon="1.85855">
        <ele>2256</ele>
        <time>2018-08-02T09:31:31Z</time>
      </trkpt>
      <trkpt lat="42.51281" lon="1.8585">
        <ele>2256</ele>
        <time>2018-08-02T09:31:36Z</time>
      </trkpt>
      <trkpt lat="42.5129" lon="1.85832">
        <ele>2260</ele>
        <time>2018-08-02T09:31:54Z</time>
      </trkpt>
      <trkpt lat="42.51311" lon="1.85807">
        <ele>2261</ele>
        <time>2018-08-02T09:32:24Z</time>
      </trkpt>
      <trkpt lat="42.51313" lon="1.858">
        <ele>2261</ele>
        <time>2018-08-02T09:32:29Z</time>
      </trkpt>
      <trkpt lat="42.51315" lon="1.85792">
        <ele>2261</ele>
        <time>2018-08-02T09:32:36Z</time>
      </trkpt>
      <trkpt lat="42.51319" lon="1.85786">
        <ele>2262</ele>
        <time>2018-08-02T09:32:44Z</time>
      </trkpt>
      <trkpt lat="42.51324" lon="1.85782">
        <ele>2262</ele>
        <time>2018-08-02T09:32:49Z</time>
      </trkpt>
      <trkpt lat="42.51328" lon="1.85778">
        <ele>2262</ele>
        <time>2018-08-02T09:32:54Z</time>
      </trkpt>
      <trkpt lat="42.5135" lon="1.85747">
        <ele>2266</ele>
        <time>2018-08-02T09:33:26Z</time>
      </trkpt>
      <trkpt lat="42.51355" lon="1.85736">
        <ele>2266</ele>
        <time>2018-08-02T09:33:36Z</time>
      </trkpt>
      <trkpt lat="42.51367" lon="1.85725">
        <ele>2267</ele>
        <time>2018-08-02T09:33:51Z</time>
      </trkpt>
      <trkpt lat="42.51371" lon="1.85721">
        <ele>2267</ele>
        <time>2018-08-02T09:33:56Z</time>
      </trkpt>
      <trkpt lat="42.51377" lon="1.85717">
        <ele>2267</ele>
        <time>2018-08-02T09:34:03Z</time>
      </trkpt>
      <trkpt lat="42.51381" lon="1.85713">
        <ele>2267</ele>
        <time>2018-08-02T09:34:08Z</time>
      </trkpt>
      <trkpt lat="42.51393" lon="1.85698">
        <ele>2268</ele>
        <time>2018-08-02T09:35:42Z</time>
      </trkpt>
      <trkpt lat="42.51399" lon="1.85692">
        <ele>2268</ele>
        <time>2018-08-02T09:35:54Z</time>
      </trkpt>
      <trkpt lat="42.51406" lon="1.85693">
        <ele>2268</ele>
        <time>2018-08-02T09:36:06Z</time>
      </trkpt>
      <trkpt lat="42.51408" lon="1.85688">
        <ele>2268</ele>
        <time>2018-08-02T09:36:11Z</time>
      </trkpt>
      <trkpt lat="42.51413" lon="1.85683">
        <ele>2269</ele>
        <time>2018-08-02T09:36:18Z</time>
      </trkpt>
      <trkpt lat="42.51417" lon="1.85679">
        <ele>2270</ele>
        <time>2018-08-02T09:36:23Z</time>
      </trkpt>
      <trkpt lat="42.51426" lon="1.85669">
        <ele>2270</ele>
        <time>2018-08-02T09:36:36Z</time>
      </trkpt>
      <trkpt lat="42.51435" lon="1.85659">
        <ele>2272</ele>
        <time>2018-08-02T09:36:48Z</time>
      </trkpt>
      <trkpt lat="42.5144" lon="1.85649">
        <ele>2272</ele>
        <time>2018-08-02T09:36:58Z</time>
      </trkpt>
      <trkpt lat="42.51442" lon="1.85643">
        <ele>2272</ele>
        <time>2018-08-02T09:37:03Z</time>
      </trkpt>
      <trkpt lat="42.51447" lon="1.85636">
        <ele>2272</ele>
        <time>2018-08-02T09:37:12Z</time>
      </trkpt>
      <trkpt lat="42.5145" lon="1.8563">
        <ele>2273</ele>
        <time>2018-08-02T09:37:18Z</time>
      </trkpt>
      <trkpt lat="42.51454" lon="1.85621">
        <ele>2273</ele>
        <time>2018-08-02T09:37:27Z</time>
      </trkpt>
      <trkpt lat="42.51456" lon="1.85615">
        <ele>2273</ele>
        <time>2018-08-02T09:37:33Z</time>
      </trkpt>
      <trkpt lat="42.51457" lon="1.85604">
        <ele>2273</ele>
        <time>2018-08-02T09:37:45Z</time>
      </trkpt>
      <trkpt lat="42.51454" lon="1.85598">
        <ele>2273</ele>
        <time>2018-08-02T09:37:51Z</time>
      </trkpt>
      <trkpt lat="42.51451" lon="1.85592">
        <ele>2273</ele>
        <time>2018-08-02T09:37:56Z</time>
      </trkpt>
      <trkpt lat="42.51451" lon="1.85586">
        <ele>2273</ele>
        <time>2018-08-02T09:38:01Z</time>
      </trkpt>
      <trkpt lat="42.51451" lon="1.8558">
        <ele>2275</ele>
        <time>2018-08-02T09:38:06Z</time>
      </trkpt>
      <trkpt lat="42.51455" lon="1.85574">
        <ele>2276</ele>
        <time>2018-08-02T09:38:11Z</time>
      </trkpt>
      <trkpt lat="42.51457" lon="1.85568">
        <ele>2276</ele>
        <time>2018-08-02T09:38:16Z</time>
      </trkpt>
      <trkpt lat="42.51457" lon="1.85561">
        <ele>2276</ele>
        <time>2018-08-02T09:38:21Z</time>
      </trkpt>
      <trkpt lat="42.51456" lon="1.85554">
        <ele>2276</ele>
        <time>2018-08-02T09:38:26Z</time>
      </trkpt>
      <trkpt lat="42.51462" lon="1.85544">
        <ele>2276</ele>
        <time>2018-08-02T09:38:36Z</time>
      </trkpt>
      <trkpt lat="42.51464" lon="1.85531">
        <ele>2277</ele>
        <time>2018-08-02T09:38:46Z</time>
      </trkpt>
      <trkpt lat="42.51464" lon="1.85522">
        <ele>2277</ele>
        <time>2018-08-02T09:38:54Z</time>
      </trkpt>
      <trkpt lat="42.51464" lon="1.85515">
        <ele>2277</ele>
        <time>2018-08-02T09:38:59Z</time>
      </trkpt>
      <trkpt lat="42.51466" lon="1.85507">
        <ele>2277</ele>
        <time>2018-08-02T09:39:07Z</time>
      </trkpt>
      <trkpt lat="42.51466" lon="1.855">
        <ele>2277</ele>
        <time>2018-08-02T09:39:13Z</time>
      </trkpt>
      <trkpt lat="42.51471" lon="1.8549">
        <ele>2280</ele>
        <time>2018-08-02T09:39:24Z</time>
      </trkpt>
      <trkpt lat="42.51476" lon="1.85489">
        <ele>2280</ele>
        <time>2018-08-02T09:39:29Z</time>
      </trkpt>
      <trkpt lat="42.51485" lon="1.85479">
        <ele>2280</ele>
        <time>2018-08-02T09:39:42Z</time>
      </trkpt>
      <trkpt lat="42.5149" lon="1.8548">
        <ele>2280</ele>
        <time>2018-08-02T09:39:47Z</time>
      </trkpt>
      <trkpt lat="42.51495" lon="1.85475">
        <ele>2280</ele>
        <time>2018-08-02T09:39:54Z</time>
      </trkpt>
      <trkpt lat="42.51499" lon="1.85466">
        <ele>2280</ele>
        <time>2018-08-02T09:40:03Z</time>
      </trkpt>
      <trkpt lat="42.51504" lon="1.85464">
        <ele>2282</ele>
        <time>2018-08-02T09:40:09Z</time>
      </trkpt>
      <trkpt lat="42.5151" lon="1.85465">
        <ele>2282</ele>
        <time>2018-08-02T09:40:33Z</time>
      </trkpt>
      <trkpt lat="42.51516" lon="1.85471">
        <ele>2281</ele>
        <time>2018-08-02T09:40:41Z</time>
      </trkpt>
      <trkpt lat="42.51525" lon="1.85472">
        <ele>2282</ele>
        <time>2018-08-02T09:40:50Z</time>
      </trkpt>
      <trkpt lat="42.5154" lon="1.85478">
        <ele>2282</ele>
        <time>2018-08-02T09:41:07Z</time>
      </trkpt>
      <trkpt lat="42.51545" lon="1.85481">
        <ele>2282</ele>
        <time>2018-08-02T09:41:12Z</time>
      </trkpt>
      <trkpt lat="42.5155" lon="1.85483">
        <ele>2282</ele>
        <time>2018-08-02T09:41:17Z</time>
      </trkpt>
      <trkpt lat="42.51555" lon="1.85482">
        <ele>2282</ele>
        <time>2018-08-02T09:41:22Z</time>
      </trkpt>
      <trkpt lat="42.51563" lon="1.85488">
        <ele>2282</ele>
        <time>2018-08-02T09:41:33Z</time>
      </trkpt>
      <trkpt lat="42.51569" lon="1.8549">
        <ele>2282</ele>
        <time>2018-08-02T09:41:38Z</time>
      </trkpt>
      <trkpt lat="42.51583" lon="1.85499">
        <ele>2282</ele>
        <time>2018-08-02T09:41:52Z</time>
      </trkpt>
      <trkpt lat="42.51591" lon="1.85508">
        <ele>2284</ele>
        <time>2018-08-02T09:42:02Z</time>
      </trkpt>
      <trkpt lat="42.51607" lon="1.85529">
        <ele>2285</ele>
        <time>2018-08-02T09:42:24Z</time>
      </trkpt>
      <trkpt lat="42.51616" lon="1.85539">
        <ele>2286</ele>
        <time>2018-08-02T09:42:36Z</time>
      </trkpt>
      <trkpt lat="42.51641" lon="1.85566">
        <ele>2287</ele>
        <time>2018-08-02T09:43:07Z</time>
      </trkpt>
      <trkpt lat="42.51649" lon="1.85575">
        <ele>2288</ele>
        <time>2018-08-02T09:43:16Z</time>
      </trkpt>
      <trkpt lat="42.51666" lon="1.85605">
        <ele>2289</ele>
        <time>2018-08-02T09:43:48Z</time>
      </trkpt>
      <trkpt lat="42.51673" lon="1.85611">
        <ele>2295</ele>
        <time>2018-08-02T09:43:58Z</time>
      </trkpt>
      <trkpt lat="42.51678" lon="1.85616">
        <ele>2295</ele>
        <time>2018-08-02T09:44:05Z</time>
      </trkpt>
      <trkpt lat="42.51682" lon="1.85622">
        <ele>2296</ele>
        <time>2018-08-02T09:44:13Z</time>
      </trkpt>
      <trkpt lat="42.51695" lon="1.8563">
        <ele>2297</ele>
        <time>2018-08-02T09:44:31Z</time>
      </trkpt>
      <trkpt lat="42.51698" lon="1.85635">
        <ele>2297</ele>
        <time>2018-08-02T09:44:37Z</time>
      </trkpt>
      <trkpt lat="42.51715" lon="1.85646">
        <ele>2298</ele>
        <time>2018-08-02T09:45:01Z</time>
      </trkpt>
      <trkpt lat="42.51725" lon="1.85654">
        <ele>2300</ele>
        <time>2018-08-02T09:45:15Z</time>
      </trkpt>
      <trkpt lat="42.51732" lon="1.85659">
        <ele>2301</ele>
        <time>2018-08-02T09:45:23Z</time>
      </trkpt>
      <trkpt lat="42.51738" lon="1.85667">
        <ele>2302</ele>
        <time>2018-08-02T09:45:37Z</time>
      </trkpt>
      <trkpt lat="42.5175" lon="1.85674">
        <ele>2307</ele>
        <time>2018-08-02T09:46:01Z</time>
      </trkpt>
      <trkpt lat="42.51766" lon="1.85676">
        <ele>2309</ele>
        <time>2018-08-02T09:46:25Z</time>
      </trkpt>
      <trkpt lat="42.5177" lon="1.85673">
        <ele>2310</ele>
        <time>2018-08-02T09:46:37Z</time>
      </trkpt>
      <trkpt lat="42.51776" lon="1.85673">
        <ele>2310</ele>
        <time>2018-08-02T09:46:53Z</time>
      </trkpt>
      <trkpt lat="42.51781" lon="1.8567">
        <ele>2311</ele>
        <time>2018-08-02T09:47:41Z</time>
      </trkpt>
      <trkpt lat="42.51787" lon="1.85669">
        <ele>2311</ele>
        <time>2018-08-02T09:47:48Z</time>
      </trkpt>
      <trkpt lat="42.51792" lon="1.8567">
        <ele>2312</ele>
        <time>2018-08-02T09:47:53Z</time>
      </trkpt>
      <trkpt lat="42.51797" lon="1.85671">
        <ele>2312</ele>
        <time>2018-08-02T09:48:19Z</time>
      </trkpt>
      <trkpt lat="42.51804" lon="1.85671">
        <ele>2313</ele>
        <time>2018-08-02T09:48:31Z</time>
      </trkpt>
      <trkpt lat="42.51813" lon="1.85684">
        <ele>2313</ele>
        <time>2018-08-02T09:48:49Z</time>
      </trkpt>
      <trkpt lat="42.51819" lon="1.85695">
        <ele>2314</ele>
        <time>2018-08-02T09:49:07Z</time>
      </trkpt>
      <trkpt lat="42.51817" lon="1.85693">
        <ele>2314</ele>
        <time>2018-08-02T09:50:21Z</time>
      </trkpt>
      <trkpt lat="42.5182" lon="1.85703">
        <ele>2314</ele>
        <time>2018-08-02T09:50:39Z</time>
      </trkpt>
      <trkpt lat="42.51823" lon="1.85709">
        <ele>2315</ele>
        <time>2018-08-02T09:50:57Z</time>
      </trkpt>
      <trkpt lat="42.51828" lon="1.85714">
        <ele>2315</ele>
        <time>2018-08-02T09:51:33Z</time>
      </trkpt>
      <trkpt lat="42.5183" lon="1.85723">
        <ele>2316</ele>
        <time>2018-08-02T09:54:33Z</time>
      </trkpt>
      <trkpt lat="42.5183" lon="1.85732">
        <ele>2317</ele>
        <time>2018-08-02T09:54:57Z</time>
      </trkpt>
      <trkpt lat="42.51842" lon="1.85743">
        <ele>2322</ele>
        <time>2018-08-02T09:55:22Z</time>
      </trkpt>
      <trkpt lat="42.51846" lon="1.85757">
        <ele>2325</ele>
        <time>2018-08-02T09:55:34Z</time>
      </trkpt>
      <trkpt lat="42.51845" lon="1.85765">
        <ele>2326</ele>
        <time>2018-08-02T09:55:39Z</time>
      </trkpt>
      <trkpt lat="42.51848" lon="1.8577">
        <ele>2326</ele>
        <time>2018-08-02T09:55:44Z</time>
      </trkpt>
      <trkpt lat="42.51849" lon="1.85777">
        <ele>2327</ele>
        <time>2018-08-02T09:55:49Z</time>
      </trkpt>
      <trkpt lat="42.51851" lon="1.85782">
        <ele>2327</ele>
        <time>2018-08-02T09:55:54Z</time>
      </trkpt>
      <trkpt lat="42.51851" lon="1.85791">
        <ele>2328</ele>
        <time>2018-08-02T09:56:03Z</time>
      </trkpt>
      <trkpt lat="42.51854" lon="1.85807">
        <ele>2329</ele>
        <time>2018-08-02T09:56:20Z</time>
      </trkpt>
      <trkpt lat="42.51863" lon="1.85821">
        <ele>2329</ele>
        <time>2018-08-02T09:56:35Z</time>
      </trkpt>
      <trkpt lat="42.51864" lon="1.85831">
        <ele>2330</ele>
        <time>2018-08-02T09:56:43Z</time>
      </trkpt>
      <trkpt lat="42.51867" lon="1.85839">
        <ele>2334</ele>
        <time>2018-08-02T09:56:51Z</time>
      </trkpt>
      <trkpt lat="42.51877" lon="1.85851">
        <ele>2335</ele>
        <time>2018-08-02T09:57:09Z</time>
      </trkpt>
      <trkpt lat="42.51882" lon="1.85853">
        <ele>2335</ele>
        <time>2018-08-02T09:57:15Z</time>
      </trkpt>
      <trkpt lat="42.51896" lon="1.85865">
        <ele>2336</ele>
        <time>2018-08-02T09:57:32Z</time>
      </trkpt>
      <trkpt lat="42.51904" lon="1.85869">
        <ele>2336</ele>
        <time>2018-08-02T09:57:42Z</time>
      </trkpt>
      <trkpt lat="42.51915" lon="1.85878">
        <ele>2337</ele>
        <time>2018-08-02T09:57:55Z</time>
      </trkpt>
      <trkpt lat="42.51922" lon="1.85879">
        <ele>2341</ele>
        <time>2018-08-02T09:58:02Z</time>
      </trkpt>
      <trkpt lat="42.51927" lon="1.85881">
        <ele>2341</ele>
        <time>2018-08-02T09:58:08Z</time>
      </trkpt>
      <trkpt lat="42.51929" lon="1.8589">
        <ele>2342</ele>
        <time>2018-08-02T09:58:21Z</time>
      </trkpt>
      <trkpt lat="42.51932" lon="1.85895">
        <ele>2342</ele>
        <time>2018-08-02T09:58:31Z</time>
      </trkpt>
      <trkpt lat="42.51944" lon="1.85897">
        <ele>2343</ele>
        <time>2018-08-02T09:58:46Z</time>
      </trkpt>
      <trkpt lat="42.51958" lon="1.85894">
        <ele>2343</ele>
        <time>2018-08-02T09:59:04Z</time>
      </trkpt>
      <trkpt lat="42.51966" lon="1.8589">
        <ele>2343</ele>
        <time>2018-08-02T09:59:14Z</time>
      </trkpt>
      <trkpt lat="42.51974" lon="1.85894">
        <ele>2344</ele>
        <time>2018-08-02T09:59:24Z</time>
      </trkpt>
      <trkpt lat="42.51975" lon="1.85901">
        <ele>2345</ele>
        <time>2018-08-02T09:59:36Z</time>
      </trkpt>
      <trkpt lat="42.51979" lon="1.85907">
        <ele>2346</ele>
        <time>2018-08-02T09:59:48Z</time>
      </trkpt>
      <trkpt lat="42.51989" lon="1.8592">
        <ele>2351</ele>
        <time>2018-08-02T10:00:10Z</time>
      </trkpt>
      <trkpt lat="42.51992" lon="1.85927">
        <ele>2351</ele>
        <time>2018-08-02T10:00:20Z</time>
      </trkpt>
      <trkpt lat="42.51998" lon="1.85931">
        <ele>2351</ele>
        <time>2018-08-02T10:00:31Z</time>
      </trkpt>
      <trkpt lat="42.52005" lon="1.85932">
        <ele>2355</ele>
        <time>2018-08-02T10:00:43Z</time>
      </trkpt>
      <trkpt lat="42.52015" lon="1.85945">
        <ele>2358</ele>
        <time>2018-08-02T10:01:07Z</time>
      </trkpt>
      <trkpt lat="42.52027" lon="1.85948">
        <ele>2359</ele>
        <time>2018-08-02T10:01:31Z</time>
      </trkpt>
      <trkpt lat="42.52032" lon="1.85947">
        <ele>2359</ele>
        <time>2018-08-02T10:01:37Z</time>
      </trkpt>
      <trkpt lat="42.52037" lon="1.85942">
        <ele>2359</ele>
        <time>2018-08-02T10:01:42Z</time>
      </trkpt>
      <trkpt lat="42.52041" lon="1.85941">
        <ele>2359</ele>
        <time>2018-08-02T10:01:46Z</time>
      </trkpt>
      <trkpt lat="42.52046" lon="1.85946">
        <ele>2360</ele>
        <time>2018-08-02T10:01:59Z</time>
      </trkpt>
      <trkpt lat="42.52051" lon="1.85948">
        <ele>2360</ele>
        <time>2018-08-02T10:02:05Z</time>
      </trkpt>
      <trkpt lat="42.52056" lon="1.85949">
        <ele>2361</ele>
        <time>2018-08-02T10:02:14Z</time>
      </trkpt>
      <trkpt lat="42.52061" lon="1.85949">
        <ele>2361</ele>
        <time>2018-08-02T10:02:22Z</time>
      </trkpt>
      <trkpt lat="42.52066" lon="1.85949">
        <ele>2361</ele>
        <time>2018-08-02T10:02:27Z</time>
      </trkpt>
      <trkpt lat="42.5207" lon="1.85946">
        <ele>2361</ele>
        <time>2018-08-02T10:02:35Z</time>
      </trkpt>
      <trkpt lat="42.52074" lon="1.85942">
        <ele>2361</ele>
        <time>2018-08-02T10:02:42Z</time>
      </trkpt>
      <trkpt lat="42.52083" lon="1.85945">
        <ele>2362</ele>
        <time>2018-08-02T10:02:54Z</time>
      </trkpt>
      <trkpt lat="42.52087" lon="1.85941">
        <ele>2366</ele>
        <time>2018-08-02T10:03:06Z</time>
      </trkpt>
      <trkpt lat="42.52092" lon="1.85944">
        <ele>2366</ele>
        <time>2018-08-02T10:03:36Z</time>
      </trkpt>
      <trkpt lat="42.5211" lon="1.85947">
        <ele>2367</ele>
        <time>2018-08-02T10:04:23Z</time>
      </trkpt>
      <trkpt lat="42.52123" lon="1.8595">
        <ele>2367</ele>
        <time>2018-08-02T10:04:38Z</time>
      </trkpt>
      <trkpt lat="42.52128" lon="1.85946">
        <ele>2368</ele>
        <time>2018-08-02T10:04:50Z</time>
      </trkpt>
      <trkpt lat="42.52128" lon="1.85954">
        <ele>2368</ele>
        <time>2018-08-02T10:05:01Z</time>
      </trkpt>
      <trkpt lat="42.52133" lon="1.85955">
        <ele>2368</ele>
        <time>2018-08-02T10:05:24Z</time>
      </trkpt>
      <trkpt lat="42.52139" lon="1.85956">
        <ele>2368</ele>
        <time>2018-08-02T10:05:34Z</time>
      </trkpt>
      <trkpt lat="42.52148" lon="1.85964">
        <ele>2369</ele>
        <time>2018-08-02T10:05:45Z</time>
      </trkpt>
      <trkpt lat="42.52156" lon="1.85961">
        <ele>2369</ele>
        <time>2018-08-02T10:05:56Z</time>
      </trkpt>
      <trkpt lat="42.52162" lon="1.85963">
        <ele>2369</ele>
        <time>2018-08-02T10:06:01Z</time>
      </trkpt>
      <trkpt lat="42.52166" lon="1.85967">
        <ele>2369</ele>
        <time>2018-08-02T10:06:06Z</time>
      </trkpt>
      <trkpt lat="42.52173" lon="1.85974">
        <ele>2371</ele>
        <time>2018-08-02T10:06:54Z</time>
      </trkpt>
      <trkpt lat="42.52195" lon="1.85977">
        <ele>2372</ele>
        <time>2018-08-02T10:07:15Z</time>
      </trkpt>
      <trkpt lat="42.52199" lon="1.85982">
        <ele>2372</ele>
        <time>2018-08-02T10:07:20Z</time>
      </trkpt>
      <trkpt lat="42.52202" lon="1.85987">
        <ele>2372</ele>
        <time>2018-08-02T10:07:25Z</time>
      </trkpt>
      <trkpt lat="42.52216" lon="1.86009">
        <ele>2375</ele>
        <time>2018-08-02T10:07:46Z</time>
      </trkpt>
      <trkpt lat="42.52224" lon="1.86048">
        <ele>2375</ele>
        <time>2018-08-02T10:08:15Z</time>
      </trkpt>
      <trkpt lat="42.52227" lon="1.86055">
        <ele>2376</ele>
        <time>2018-08-02T10:08:22Z</time>
      </trkpt>
      <trkpt lat="42.52226" lon="1.86074">
        <ele>2376</ele>
        <time>2018-08-02T10:08:38Z</time>
      </trkpt>
      <trkpt lat="42.52227" lon="1.86081">
        <ele>2376</ele>
        <time>2018-08-02T10:08:43Z</time>
      </trkpt>
      <trkpt lat="42.52227" lon="1.86101">
        <ele>2376</ele>
        <time>2018-08-02T10:08:58Z</time>
      </trkpt>
      <trkpt lat="42.52231" lon="1.86109">
        <ele>2376</ele>
        <time>2018-08-02T10:09:13Z</time>
      </trkpt>
      <trkpt lat="42.52239" lon="1.86106">
        <ele>2376</ele>
        <time>2018-08-02T10:09:25Z</time>
      </trkpt>
      <trkpt lat="42.52244" lon="1.86108">
        <ele>2376</ele>
        <time>2018-08-02T10:09:31Z</time>
      </trkpt>
      <trkpt lat="42.52248" lon="1.86113">
        <ele>2376</ele>
        <time>2018-08-02T10:09:37Z</time>
      </trkpt>
      <trkpt lat="42.52252" lon="1.86118">
        <ele>2377</ele>
        <time>2018-08-02T10:09:41Z</time>
      </trkpt>
      <trkpt lat="42.52258" lon="1.86119">
        <ele>2377</ele>
        <time>2018-08-02T10:09:49Z</time>
      </trkpt>
      <trkpt lat="42.52268" lon="1.86117">
        <ele>2377</ele>
        <time>2018-08-02T10:09:59Z</time>
      </trkpt>
      <trkpt lat="42.52284" lon="1.86121">
        <ele>2377</ele>
        <time>2018-08-02T10:10:16Z</time>
      </trkpt>
      <trkpt lat="42.52289" lon="1.86123">
        <ele>2377</ele>
        <time>2018-08-02T10:10:20Z</time>
      </trkpt>
      <trkpt lat="42.52294" lon="1.86122">
        <ele>2378</ele>
        <time>2018-08-02T10:10:24Z</time>
      </trkpt>
      <trkpt lat="42.52299" lon="1.86125">
        <ele>2378</ele>
        <time>2018-08-02T10:10:29Z</time>
      </trkpt>
      <trkpt lat="42.52311" lon="1.86137">
        <ele>2378</ele>
        <time>2018-08-02T10:10:45Z</time>
      </trkpt>
      <trkpt lat="42.52316" lon="1.86146">
        <ele>2378</ele>
        <time>2018-08-02T10:10:55Z</time>
      </trkpt>
      <trkpt lat="42.52336" lon="1.86169">
        <ele>2381</ele>
        <time>2018-08-02T10:11:26Z</time>
      </trkpt>
      <trkpt lat="42.5234" lon="1.86178">
        <ele>2383</ele>
        <time>2018-08-02T10:11:34Z</time>
      </trkpt>
      <trkpt lat="42.52341" lon="1.86185">
        <ele>2384</ele>
        <time>2018-08-02T10:11:39Z</time>
      </trkpt>
      <trkpt lat="42.5234" lon="1.86194">
        <ele>2384</ele>
        <time>2018-08-02T10:11:46Z</time>
      </trkpt>
      <trkpt lat="42.52345" lon="1.86199">
        <ele>2385</ele>
        <time>2018-08-02T10:11:55Z</time>
      </trkpt>
      <trkpt lat="42.52348" lon="1.86205">
        <ele>2385</ele>
        <time>2018-08-02T10:12:01Z</time>
      </trkpt>
      <trkpt lat="42.52349" lon="1.86211">
        <ele>2385</ele>
        <time>2018-08-02T10:12:05Z</time>
      </trkpt>
      <trkpt lat="42.52351" lon="1.86217">
        <ele>2385</ele>
        <time>2018-08-02T10:12:10Z</time>
      </trkpt>
      <trkpt lat="42.52353" lon="1.86223">
        <ele>2385</ele>
        <time>2018-08-02T10:12:18Z</time>
      </trkpt>
      <trkpt lat="42.5236" lon="1.86229">
        <ele>2385</ele>
        <time>2018-08-02T10:12:30Z</time>
      </trkpt>
      <trkpt lat="42.52365" lon="1.86231">
        <ele>2386</ele>
        <time>2018-08-02T10:12:37Z</time>
      </trkpt>
      <trkpt lat="42.52372" lon="1.86231">
        <ele>2387</ele>
        <time>2018-08-02T10:12:45Z</time>
      </trkpt>
      <trkpt lat="42.52378" lon="1.86232">
        <ele>2387</ele>
        <time>2018-08-02T10:12:54Z</time>
      </trkpt>
      <trkpt lat="42.52384" lon="1.86227">
        <ele>2388</ele>
        <time>2018-08-02T10:13:06Z</time>
      </trkpt>
      <trkpt lat="42.5239" lon="1.86228">
        <ele>2389</ele>
        <time>2018-08-02T10:13:19Z</time>
      </trkpt>
      <trkpt lat="42.5241" lon="1.86229">
        <ele>2391</ele>
        <time>2018-08-02T10:13:41Z</time>
      </trkpt>
      <trkpt lat="42.52422" lon="1.86232">
        <ele>2399</ele>
        <time>2018-08-02T10:14:00Z</time>
      </trkpt>
      <trkpt lat="42.52427" lon="1.86233">
        <ele>2399</ele>
        <time>2018-08-02T10:14:06Z</time>
      </trkpt>
      <trkpt lat="42.52433" lon="1.86235">
        <ele>2400</ele>
        <time>2018-08-02T10:14:14Z</time>
      </trkpt>
      <trkpt lat="42.52439" lon="1.86231">
        <ele>2401</ele>
        <time>2018-08-02T10:14:26Z</time>
      </trkpt>
      <trkpt lat="42.52444" lon="1.86227">
        <ele>2402</ele>
        <time>2018-08-02T10:14:38Z</time>
      </trkpt>
      <trkpt lat="42.52452" lon="1.86232">
        <ele>2403</ele>
        <time>2018-08-02T10:14:55Z</time>
      </trkpt>
      <trkpt lat="42.52457" lon="1.86238">
        <ele>2403</ele>
        <time>2018-08-02T10:15:04Z</time>
      </trkpt>
      <trkpt lat="42.52463" lon="1.86246">
        <ele>2404</ele>
        <time>2018-08-02T10:15:18Z</time>
      </trkpt>
      <trkpt lat="42.52475" lon="1.86261">
        <ele>2407</ele>
        <time>2018-08-02T10:15:43Z</time>
      </trkpt>
      <trkpt lat="42.52477" lon="1.86267">
        <ele>2407</ele>
        <time>2018-08-02T10:15:55Z</time>
      </trkpt>
      <trkpt lat="42.52478" lon="1.86274">
        <ele>2407</ele>
        <time>2018-08-02T10:16:01Z</time>
      </trkpt>
      <trkpt lat="42.52482" lon="1.86278">
        <ele>2407</ele>
        <time>2018-08-02T10:16:13Z</time>
      </trkpt>
      <trkpt lat="42.52483" lon="1.86284">
        <ele>2407</ele>
        <time>2018-08-02T10:16:19Z</time>
      </trkpt>
      <trkpt lat="42.52483" lon="1.86298">
        <ele>2407</ele>
        <time>2018-08-02T10:16:31Z</time>
      </trkpt>
      <trkpt lat="42.52482" lon="1.86306">
        <ele>2407</ele>
        <time>2018-08-02T10:16:39Z</time>
      </trkpt>
      <trkpt lat="42.5248" lon="1.86312">
        <ele>2407</ele>
        <time>2018-08-02T10:16:45Z</time>
      </trkpt>
      <trkpt lat="42.52476" lon="1.86318">
        <ele>2407</ele>
        <time>2018-08-02T10:16:50Z</time>
      </trkpt>
      <trkpt lat="42.52472" lon="1.86323">
        <ele>2407</ele>
        <time>2018-08-02T10:16:54Z</time>
      </trkpt>
      <trkpt lat="42.5247" lon="1.86328">
        <ele>2406</ele>
        <time>2018-08-02T10:16:58Z</time>
      </trkpt>
      <trkpt lat="42.52468" lon="1.86334">
        <ele>2407</ele>
        <time>2018-08-02T10:17:02Z</time>
      </trkpt>
      <trkpt lat="42.52468" lon="1.8634">
        <ele>2407</ele>
        <time>2018-08-02T10:17:06Z</time>
      </trkpt>
      <trkpt lat="42.52469" lon="1.86348">
        <ele>2407</ele>
        <time>2018-08-02T10:17:14Z</time>
      </trkpt>
      <trkpt lat="42.52474" lon="1.86357">
        <ele>2408</ele>
        <time>2018-08-02T10:17:26Z</time>
      </trkpt>
      <trkpt lat="42.52475" lon="1.86379">
        <ele>2408</ele>
        <time>2018-08-02T10:17:47Z</time>
      </trkpt>
      <trkpt lat="42.52474" lon="1.86386">
        <ele>2408</ele>
        <time>2018-08-02T10:17:52Z</time>
      </trkpt>
      <trkpt lat="42.52476" lon="1.86395">
        <ele>2409</ele>
        <time>2018-08-02T10:18:00Z</time>
      </trkpt>
      <trkpt lat="42.52476" lon="1.86412">
        <ele>2410</ele>
        <time>2018-08-02T10:18:16Z</time>
      </trkpt>
      <trkpt lat="42.52474" lon="1.86418">
        <ele>2411</ele>
        <time>2018-08-02T10:18:21Z</time>
      </trkpt>
      <trkpt lat="42.52474" lon="1.86431">
        <ele>2410</ele>
        <time>2018-08-02T10:18:30Z</time>
      </trkpt>
      <trkpt lat="42.52476" lon="1.86437">
        <ele>2410</ele>
        <time>2018-08-02T10:18:35Z</time>
      </trkpt>
      <trkpt lat="42.52482" lon="1.86445">
        <ele>2411</ele>
        <time>2018-08-02T10:18:49Z</time>
      </trkpt>
      <trkpt lat="42.52478" lon="1.8645">
        <ele>2410</ele>
        <time>2018-08-02T10:19:03Z</time>
      </trkpt>
      <trkpt lat="42.52485" lon="1.86453">
        <ele>2411</ele>
        <time>2018-08-02T10:19:21Z</time>
      </trkpt>
      <trkpt lat="42.52491" lon="1.86452">
        <ele>2411</ele>
        <time>2018-08-02T10:19:45Z</time>
      </trkpt>
      <trkpt lat="42.52494" lon="1.86458">
        <ele>2411</ele>
        <time>2018-08-02T10:19:50Z</time>
      </trkpt>
      <trkpt lat="42.52492" lon="1.86471">
        <ele>2411</ele>
        <time>2018-08-02T10:19:58Z</time>
      </trkpt>
      <trkpt lat="42.52496" lon="1.86482">
        <ele>2413</ele>
        <time>2018-08-02T10:20:09Z</time>
      </trkpt>
      <trkpt lat="42.52503" lon="1.86476">
        <ele>2425</ele>
        <time>2018-08-02T10:20:39Z</time>
      </trkpt>
      <trkpt lat="42.52515" lon="1.86472">
        <ele>2426</ele>
        <time>2018-08-02T10:21:03Z</time>
      </trkpt>
      <trkpt lat="42.52524" lon="1.86471">
        <ele>2428</ele>
        <time>2018-08-02T10:21:15Z</time>
      </trkpt>
      <trkpt lat="42.52533" lon="1.86464">
        <ele>2429</ele>
        <time>2018-08-02T10:21:39Z</time>
      </trkpt>
      <trkpt lat="42.52538" lon="1.86463">
        <ele>2430</ele>
        <time>2018-08-02T10:21:46Z</time>
      </trkpt>
      <trkpt lat="42.52545" lon="1.86464">
        <ele>2431</ele>
        <time>2018-08-02T10:22:02Z</time>
      </trkpt>
      <trkpt lat="42.52551" lon="1.86463">
        <ele>2432</ele>
        <time>2018-08-02T10:22:14Z</time>
      </trkpt>
      <trkpt lat="42.52555" lon="1.86469">
        <ele>2432</ele>
        <time>2018-08-02T10:22:44Z</time>
      </trkpt>
      <trkpt lat="42.5256" lon="1.86468">
        <ele>2433</ele>
        <time>2018-08-02T10:22:56Z</time>
      </trkpt>
      <trkpt lat="42.52567" lon="1.86472">
        <ele>2434</ele>
        <time>2018-08-02T10:23:22Z</time>
      </trkpt>
      <trkpt lat="42.5258" lon="1.8647">
        <ele>2435</ele>
        <time>2018-08-02T10:23:46Z</time>
      </trkpt>
      <trkpt lat="42.52587" lon="1.86467">
        <ele>2449</ele>
        <time>2018-08-02T10:23:58Z</time>
      </trkpt>
      <trkpt lat="42.52591" lon="1.86459">
        <ele>2449</ele>
        <time>2018-08-02T10:24:11Z</time>
      </trkpt>
      <trkpt lat="42.5261" lon="1.86444">
        <ele>2451</ele>
        <time>2018-08-02T10:24:41Z</time>
      </trkpt>
      <trkpt lat="42.52614" lon="1.86437">
        <ele>2451</ele>
        <time>2018-08-02T10:24:53Z</time>
      </trkpt>
      <trkpt lat="42.52615" lon="1.86428">
        <ele>2451</ele>
        <time>2018-08-02T10:25:05Z</time>
      </trkpt>
      <trkpt lat="42.5262" lon="1.86421">
        <ele>2452</ele>
        <time>2018-08-02T10:25:18Z</time>
      </trkpt>
      <trkpt lat="42.52625" lon="1.86421">
        <ele>2453</ele>
        <time>2018-08-02T10:25:36Z</time>
      </trkpt>
      <trkpt lat="42.52633" lon="1.86417">
        <ele>2455</ele>
        <time>2018-08-02T10:25:48Z</time>
      </trkpt>
      <trkpt lat="42.5264" lon="1.86415">
        <ele>2455</ele>
        <time>2018-08-02T10:26:06Z</time>
      </trkpt>
      <trkpt lat="42.52645" lon="1.86419">
        <ele>2457</ele>
        <time>2018-08-02T10:26:30Z</time>
      </trkpt>
      <trkpt lat="42.52656" lon="1.86414">
        <ele>2460</ele>
        <time>2018-08-02T10:26:52Z</time>
      </trkpt>
      <trkpt lat="42.52661" lon="1.86413">
        <ele>2461</ele>
        <time>2018-08-02T10:27:02Z</time>
      </trkpt>
      <trkpt lat="42.52666" lon="1.8641">
        <ele>2461</ele>
        <time>2018-08-02T10:27:12Z</time>
      </trkpt>
      <trkpt lat="42.5267" lon="1.86406">
        <ele>2468</ele>
        <time>2018-08-02T10:27:27Z</time>
      </trkpt>
      <trkpt lat="42.52681" lon="1.86401">
        <ele>2471</ele>
        <time>2018-08-02T10:27:47Z</time>
      </trkpt>
      <trkpt lat="42.52697" lon="1.8639">
        <ele>2474</ele>
        <time>2018-08-02T10:28:23Z</time>
      </trkpt>
      <trkpt lat="42.52705" lon="1.86376">
        <ele>2476</ele>
        <time>2018-08-02T10:28:41Z</time>
      </trkpt>
      <trkpt lat="42.52711" lon="1.86372">
        <ele>2477</ele>
        <time>2018-08-02T10:28:53Z</time>
      </trkpt>
      <trkpt lat="42.52724" lon="1.86361">
        <ele>2479</ele>
        <time>2018-08-02T10:29:47Z</time>
      </trkpt>
      <trkpt lat="42.52733" lon="1.8635">
        <ele>2481</ele>
        <time>2018-08-02T10:30:11Z</time>
      </trkpt>
      <trkpt lat="42.52747" lon="1.86341">
        <ele>2485</ele>
        <time>2018-08-02T10:30:46Z</time>
      </trkpt>
      <trkpt lat="42.52751" lon="1.86338">
        <ele>2490</ele>
        <time>2018-08-02T10:30:51Z</time>
      </trkpt>
      <trkpt lat="42.52759" lon="1.86337">
        <ele>2492</ele>
        <time>2018-08-02T10:31:07Z</time>
      </trkpt>
      <trkpt lat="42.52767" lon="1.86329">
        <ele>2495</ele>
        <time>2018-08-02T10:32:07Z</time>
      </trkpt>
      <trkpt lat="42.52772" lon="1.86321">
        <ele>2497</ele>
        <time>2018-08-02T10:32:18Z</time>
      </trkpt>
      <trkpt lat="42.52784" lon="1.86308">
        <ele>2500</ele>
        <time>2018-08-02T10:32:38Z</time>
      </trkpt>
      <trkpt lat="42.52788" lon="1.86302">
        <ele>2501</ele>
        <time>2018-08-02T10:32:48Z</time>
      </trkpt>
      <trkpt lat="42.52794" lon="1.86286">
        <ele>2502</ele>
        <time>2018-08-02T10:33:10Z</time>
      </trkpt>
      <trkpt lat="42.52798" lon="1.8628">
        <ele>2502</ele>
        <time>2018-08-02T10:33:17Z</time>
      </trkpt>
      <trkpt lat="42.52802" lon="1.86273">
        <ele>2503</ele>
        <time>2018-08-02T10:33:31Z</time>
      </trkpt>
      <trkpt lat="42.52808" lon="1.86271">
        <ele>2505</ele>
        <time>2018-08-02T10:33:49Z</time>
      </trkpt>
      <trkpt lat="42.52821" lon="1.86268">
        <ele>2507</ele>
        <time>2018-08-02T10:34:05Z</time>
      </trkpt>
      <trkpt lat="42.52835" lon="1.86259">
        <ele>2518</ele>
        <time>2018-08-02T10:34:30Z</time>
      </trkpt>
      <trkpt lat="42.52845" lon="1.86256">
        <ele>2519</ele>
        <time>2018-08-02T10:34:54Z</time>
      </trkpt>
      <trkpt lat="42.52849" lon="1.86251">
        <ele>2519</ele>
        <time>2018-08-02T10:35:06Z</time>
      </trkpt>
      <trkpt lat="42.52854" lon="1.86244">
        <ele>2521</ele>
        <time>2018-08-02T10:35:16Z</time>
      </trkpt>
      <trkpt lat="42.52861" lon="1.86243">
        <ele>2523</ele>
        <time>2018-08-02T10:35:25Z</time>
      </trkpt>
      <trkpt lat="42.52865" lon="1.86234">
        <ele>2524</ele>
        <time>2018-08-02T10:35:43Z</time>
      </trkpt>
      <trkpt lat="42.52872" lon="1.86232">
        <ele>2525</ele>
        <time>2018-08-02T10:35:55Z</time>
      </trkpt>
      <trkpt lat="42.52881" lon="1.86221">
        <ele>2526</ele>
        <time>2018-08-02T10:36:25Z</time>
      </trkpt>
      <trkpt lat="42.52888" lon="1.86216">
        <ele>2527</ele>
        <time>2018-08-02T10:36:37Z</time>
      </trkpt>
      <trkpt lat="42.52893" lon="1.86212">
        <ele>2528</ele>
        <time>2018-08-02T10:36:47Z</time>
      </trkpt>
      <trkpt lat="42.52899" lon="1.86203">
        <ele>2528</ele>
        <time>2018-08-02T10:37:25Z</time>
      </trkpt>
      <trkpt lat="42.52913" lon="1.86183">
        <ele>2531</ele>
        <time>2018-08-02T10:37:49Z</time>
      </trkpt>
      <trkpt lat="42.52915" lon="1.86178">
        <ele>2532</ele>
        <time>2018-08-02T10:37:54Z</time>
      </trkpt>
      <trkpt lat="42.5292" lon="1.86174">
        <ele>2538</ele>
        <time>2018-08-02T10:38:02Z</time>
      </trkpt>
      <trkpt lat="42.52927" lon="1.86175">
        <ele>2538</ele>
        <time>2018-08-02T10:38:11Z</time>
      </trkpt>
      <trkpt lat="42.52931" lon="1.86175">
        <ele>2539</ele>
        <time>2018-08-02T10:38:23Z</time>
      </trkpt>
      <trkpt lat="42.52946" lon="1.86166">
        <ele>2540</ele>
        <time>2018-08-02T10:38:46Z</time>
      </trkpt>
      <trkpt lat="42.52957" lon="1.86163">
        <ele>2541</ele>
        <time>2018-08-02T10:39:03Z</time>
      </trkpt>
      <trkpt lat="42.52964" lon="1.86158">
        <ele>2542</ele>
        <time>2018-08-02T10:39:15Z</time>
      </trkpt>
      <trkpt lat="42.52977" lon="1.86143">
        <ele>2543</ele>
        <time>2018-08-02T10:40:08Z</time>
      </trkpt>
      <trkpt lat="42.52981" lon="1.86133">
        <ele>2543</ele>
        <time>2018-08-02T10:40:26Z</time>
      </trkpt>
      <trkpt lat="42.52986" lon="1.86123">
        <ele>2543</ele>
        <time>2018-08-02T10:40:37Z</time>
      </trkpt>
      <trkpt lat="42.52992" lon="1.86116">
        <ele>2543</ele>
        <time>2018-08-02T10:40:46Z</time>
      </trkpt>
      <trkpt lat="42.52993" lon="1.86111">
        <ele>2543</ele>
        <time>2018-08-02T10:40:51Z</time>
      </trkpt>
      <trkpt lat="42.52997" lon="1.86105">
        <ele>2544</ele>
        <time>2018-08-02T10:40:59Z</time>
      </trkpt>
      <trkpt lat="42.53001" lon="1.861">
        <ele>2548</ele>
        <time>2018-08-02T10:41:05Z</time>
      </trkpt>
      <trkpt lat="42.53006" lon="1.86097">
        <ele>2548</ele>
        <time>2018-08-02T10:41:10Z</time>
      </trkpt>
      <trkpt lat="42.5301" lon="1.86094">
        <ele>2548</ele>
        <time>2018-08-02T10:41:14Z</time>
      </trkpt>
      <trkpt lat="42.53015" lon="1.86093">
        <ele>2548</ele>
        <time>2018-08-02T10:41:19Z</time>
      </trkpt>
      <trkpt lat="42.53019" lon="1.86089">
        <ele>2548</ele>
        <time>2018-08-02T10:41:24Z</time>
      </trkpt>
      <trkpt lat="42.53022" lon="1.86083">
        <ele>2549</ele>
        <time>2018-08-02T10:41:29Z</time>
      </trkpt>
      <trkpt lat="42.53021" lon="1.86085">
        <ele>2549</ele>
      </trkpt>
      <trkpt lat="42.53078" lon="1.85994">
        <ele>2549</ele>
        <time>2018-08-02T10:52:39Z</time>
      </trkpt>
      <trkpt lat="42.53105" lon="1.85976">
        <ele>2551</ele>
        <time>2018-08-02T10:53:10Z</time>
      </trkpt>
      <trkpt lat="42.53119" lon="1.85969">
        <ele>2550</ele>
        <time>2018-08-02T10:53:28Z</time>
      </trkpt>
      <trkpt lat="42.53123" lon="1.85969">
        <ele>2550</ele>
        <time>2018-08-02T10:53:33Z</time>
      </trkpt>
      <trkpt lat="42.53128" lon="1.85964">
        <ele>2550</ele>
        <time>2018-08-02T10:53:38Z</time>
      </trkpt>
      <trkpt lat="42.53132" lon="1.85962">
        <ele>2550</ele>
        <time>2018-08-02T10:53:43Z</time>
      </trkpt>
      <trkpt lat="42.53134" lon="1.85953">
        <ele>2549</ele>
        <time>2018-08-02T10:53:50Z</time>
      </trkpt>
      <trkpt lat="42.53139" lon="1.85946">
        <ele>2549</ele>
        <time>2018-08-02T10:53:57Z</time>
      </trkpt>
      <trkpt lat="42.53142" lon="1.85941">
        <ele>2549</ele>
        <time>2018-08-02T10:54:02Z</time>
      </trkpt>
      <trkpt lat="42.53148" lon="1.85938">
        <ele>2549</ele>
        <time>2018-08-02T10:54:09Z</time>
      </trkpt>
      <trkpt lat="42.53153" lon="1.85934">
        <ele>2549</ele>
        <time>2018-08-02T10:54:14Z</time>
      </trkpt>
      <trkpt lat="42.53163" lon="1.8593">
        <ele>2549</ele>
        <time>2018-08-02T10:54:28Z</time>
      </trkpt>
      <trkpt lat="42.53168" lon="1.85925">
        <ele>2524</ele>
        <time>2018-08-02T10:54:36Z</time>
      </trkpt>
      <trkpt lat="42.53179" lon="1.85919">
        <ele>2524</ele>
        <time>2018-08-02T10:54:49Z</time>
      </trkpt>
      <trkpt lat="42.53182" lon="1.85913">
        <ele>2526</ele>
        <time>2018-08-02T10:54:57Z</time>
      </trkpt>
      <trkpt lat="42.53187" lon="1.85918">
        <ele>2524</ele>
        <time>2018-08-02T10:55:39Z</time>
      </trkpt>
      <trkpt lat="42.53189" lon="1.85918">
        <ele>2524</ele>
        <time>2018-08-02T10:57:02Z</time>
      </trkpt>
      <trkpt lat="42.53187" lon="1.85908">
        <ele>2526</ele>
        <time>2018-08-02T10:57:51Z</time>
      </trkpt>
      <trkpt lat="42.53182" lon="1.859">
        <ele>2526</ele>
        <time>2018-08-02T10:58:03Z</time>
      </trkpt>
      <trkpt lat="42.53178" lon="1.85879">
        <ele>2526</ele>
        <time>2018-08-02T10:58:35Z</time>
      </trkpt>
      <trkpt lat="42.53174" lon="1.85859">
        <ele>2527</ele>
        <time>2018-08-02T10:58:47Z</time>
      </trkpt>
      <trkpt lat="42.53174" lon="1.85852">
        <ele>2527</ele>
        <time>2018-08-02T10:58:52Z</time>
      </trkpt>
      <trkpt lat="42.53174" lon="1.85846">
        <ele>2527</ele>
        <time>2018-08-02T10:58:57Z</time>
      </trkpt>
      <trkpt lat="42.53171" lon="1.8584">
        <ele>2527</ele>
        <time>2018-08-02T10:59:01Z</time>
      </trkpt>
      <trkpt lat="42.53169" lon="1.85835">
        <ele>2527</ele>
        <time>2018-08-02T10:59:05Z</time>
      </trkpt>
      <trkpt lat="42.53168" lon="1.85828">
        <ele>2527</ele>
        <time>2018-08-02T10:59:09Z</time>
      </trkpt>
      <trkpt lat="42.53171" lon="1.85814">
        <ele>2527</ele>
        <time>2018-08-02T10:59:19Z</time>
      </trkpt>
      <trkpt lat="42.5317" lon="1.858">
        <ele>2527</ele>
        <time>2018-08-02T10:59:27Z</time>
      </trkpt>
      <trkpt lat="42.53165" lon="1.85785">
        <ele>2530</ele>
        <time>2018-08-02T10:59:38Z</time>
      </trkpt>
      <trkpt lat="42.53164" lon="1.85779">
        <ele>2530</ele>
        <time>2018-08-02T10:59:42Z</time>
      </trkpt>
      <trkpt lat="42.53157" lon="1.85763">
        <ele>2530</ele>
        <time>2018-08-02T10:59:58Z</time>
      </trkpt>
      <trkpt lat="42.53157" lon="1.85756">
        <ele>2530</ele>
        <time>2018-08-02T11:00:03Z</time>
      </trkpt>
      <trkpt lat="42.53155" lon="1.8573">
        <ele>2536</ele>
        <time>2018-08-02T11:00:23Z</time>
      </trkpt>
      <trkpt lat="42.53154" lon="1.85709">
        <ele>2536</ele>
        <time>2018-08-02T11:00:38Z</time>
      </trkpt>
      <trkpt lat="42.53152" lon="1.85694">
        <ele>2537</ele>
        <time>2018-08-02T11:00:51Z</time>
      </trkpt>
      <trkpt lat="42.53153" lon="1.85674">
        <ele>2538</ele>
        <time>2018-08-02T11:01:16Z</time>
      </trkpt>
      <trkpt lat="42.53153" lon="1.85664">
        <ele>2550</ele>
        <time>2018-08-02T11:01:27Z</time>
      </trkpt>
      <trkpt lat="42.53149" lon="1.85655">
        <ele>2550</ele>
        <time>2018-08-02T11:01:41Z</time>
      </trkpt>
      <trkpt lat="42.53146" lon="1.85645">
        <ele>2550</ele>
        <time>2018-08-02T11:01:53Z</time>
      </trkpt>
      <trkpt lat="42.53146" lon="1.85637">
        <ele>2551</ele>
        <time>2018-08-02T11:02:11Z</time>
      </trkpt>
      <trkpt lat="42.53143" lon="1.85626">
        <ele>2551</ele>
        <time>2018-08-02T11:02:29Z</time>
      </trkpt>
      <trkpt lat="42.5314" lon="1.85618">
        <ele>2552</ele>
        <time>2018-08-02T11:02:38Z</time>
      </trkpt>
      <trkpt lat="42.5314" lon="1.85611">
        <ele>2552</ele>
        <time>2018-08-02T11:03:02Z</time>
      </trkpt>
      <trkpt lat="42.53139" lon="1.85604">
        <ele>2553</ele>
        <time>2018-08-02T11:03:20Z</time>
      </trkpt>
      <trkpt lat="42.53134" lon="1.85591">
        <ele>2554</ele>
        <time>2018-08-02T11:03:30Z</time>
      </trkpt>
      <trkpt lat="42.5313" lon="1.85585">
        <ele>2554</ele>
        <time>2018-08-02T11:03:37Z</time>
      </trkpt>
      <trkpt lat="42.53124" lon="1.85571">
        <ele>2559</ele>
        <time>2018-08-02T11:03:48Z</time>
      </trkpt>
      <trkpt lat="42.53109" lon="1.8554">
        <ele>2559</ele>
        <time>2018-08-02T11:04:13Z</time>
      </trkpt>
      <trkpt lat="42.53108" lon="1.85534">
        <ele>2559</ele>
        <time>2018-08-02T11:04:18Z</time>
      </trkpt>
      <trkpt lat="42.53105" lon="1.85529">
        <ele>2559</ele>
        <time>2018-08-02T11:04:22Z</time>
      </trkpt>
      <trkpt lat="42.53099" lon="1.85524">
        <ele>2559</ele>
        <time>2018-08-02T11:04:31Z</time>
      </trkpt>
      <trkpt lat="42.53086" lon="1.85493">
        <ele>2557</ele>
        <time>2018-08-02T11:05:04Z</time>
      </trkpt>
      <trkpt lat="42.5308" lon="1.85482">
        <ele>2547</ele>
        <time>2018-08-02T11:05:14Z</time>
      </trkpt>
      <trkpt lat="42.53071" lon="1.8547">
        <ele>2548</ele>
        <time>2018-08-02T11:05:38Z</time>
      </trkpt>
      <trkpt lat="42.53057" lon="1.85473">
        <ele>2547</ele>
        <time>2018-08-02T11:10:14Z</time>
      </trkpt>
      <trkpt lat="42.5306" lon="1.85472">
        <ele>2547</ele>
        <time>2018-08-02T11:36:51Z</time>
      </trkpt>
      <trkpt lat="42.53065" lon="1.85475">
        <ele>2547</ele>
        <time>2018-08-02T11:37:45Z</time>
      </trkpt>
      <trkpt lat="42.5307" lon="1.85481">
        <ele>2547</ele>
        <time>2018-08-02T11:37:59Z</time>
      </trkpt>
      <trkpt lat="42.53083" lon="1.85482">
        <ele>2557</ele>
        <time>2018-08-02T11:38:18Z</time>
      </trkpt>
      <trkpt lat="42.53087" lon="1.85487">
        <ele>2557</ele>
        <time>2018-08-02T11:38:21Z</time>
      </trkpt>
      <trkpt lat="42.53089" lon="1.85492">
        <ele>2557</ele>
        <time>2018-08-02T11:38:26Z</time>
      </trkpt>
      <trkpt lat="42.53092" lon="1.85503">
        <ele>2559</ele>
        <time>2018-08-02T11:38:35Z</time>
      </trkpt>
      <trkpt lat="42.53096" lon="1.8551">
        <ele>2559</ele>
        <time>2018-08-02T11:38:42Z</time>
      </trkpt>
      <trkpt lat="42.53099" lon="1.85517">
        <ele>2559</ele>
        <time>2018-08-02T11:38:47Z</time>
      </trkpt>
      <trkpt lat="42.53109" lon="1.85534">
        <ele>2559</ele>
        <time>2018-08-02T11:39:08Z</time>
      </trkpt>
      <trkpt lat="42.53117" lon="1.85542">
        <ele>2559</ele>
        <time>2018-08-02T11:39:18Z</time>
      </trkpt>
      <trkpt lat="42.5313" lon="1.85555">
        <ele>2559</ele>
        <time>2018-08-02T11:39:35Z</time>
      </trkpt>
      <trkpt lat="42.53138" lon="1.85568">
        <ele>2559</ele>
        <time>2018-08-02T11:39:49Z</time>
      </trkpt>
      <trkpt lat="42.53146" lon="1.85593">
        <ele>2553</ele>
        <time>2018-08-02T11:40:14Z</time>
      </trkpt>
      <trkpt lat="42.53144" lon="1.85603">
        <ele>2553</ele>
        <time>2018-08-02T11:40:26Z</time>
      </trkpt>
      <trkpt lat="42.53144" lon="1.85609">
        <ele>2552</ele>
        <time>2018-08-02T11:40:32Z</time>
      </trkpt>
      <trkpt lat="42.53146" lon="1.85618">
        <ele>2552</ele>
        <time>2018-08-02T11:40:44Z</time>
      </trkpt>
      <trkpt lat="42.53144" lon="1.85625">
        <ele>2551</ele>
        <time>2018-08-02T11:41:02Z</time>
      </trkpt>
      <trkpt lat="42.53145" lon="1.85636">
        <ele>2551</ele>
        <time>2018-08-02T11:41:14Z</time>
      </trkpt>
      <trkpt lat="42.53144" lon="1.85657">
        <ele>2550</ele>
        <time>2018-08-02T11:41:40Z</time>
      </trkpt>
      <trkpt lat="42.53145" lon="1.85667">
        <ele>2538</ele>
        <time>2018-08-02T11:41:57Z</time>
      </trkpt>
      <trkpt lat="42.53144" lon="1.85676">
        <ele>2538</ele>
        <time>2018-08-02T11:42:05Z</time>
      </trkpt>
      <trkpt lat="42.5315" lon="1.8568">
        <ele>2538</ele>
        <time>2018-08-02T11:42:19Z</time>
      </trkpt>
      <trkpt lat="42.53155" lon="1.85689">
        <ele>2537</ele>
        <time>2018-08-02T11:42:31Z</time>
      </trkpt>
      <trkpt lat="42.53155" lon="1.85695">
        <ele>2537</ele>
        <time>2018-08-02T11:42:36Z</time>
      </trkpt>
      <trkpt lat="42.53154" lon="1.85704">
        <ele>2537</ele>
        <time>2018-08-02T11:42:44Z</time>
      </trkpt>
      <trkpt lat="42.53154" lon="1.85711">
        <ele>2536</ele>
        <time>2018-08-02T11:42:49Z</time>
      </trkpt>
      <trkpt lat="42.53155" lon="1.85718">
        <ele>2536</ele>
        <time>2018-08-02T11:42:53Z</time>
      </trkpt>
      <trkpt lat="42.53158" lon="1.85725">
        <ele>2536</ele>
        <time>2018-08-02T11:43:01Z</time>
      </trkpt>
      <trkpt lat="42.53157" lon="1.85732">
        <ele>2536</ele>
        <time>2018-08-02T11:43:05Z</time>
      </trkpt>
      <trkpt lat="42.53158" lon="1.85745">
        <ele>2535</ele>
        <time>2018-08-02T11:43:13Z</time>
      </trkpt>
      <trkpt lat="42.5316" lon="1.85753">
        <ele>2530</ele>
        <time>2018-08-02T11:43:19Z</time>
      </trkpt>
      <trkpt lat="42.5316" lon="1.8576">
        <ele>2530</ele>
        <time>2018-08-02T11:43:23Z</time>
      </trkpt>
      <trkpt lat="42.53162" lon="1.85766">
        <ele>2530</ele>
        <time>2018-08-02T11:43:28Z</time>
      </trkpt>
      <trkpt lat="42.53163" lon="1.85776">
        <ele>2530</ele>
        <time>2018-08-02T11:43:36Z</time>
      </trkpt>
      <trkpt lat="42.53166" lon="1.85781">
        <ele>2530</ele>
        <time>2018-08-02T11:43:40Z</time>
      </trkpt>
      <trkpt lat="42.5317" lon="1.85795">
        <ele>2527</ele>
        <time>2018-08-02T11:43:48Z</time>
      </trkpt>
      <trkpt lat="42.5317" lon="1.85804">
        <ele>2527</ele>
        <time>2018-08-02T11:43:55Z</time>
      </trkpt>
      <trkpt lat="42.53174" lon="1.85811">
        <ele>2527</ele>
        <time>2018-08-02T11:44:05Z</time>
      </trkpt>
      <trkpt lat="42.53174" lon="1.85818">
        <ele>2527</ele>
        <time>2018-08-02T11:44:11Z</time>
      </trkpt>
      <trkpt lat="42.53173" lon="1.85838">
        <ele>2527</ele>
        <time>2018-08-02T11:44:25Z</time>
      </trkpt>
      <trkpt lat="42.53175" lon="1.8585">
        <ele>2527</ele>
        <time>2018-08-02T11:44:34Z</time>
      </trkpt>
      <trkpt lat="42.5318" lon="1.85864">
        <ele>2527</ele>
        <time>2018-08-02T11:44:46Z</time>
      </trkpt>
      <trkpt lat="42.53181" lon="1.85872">
        <ele>2527</ele>
        <time>2018-08-02T11:44:53Z</time>
      </trkpt>
      <trkpt lat="42.5318" lon="1.85881">
        <ele>2526</ele>
        <time>2018-08-02T11:45:03Z</time>
      </trkpt>
      <trkpt lat="42.53178" lon="1.8589">
        <ele>2526</ele>
        <time>2018-08-02T11:45:13Z</time>
      </trkpt>
      <trkpt lat="42.53184" lon="1.85894">
        <ele>2526</ele>
        <time>2018-08-02T11:45:21Z</time>
      </trkpt>
      <trkpt lat="42.53189" lon="1.85896">
        <ele>2526</ele>
        <time>2018-08-02T11:45:29Z</time>
      </trkpt>
      <trkpt lat="42.53187" lon="1.85906">
        <ele>2526</ele>
        <time>2018-08-02T11:45:52Z</time>
      </trkpt>
      <trkpt lat="42.53185" lon="1.85928">
        <ele>2524</ele>
        <time>2018-08-02T11:46:09Z</time>
      </trkpt>
      <trkpt lat="42.53181" lon="1.85933">
        <ele>2524</ele>
        <time>2018-08-02T11:46:16Z</time>
      </trkpt>
      <trkpt lat="42.53178" lon="1.85941">
        <ele>2524</ele>
        <time>2018-08-02T11:46:23Z</time>
      </trkpt>
      <trkpt lat="42.53174" lon="1.8595">
        <ele>2524</ele>
        <time>2018-08-02T11:46:49Z</time>
      </trkpt>
      <trkpt lat="42.53174" lon="1.85956">
        <ele>2524</ele>
        <time>2018-08-02T11:46:54Z</time>
      </trkpt>
      <trkpt lat="42.53172" lon="1.85962">
        <ele>2524</ele>
        <time>2018-08-02T11:46:59Z</time>
      </trkpt>
      <trkpt lat="42.53171" lon="1.85979">
        <ele>2524</ele>
        <time>2018-08-02T11:47:12Z</time>
      </trkpt>
      <trkpt lat="42.53169" lon="1.85985">
        <ele>2524</ele>
        <time>2018-08-02T11:47:16Z</time>
      </trkpt>
      <trkpt lat="42.5317" lon="1.85994">
        <ele>2524</ele>
        <time>2018-08-02T11:47:23Z</time>
      </trkpt>
      <trkpt lat="42.53172" lon="1.86009">
        <ele>2537</ele>
        <time>2018-08-02T11:47:34Z</time>
      </trkpt>
      <trkpt lat="42.53168" lon="1.86032">
        <ele>2540</ele>
        <time>2018-08-02T11:47:52Z</time>
      </trkpt>
      <trkpt lat="42.53169" lon="1.86045">
        <ele>2542</ele>
        <time>2018-08-02T11:48:00Z</time>
      </trkpt>
      <trkpt lat="42.53168" lon="1.86051">
        <ele>2544</ele>
        <time>2018-08-02T11:48:04Z</time>
      </trkpt>
      <trkpt lat="42.53169" lon="1.86082">
        <ele>2555</ele>
        <time>2018-08-02T11:48:28Z</time>
      </trkpt>
      <trkpt lat="42.5317" lon="1.8609">
        <ele>2553</ele>
        <time>2018-08-02T11:48:32Z</time>
      </trkpt>
      <trkpt lat="42.53172" lon="1.86096">
        <ele>2552</ele>
        <time>2018-08-02T11:48:37Z</time>
      </trkpt>
      <trkpt lat="42.53173" lon="1.86102">
        <ele>2551</ele>
        <time>2018-08-02T11:48:42Z</time>
      </trkpt>
      <trkpt lat="42.53171" lon="1.86109">
        <ele>2550</ele>
        <time>2018-08-02T11:48:47Z</time>
      </trkpt>
      <trkpt lat="42.53176" lon="1.86112">
        <ele>2550</ele>
        <time>2018-08-02T11:49:01Z</time>
      </trkpt>
      <trkpt lat="42.53173" lon="1.86132">
        <ele>2550</ele>
        <time>2018-08-02T11:49:14Z</time>
      </trkpt>
      <trkpt lat="42.53172" lon="1.86162">
        <ele>2554</ele>
        <time>2018-08-02T11:49:34Z</time>
      </trkpt>
      <trkpt lat="42.53172" lon="1.86169">
        <ele>2555</ele>
        <time>2018-08-02T11:49:37Z</time>
      </trkpt>
      <trkpt lat="42.53166" lon="1.86182">
        <ele>2555</ele>
        <time>2018-08-02T11:49:45Z</time>
      </trkpt>
      <trkpt lat="42.53165" lon="1.8619">
        <ele>2555</ele>
        <time>2018-08-02T11:49:50Z</time>
      </trkpt>
      <trkpt lat="42.53163" lon="1.86196">
        <ele>2555</ele>
        <time>2018-08-02T11:49:55Z</time>
      </trkpt>
      <trkpt lat="42.53163" lon="1.86203">
        <ele>2555</ele>
        <time>2018-08-02T11:50:00Z</time>
      </trkpt>
      <trkpt lat="42.53162" lon="1.86218">
        <ele>2555</ele>
        <time>2018-08-02T11:50:12Z</time>
      </trkpt>
      <trkpt lat="42.53157" lon="1.86233">
        <ele>2555</ele>
        <time>2018-08-02T11:50:25Z</time>
      </trkpt>
      <trkpt lat="42.53155" lon="1.8624">
        <ele>2555</ele>
        <time>2018-08-02T11:50:29Z</time>
      </trkpt>
      <trkpt lat="42.5315" lon="1.86285">
        <ele>2553</ele>
        <time>2018-08-02T11:51:06Z</time>
      </trkpt>
      <trkpt lat="42.53147" lon="1.86291">
        <ele>2553</ele>
        <time>2018-08-02T11:51:10Z</time>
      </trkpt>
      <trkpt lat="42.53142" lon="1.86309">
        <ele>2553</ele>
        <time>2018-08-02T11:51:26Z</time>
      </trkpt>
      <trkpt lat="42.53135" lon="1.86344">
        <ele>2551</ele>
        <time>2018-08-02T11:51:53Z</time>
      </trkpt>
      <trkpt lat="42.53133" lon="1.8635">
        <ele>2550</ele>
        <time>2018-08-02T11:51:57Z</time>
      </trkpt>
      <trkpt lat="42.5313" lon="1.86359">
        <ele>2550</ele>
        <time>2018-08-02T11:52:18Z</time>
      </trkpt>
      <trkpt lat="42.53126" lon="1.86375">
        <ele>2550</ele>
        <time>2018-08-02T11:52:33Z</time>
      </trkpt>
      <trkpt lat="42.53121" lon="1.86388">
        <ele>2549</ele>
        <time>2018-08-02T11:52:41Z</time>
      </trkpt>
      <trkpt lat="42.53113" lon="1.864">
        <ele>2549</ele>
        <time>2018-08-02T11:52:53Z</time>
      </trkpt>
      <trkpt lat="42.53108" lon="1.86412">
        <ele>2548</ele>
        <time>2018-08-02T11:53:02Z</time>
      </trkpt>
      <trkpt lat="42.53106" lon="1.86423">
        <ele>2547</ele>
        <time>2018-08-02T11:53:12Z</time>
      </trkpt>
      <trkpt lat="42.53092" lon="1.86431">
        <ele>2546</ele>
        <time>2018-08-02T11:53:26Z</time>
      </trkpt>
      <trkpt lat="42.53085" lon="1.86428">
        <ele>2545</ele>
        <time>2018-08-02T11:53:35Z</time>
      </trkpt>
      <trkpt lat="42.5308" lon="1.86428">
        <ele>2543</ele>
        <time>2018-08-02T11:53:40Z</time>
      </trkpt>
      <trkpt lat="42.53059" lon="1.86429">
        <ele>2541</ele>
        <time>2018-08-02T11:53:58Z</time>
      </trkpt>
      <trkpt lat="42.53044" lon="1.86436">
        <ele>2540</ele>
        <time>2018-08-02T11:54:16Z</time>
      </trkpt>
      <trkpt lat="42.53032" lon="1.86434">
        <ele>2539</ele>
        <time>2018-08-02T11:54:29Z</time>
      </trkpt>
      <trkpt lat="42.53028" lon="1.86435">
        <ele>2539</ele>
        <time>2018-08-02T11:54:34Z</time>
      </trkpt>
      <trkpt lat="42.53018" lon="1.86445">
        <ele>2539</ele>
        <time>2018-08-02T11:54:54Z</time>
      </trkpt>
      <trkpt lat="42.53013" lon="1.86446">
        <ele>2538</ele>
        <time>2018-08-02T11:54:59Z</time>
      </trkpt>
      <trkpt lat="42.5301" lon="1.8645">
        <ele>2538</ele>
        <time>2018-08-02T11:55:04Z</time>
      </trkpt>
      <trkpt lat="42.53" lon="1.86457">
        <ele>2531</ele>
        <time>2018-08-02T11:55:16Z</time>
      </trkpt>
      <trkpt lat="42.52995" lon="1.86461">
        <ele>2530</ele>
        <time>2018-08-02T11:55:24Z</time>
      </trkpt>
      <trkpt lat="42.52988" lon="1.86476">
        <ele>2530</ele>
        <time>2018-08-02T11:55:44Z</time>
      </trkpt>
      <trkpt lat="42.52985" lon="1.8648">
        <ele>2529</ele>
        <time>2018-08-02T11:55:48Z</time>
      </trkpt>
      <trkpt lat="42.52978" lon="1.86492">
        <ele>2529</ele>
        <time>2018-08-02T11:55:58Z</time>
      </trkpt>
      <trkpt lat="42.52974" lon="1.86502">
        <ele>2524</ele>
        <time>2018-08-02T11:56:08Z</time>
      </trkpt>
      <trkpt lat="42.52972" lon="1.86508">
        <ele>2524</ele>
        <time>2018-08-02T11:56:13Z</time>
      </trkpt>
      <trkpt lat="42.52968" lon="1.86513">
        <ele>2523</ele>
        <time>2018-08-02T11:56:21Z</time>
      </trkpt>
      <trkpt lat="42.52963" lon="1.86519">
        <ele>2522</ele>
        <time>2018-08-02T11:56:31Z</time>
      </trkpt>
      <trkpt lat="42.52955" lon="1.86525">
        <ele>2521</ele>
        <time>2018-08-02T11:56:42Z</time>
      </trkpt>
      <trkpt lat="42.52951" lon="1.86535">
        <ele>2521</ele>
        <time>2018-08-02T11:57:02Z</time>
      </trkpt>
      <trkpt lat="42.52944" lon="1.86552">
        <ele>2519</ele>
        <time>2018-08-02T11:57:18Z</time>
      </trkpt>
      <trkpt lat="42.52939" lon="1.86556">
        <ele>2518</ele>
        <time>2018-08-02T11:57:23Z</time>
      </trkpt>
      <trkpt lat="42.52934" lon="1.86566">
        <ele>2517</ele>
        <time>2018-08-02T11:57:38Z</time>
      </trkpt>
      <trkpt lat="42.5293" lon="1.8657">
        <ele>2515</ele>
        <time>2018-08-02T11:57:42Z</time>
      </trkpt>
      <trkpt lat="42.52918" lon="1.86595">
        <ele>2511</ele>
        <time>2018-08-02T11:58:13Z</time>
      </trkpt>
      <trkpt lat="42.52914" lon="1.86607">
        <ele>2504</ele>
        <time>2018-08-02T11:58:31Z</time>
      </trkpt>
      <trkpt lat="42.52899" lon="1.86634">
        <ele>2501</ele>
        <time>2018-08-02T11:58:59Z</time>
      </trkpt>
      <trkpt lat="42.52897" lon="1.8664">
        <ele>2501</ele>
        <time>2018-08-02T11:59:04Z</time>
      </trkpt>
      <trkpt lat="42.5289" lon="1.86648">
        <ele>2500</ele>
        <time>2018-08-02T11:59:12Z</time>
      </trkpt>
      <trkpt lat="42.52886" lon="1.86653">
        <ele>2500</ele>
        <time>2018-08-02T11:59:32Z</time>
      </trkpt>
      <trkpt lat="42.52881" lon="1.86656">
        <ele>2500</ele>
        <time>2018-08-02T11:59:45Z</time>
      </trkpt>
      <trkpt lat="42.52877" lon="1.86663">
        <ele>2499</ele>
        <time>2018-08-02T11:59:56Z</time>
      </trkpt>
      <trkpt lat="42.52876" lon="1.86669">
        <ele>2497</ele>
        <time>2018-08-02T12:00:01Z</time>
      </trkpt>
      <trkpt lat="42.52872" lon="1.86675">
        <ele>2496</ele>
        <time>2018-08-02T12:00:07Z</time>
      </trkpt>
      <trkpt lat="42.5287" lon="1.86686">
        <ele>2496</ele>
        <time>2018-08-02T12:00:17Z</time>
      </trkpt>
      <trkpt lat="42.52866" lon="1.86694">
        <ele>2495</ele>
        <time>2018-08-02T12:00:38Z</time>
      </trkpt>
      <trkpt lat="42.52862" lon="1.86699">
        <ele>2495</ele>
        <time>2018-08-02T12:00:43Z</time>
      </trkpt>
      <trkpt lat="42.52859" lon="1.86704">
        <ele>2495</ele>
        <time>2018-08-02T12:00:48Z</time>
      </trkpt>
      <trkpt lat="42.52844" lon="1.86711">
        <ele>2493</ele>
        <time>2018-08-02T12:01:06Z</time>
      </trkpt>
      <trkpt lat="42.52839" lon="1.86716">
        <ele>2493</ele>
        <time>2018-08-02T12:01:14Z</time>
      </trkpt>
      <trkpt lat="42.52834" lon="1.86718">
        <ele>2493</ele>
        <time>2018-08-02T12:01:19Z</time>
      </trkpt>
      <trkpt lat="42.52829" lon="1.8672">
        <ele>2483</ele>
        <time>2018-08-02T12:01:27Z</time>
      </trkpt>
      <trkpt lat="42.52824" lon="1.8672">
        <ele>2483</ele>
        <time>2018-08-02T12:01:33Z</time>
      </trkpt>
      <trkpt lat="42.52811" lon="1.86726">
        <ele>2482</ele>
        <time>2018-08-02T12:01:50Z</time>
      </trkpt>
      <trkpt lat="42.52806" lon="1.86725">
        <ele>2481</ele>
        <time>2018-08-02T12:01:54Z</time>
      </trkpt>
      <trkpt lat="42.52801" lon="1.86725">
        <ele>2481</ele>
        <time>2018-08-02T12:01:59Z</time>
      </trkpt>
      <trkpt lat="42.52796" lon="1.86724">
        <ele>2480</ele>
        <time>2018-08-02T12:02:04Z</time>
      </trkpt>
      <trkpt lat="42.52792" lon="1.86727">
        <ele>2480</ele>
        <time>2018-08-02T12:02:12Z</time>
      </trkpt>
      <trkpt lat="42.52785" lon="1.86727">
        <ele>2479</ele>
        <time>2018-08-02T12:02:20Z</time>
      </trkpt>
      <trkpt lat="42.52776" lon="1.86725">
        <ele>2478</ele>
        <time>2018-08-02T12:02:30Z</time>
      </trkpt>
      <trkpt lat="42.52765" lon="1.86727">
        <ele>2477</ele>
        <time>2018-08-02T12:02:42Z</time>
      </trkpt>
      <trkpt lat="42.52737" lon="1.86727">
        <ele>2467</ele>
        <time>2018-08-02T12:03:13Z</time>
      </trkpt>
      <trkpt lat="42.52723" lon="1.86733">
        <ele>2466</ele>
        <time>2018-08-02T12:03:31Z</time>
      </trkpt>
      <trkpt lat="42.52718" lon="1.86733">
        <ele>2465</ele>
        <time>2018-08-02T12:03:37Z</time>
      </trkpt>
      <trkpt lat="42.52708" lon="1.86737">
        <ele>2464</ele>
        <time>2018-08-02T12:03:57Z</time>
      </trkpt>
      <trkpt lat="42.52699" lon="1.86738">
        <ele>2463</ele>
        <time>2018-08-02T12:04:10Z</time>
      </trkpt>
      <trkpt lat="42.52694" lon="1.86736">
        <ele>2462</ele>
        <time>2018-08-02T12:04:15Z</time>
      </trkpt>
      <trkpt lat="42.52689" lon="1.86738">
        <ele>2461</ele>
        <time>2018-08-02T12:04:20Z</time>
      </trkpt>
      <trkpt lat="42.52686" lon="1.86743">
        <ele>2460</ele>
        <time>2018-08-02T12:04:25Z</time>
      </trkpt>
      <trkpt lat="42.52659" lon="1.86756">
        <ele>2452</ele>
        <time>2018-08-02T12:04:55Z</time>
      </trkpt>
      <trkpt lat="42.52649" lon="1.86768">
        <ele>2449</ele>
        <time>2018-08-02T12:05:13Z</time>
      </trkpt>
      <trkpt lat="42.52626" lon="1.86781">
        <ele>2445</ele>
        <time>2018-08-02T12:05:48Z</time>
      </trkpt>
      <trkpt lat="42.52622" lon="1.86784">
        <ele>2445</ele>
        <time>2018-08-02T12:05:54Z</time>
      </trkpt>
      <trkpt lat="42.52601" lon="1.86808">
        <ele>2442</ele>
        <time>2018-08-02T12:06:25Z</time>
      </trkpt>
      <trkpt lat="42.52596" lon="1.86811">
        <ele>2441</ele>
        <time>2018-08-02T12:06:30Z</time>
      </trkpt>
      <trkpt lat="42.52592" lon="1.86818">
        <ele>2440</ele>
        <time>2018-08-02T12:06:37Z</time>
      </trkpt>
      <trkpt lat="42.52567" lon="1.86845">
        <ele>2429</ele>
        <time>2018-08-02T12:07:13Z</time>
      </trkpt>
      <trkpt lat="42.52563" lon="1.86849">
        <ele>2428</ele>
        <time>2018-08-02T12:07:18Z</time>
      </trkpt>
      <trkpt lat="42.52545" lon="1.86859">
        <ele>2425</ele>
        <time>2018-08-02T12:07:37Z</time>
      </trkpt>
      <trkpt lat="42.5253" lon="1.86879">
        <ele>2423</ele>
        <time>2018-08-02T12:08:03Z</time>
      </trkpt>
      <trkpt lat="42.52521" lon="1.86884">
        <ele>2422</ele>
        <time>2018-08-02T12:08:12Z</time>
      </trkpt>
      <trkpt lat="42.52516" lon="1.86885">
        <ele>2422</ele>
        <time>2018-08-02T12:08:17Z</time>
      </trkpt>
      <trkpt lat="42.52513" lon="1.86889">
        <ele>2421</ele>
        <time>2018-08-02T12:08:25Z</time>
      </trkpt>
      <trkpt lat="42.52506" lon="1.86889">
        <ele>2421</ele>
        <time>2018-08-02T12:08:36Z</time>
      </trkpt>
      <trkpt lat="42.52501" lon="1.8689">
        <ele>2420</ele>
        <time>2018-08-02T12:08:42Z</time>
      </trkpt>
      <trkpt lat="42.52487" lon="1.86899">
        <ele>2409</ele>
        <time>2018-08-02T12:09:00Z</time>
      </trkpt>
      <trkpt lat="42.52471" lon="1.86905">
        <ele>2407</ele>
        <time>2018-08-02T12:09:22Z</time>
      </trkpt>
      <trkpt lat="42.52467" lon="1.86909">
        <ele>2406</ele>
        <time>2018-08-02T12:09:27Z</time>
      </trkpt>
      <trkpt lat="42.52461" lon="1.86908">
        <ele>2405</ele>
        <time>2018-08-02T12:09:36Z</time>
      </trkpt>
      <trkpt lat="42.52454" lon="1.86914">
        <ele>2403</ele>
        <time>2018-08-02T12:09:48Z</time>
      </trkpt>
      <trkpt lat="42.52449" lon="1.86913">
        <ele>2402</ele>
        <time>2018-08-02T12:09:53Z</time>
      </trkpt>
      <trkpt lat="42.5244" lon="1.86908">
        <ele>2401</ele>
        <time>2018-08-02T12:10:18Z</time>
      </trkpt>
      <trkpt lat="42.52436" lon="1.86904">
        <ele>2400</ele>
        <time>2018-08-02T12:10:23Z</time>
      </trkpt>
      <trkpt lat="42.52431" lon="1.86907">
        <ele>2399</ele>
        <time>2018-08-02T12:10:30Z</time>
      </trkpt>
      <trkpt lat="42.52413" lon="1.86915">
        <ele>2392</ele>
        <time>2018-08-02T12:10:49Z</time>
      </trkpt>
      <trkpt lat="42.52409" lon="1.86911">
        <ele>2391</ele>
        <time>2018-08-02T12:10:57Z</time>
      </trkpt>
      <trkpt lat="42.52406" lon="1.86906">
        <ele>2390</ele>
        <time>2018-08-02T12:11:02Z</time>
      </trkpt>
      <trkpt lat="42.52393" lon="1.86899">
        <ele>2388</ele>
        <time>2018-08-02T12:11:21Z</time>
      </trkpt>
      <trkpt lat="42.52386" lon="1.86906">
        <ele>2387</ele>
        <time>2018-08-02T12:11:31Z</time>
      </trkpt>
      <trkpt lat="42.52381" lon="1.86909">
        <ele>2386</ele>
        <time>2018-08-02T12:11:36Z</time>
      </trkpt>
      <trkpt lat="42.52378" lon="1.86914">
        <ele>2386</ele>
        <time>2018-08-02T12:11:41Z</time>
      </trkpt>
      <trkpt lat="42.52375" lon="1.8692">
        <ele>2383</ele>
        <time>2018-08-02T12:11:45Z</time>
      </trkpt>
      <trkpt lat="42.52371" lon="1.86924">
        <ele>2383</ele>
        <time>2018-08-02T12:11:50Z</time>
      </trkpt>
      <trkpt lat="42.52362" lon="1.86926">
        <ele>2382</ele>
        <time>2018-08-02T12:11:58Z</time>
      </trkpt>
      <trkpt lat="42.52358" lon="1.86923">
        <ele>2381</ele>
        <time>2018-08-02T12:12:02Z</time>
      </trkpt>
      <trkpt lat="42.5235" lon="1.86925">
        <ele>2380</ele>
        <time>2018-08-02T12:12:12Z</time>
      </trkpt>
      <trkpt lat="42.52336" lon="1.86923">
        <ele>2378</ele>
        <time>2018-08-02T12:12:28Z</time>
      </trkpt>
      <trkpt lat="42.52314" lon="1.86921">
        <ele>2372</ele>
        <time>2018-08-02T12:12:50Z</time>
      </trkpt>
      <trkpt lat="42.52307" lon="1.86913">
        <ele>2372</ele>
        <time>2018-08-02T12:13:00Z</time>
      </trkpt>
      <trkpt lat="42.52301" lon="1.86912">
        <ele>2371</ele>
        <time>2018-08-02T12:13:04Z</time>
      </trkpt>
      <trkpt lat="42.5229" lon="1.86913">
        <ele>2370</ele>
        <time>2018-08-02T12:13:13Z</time>
      </trkpt>
      <trkpt lat="42.52281" lon="1.86908">
        <ele>2369</ele>
        <time>2018-08-02T12:13:21Z</time>
      </trkpt>
      <trkpt lat="42.52274" lon="1.86909">
        <ele>2368</ele>
        <time>2018-08-02T12:13:31Z</time>
      </trkpt>
      <trkpt lat="42.52269" lon="1.86911">
        <ele>2367</ele>
        <time>2018-08-02T12:13:37Z</time>
      </trkpt>
      <trkpt lat="42.52258" lon="1.86922">
        <ele>2365</ele>
        <time>2018-08-02T12:13:53Z</time>
      </trkpt>
      <trkpt lat="42.52255" lon="1.86927">
        <ele>2365</ele>
        <time>2018-08-02T12:13:58Z</time>
      </trkpt>
      <trkpt lat="42.52251" lon="1.86932">
        <ele>2365</ele>
        <time>2018-08-02T12:14:05Z</time>
      </trkpt>
      <trkpt lat="42.52242" lon="1.86939">
        <ele>2358</ele>
        <time>2018-08-02T12:14:19Z</time>
      </trkpt>
      <trkpt lat="42.52234" lon="1.86954">
        <ele>2357</ele>
        <time>2018-08-02T12:14:35Z</time>
      </trkpt>
      <trkpt lat="42.5223" lon="1.86958">
        <ele>2356</ele>
        <time>2018-08-02T12:14:40Z</time>
      </trkpt>
      <trkpt lat="42.52227" lon="1.86964">
        <ele>2356</ele>
        <time>2018-08-02T12:14:45Z</time>
      </trkpt>
      <trkpt lat="42.52223" lon="1.86968">
        <ele>2356</ele>
        <time>2018-08-02T12:14:50Z</time>
      </trkpt>
      <trkpt lat="42.52218" lon="1.86983">
        <ele>2355</ele>
        <time>2018-08-02T12:15:03Z</time>
      </trkpt>
      <trkpt lat="42.52203" lon="1.87">
        <ele>2353</ele>
        <time>2018-08-02T12:15:21Z</time>
      </trkpt>
      <trkpt lat="42.52201" lon="1.87006">
        <ele>2351</ele>
        <time>2018-08-02T12:15:29Z</time>
      </trkpt>
      <trkpt lat="42.52195" lon="1.87014">
        <ele>2350</ele>
        <time>2018-08-02T12:15:39Z</time>
      </trkpt>
      <trkpt lat="42.52192" lon="1.87021">
        <ele>2350</ele>
        <time>2018-08-02T12:15:44Z</time>
      </trkpt>
      <trkpt lat="42.52186" lon="1.87045">
        <ele>2349</ele>
        <time>2018-08-02T12:16:06Z</time>
      </trkpt>
      <trkpt lat="42.52186" lon="1.87051">
        <ele>2349</ele>
        <time>2018-08-02T12:16:11Z</time>
      </trkpt>
      <trkpt lat="42.52178" lon="1.87065">
        <ele>2348</ele>
        <time>2018-08-02T12:16:25Z</time>
      </trkpt>
      <trkpt lat="42.52172" lon="1.87084">
        <ele>2344</ele>
        <time>2018-08-02T12:16:40Z</time>
      </trkpt>
      <trkpt lat="42.52168" lon="1.87088">
        <ele>2344</ele>
        <time>2018-08-02T12:16:44Z</time>
      </trkpt>
      <trkpt lat="42.52166" lon="1.87094">
        <ele>2340</ele>
        <time>2018-08-02T12:16:49Z</time>
      </trkpt>
      <trkpt lat="42.52166" lon="1.87101">
        <ele>2338</ele>
        <time>2018-08-02T12:16:54Z</time>
      </trkpt>
      <trkpt lat="42.52165" lon="1.87108">
        <ele>2337</ele>
        <time>2018-08-02T12:16:59Z</time>
      </trkpt>
      <trkpt lat="42.52167" lon="1.87115">
        <ele>2345</ele>
        <time>2018-08-02T12:17:03Z</time>
      </trkpt>
      <trkpt lat="42.52166" lon="1.87121">
        <ele>2336</ele>
        <time>2018-08-02T12:17:10Z</time>
      </trkpt>
      <trkpt lat="42.52166" lon="1.87141">
        <ele>2336</ele>
        <time>2018-08-02T12:17:25Z</time>
      </trkpt>
      <trkpt lat="42.52163" lon="1.87154">
        <ele>2337</ele>
        <time>2018-08-02T12:17:35Z</time>
      </trkpt>
      <trkpt lat="42.52164" lon="1.87161">
        <ele>2338</ele>
        <time>2018-08-02T12:17:42Z</time>
      </trkpt>
      <trkpt lat="42.52159" lon="1.87172">
        <ele>2335</ele>
        <time>2018-08-02T12:17:54Z</time>
      </trkpt>
      <trkpt lat="42.52159" lon="1.87179">
        <ele>2334</ele>
        <time>2018-08-02T12:17:59Z</time>
      </trkpt>
      <trkpt lat="42.52159" lon="1.87193">
        <ele>2331</ele>
        <time>2018-08-02T12:18:07Z</time>
      </trkpt>
      <trkpt lat="42.52157" lon="1.872">
        <ele>2330</ele>
        <time>2018-08-02T12:18:11Z</time>
      </trkpt>
      <trkpt lat="42.52155" lon="1.87206">
        <ele>2330</ele>
        <time>2018-08-02T12:18:15Z</time>
      </trkpt>
      <trkpt lat="42.52155" lon="1.87212">
        <ele>2329</ele>
        <time>2018-08-02T12:18:20Z</time>
      </trkpt>
      <trkpt lat="42.52156" lon="1.87224">
        <ele>2329</ele>
        <time>2018-08-02T12:18:29Z</time>
      </trkpt>
      <trkpt lat="42.52158" lon="1.87233">
        <ele>2330</ele>
        <time>2018-08-02T12:18:37Z</time>
      </trkpt>
      <trkpt lat="42.52167" lon="1.87239">
        <ele>2336</ele>
        <time>2018-08-02T12:18:46Z</time>
      </trkpt>
      <trkpt lat="42.52168" lon="1.8725">
        <ele>2333</ele>
        <time>2018-08-02T12:18:55Z</time>
      </trkpt>
      <trkpt lat="42.52165" lon="1.87258">
        <ele>2329</ele>
        <time>2018-08-02T12:19:05Z</time>
      </trkpt>
      <trkpt lat="42.52163" lon="1.87264">
        <ele>2328</ele>
        <time>2018-08-02T12:19:15Z</time>
      </trkpt>
      <trkpt lat="42.52163" lon="1.87271">
        <ele>2327</ele>
        <time>2018-08-02T12:19:21Z</time>
      </trkpt>
      <trkpt lat="42.52163" lon="1.87282">
        <ele>2326</ele>
        <time>2018-08-02T12:19:31Z</time>
      </trkpt>
      <trkpt lat="42.52162" lon="1.87293">
        <ele>2325</ele>
        <time>2018-08-02T12:19:41Z</time>
      </trkpt>
      <trkpt lat="42.52163" lon="1.873">
        <ele>2325</ele>
        <time>2018-08-02T12:19:46Z</time>
      </trkpt>
      <trkpt lat="42.52161" lon="1.87313">
        <ele>2326</ele>
        <time>2018-08-02T12:19:56Z</time>
      </trkpt>
      <trkpt lat="42.52161" lon="1.87321">
        <ele>2327</ele>
        <time>2018-08-02T12:20:05Z</time>
      </trkpt>
      <trkpt lat="42.52155" lon="1.87329">
        <ele>2327</ele>
        <time>2018-08-02T12:20:16Z</time>
      </trkpt>
      <trkpt lat="42.52155" lon="1.87337">
        <ele>2326</ele>
        <time>2018-08-02T12:20:26Z</time>
      </trkpt>
      <trkpt lat="42.52152" lon="1.87348">
        <ele>2325</ele>
        <time>2018-08-02T12:20:37Z</time>
      </trkpt>
      <trkpt lat="42.52151" lon="1.8736">
        <ele>2324</ele>
        <time>2018-08-02T12:20:45Z</time>
      </trkpt>
      <trkpt lat="42.52145" lon="1.87397">
        <ele>2323</ele>
        <time>2018-08-02T12:21:13Z</time>
      </trkpt>
      <trkpt lat="42.52141" lon="1.87403">
        <ele>2323</ele>
        <time>2018-08-02T12:21:18Z</time>
      </trkpt>
      <trkpt lat="42.52139" lon="1.87409">
        <ele>2323</ele>
        <time>2018-08-02T12:21:23Z</time>
      </trkpt>
      <trkpt lat="42.52138" lon="1.87419">
        <ele>2322</ele>
        <time>2018-08-02T12:21:32Z</time>
      </trkpt>
      <trkpt lat="42.52134" lon="1.87427">
        <ele>2321</ele>
        <time>2018-08-02T12:21:40Z</time>
      </trkpt>
      <trkpt lat="42.52133" lon="1.87439">
        <ele>2321</ele>
        <time>2018-08-02T12:21:52Z</time>
      </trkpt>
      <trkpt lat="42.52131" lon="1.87453">
        <ele>2320</ele>
        <time>2018-08-02T12:22:02Z</time>
      </trkpt>
      <trkpt lat="42.52133" lon="1.8746">
        <ele>2321</ele>
        <time>2018-08-02T12:22:07Z</time>
      </trkpt>
      <trkpt lat="42.5213" lon="1.87476">
        <ele>2320</ele>
        <time>2018-08-02T12:22:20Z</time>
      </trkpt>
      <trkpt lat="42.5213" lon="1.87487">
        <ele>2321</ele>
        <time>2018-08-02T12:22:34Z</time>
      </trkpt>
      <trkpt lat="42.5213" lon="1.87497">
        <ele>2321</ele>
        <time>2018-08-02T12:22:43Z</time>
      </trkpt>
      <trkpt lat="42.52128" lon="1.87503">
        <ele>2319</ele>
        <time>2018-08-02T12:22:48Z</time>
      </trkpt>
      <trkpt lat="42.52126" lon="1.87511">
        <ele>2319</ele>
        <time>2018-08-02T12:23:01Z</time>
      </trkpt>
      <trkpt lat="42.52125" lon="1.87528">
        <ele>2319</ele>
        <time>2018-08-02T12:23:14Z</time>
      </trkpt>
      <trkpt lat="42.52122" lon="1.87535">
        <ele>2318</ele>
        <time>2018-08-02T12:23:22Z</time>
      </trkpt>
      <trkpt lat="42.5212" lon="1.87541">
        <ele>2318</ele>
        <time>2018-08-02T12:23:27Z</time>
      </trkpt>
      <trkpt lat="42.52118" lon="1.87546">
        <ele>2318</ele>
        <time>2018-08-02T12:23:35Z</time>
      </trkpt>
      <trkpt lat="42.52113" lon="1.8755">
        <ele>2317</ele>
        <time>2018-08-02T12:24:29Z</time>
      </trkpt>
      <trkpt lat="42.52112" lon="1.87557">
        <ele>2317</ele>
        <time>2018-08-02T12:26:11Z</time>
      </trkpt>
      <trkpt lat="42.5211" lon="1.87563">
        <ele>2316</ele>
        <time>2018-08-02T12:26:16Z</time>
      </trkpt>
      <trkpt lat="42.52099" lon="1.87581">
        <ele>2313</ele>
        <time>2018-08-02T12:26:40Z</time>
      </trkpt>
      <trkpt lat="42.52095" lon="1.87584">
        <ele>2311</ele>
        <time>2018-08-02T12:26:45Z</time>
      </trkpt>
      <trkpt lat="42.5209" lon="1.87591">
        <ele>2311</ele>
        <time>2018-08-02T12:26:53Z</time>
      </trkpt>
      <trkpt lat="42.52075" lon="1.87602">
        <ele>2302</ele>
        <time>2018-08-02T12:27:13Z</time>
      </trkpt>
      <trkpt lat="42.52072" lon="1.87609">
        <ele>2301</ele>
        <time>2018-08-02T12:27:21Z</time>
      </trkpt>
      <trkpt lat="42.52068" lon="1.87613">
        <ele>2300</ele>
        <time>2018-08-02T12:27:26Z</time>
      </trkpt>
      <trkpt lat="42.52059" lon="1.87624">
        <ele>2299</ele>
        <time>2018-08-02T12:27:52Z</time>
      </trkpt>
      <trkpt lat="42.52054" lon="1.87627">
        <ele>2298</ele>
        <time>2018-08-02T12:27:57Z</time>
      </trkpt>
      <trkpt lat="42.52051" lon="1.8763">
        <ele>2298</ele>
        <time>2018-08-02T12:28:02Z</time>
      </trkpt>
      <trkpt lat="42.5205" lon="1.87637">
        <ele>2298</ele>
        <time>2018-08-02T12:28:07Z</time>
      </trkpt>
      <trkpt lat="42.52045" lon="1.8764">
        <ele>2297</ele>
        <time>2018-08-02T12:28:14Z</time>
      </trkpt>
      <trkpt lat="42.5204" lon="1.87644">
        <ele>2296</ele>
        <time>2018-08-02T12:28:28Z</time>
      </trkpt>
      <trkpt lat="42.52035" lon="1.87651">
        <ele>2295</ele>
        <time>2018-08-02T12:28:47Z</time>
      </trkpt>
      <trkpt lat="42.52034" lon="1.87659">
        <ele>2295</ele>
        <time>2018-08-02T12:28:51Z</time>
      </trkpt>
      <trkpt lat="42.52029" lon="1.87667">
        <ele>2293</ele>
        <time>2018-08-02T12:29:10Z</time>
      </trkpt>
      <trkpt lat="42.52023" lon="1.87665">
        <ele>2292</ele>
        <time>2018-08-02T12:29:18Z</time>
      </trkpt>
      <trkpt lat="42.52011" lon="1.87675">
        <ele>2290</ele>
        <time>2018-08-02T12:29:35Z</time>
      </trkpt>
      <trkpt lat="42.52" lon="1.87688">
        <ele>2280</ele>
        <time>2018-08-02T12:29:52Z</time>
      </trkpt>
      <trkpt lat="42.51993" lon="1.87704">
        <ele>2279</ele>
        <time>2018-08-02T12:30:05Z</time>
      </trkpt>
      <trkpt lat="42.5199" lon="1.87717">
        <ele>2279</ele>
        <time>2018-08-02T12:30:18Z</time>
      </trkpt>
      <trkpt lat="42.51989" lon="1.87724">
        <ele>2279</ele>
        <time>2018-08-02T12:30:23Z</time>
      </trkpt>
      <trkpt lat="42.51985" lon="1.87728">
        <ele>2279</ele>
        <time>2018-08-02T12:30:27Z</time>
      </trkpt>
      <trkpt lat="42.51981" lon="1.87732">
        <ele>2279</ele>
        <time>2018-08-02T12:30:31Z</time>
      </trkpt>
      <trkpt lat="42.51977" lon="1.87737">
        <ele>2279</ele>
        <time>2018-08-02T12:30:36Z</time>
      </trkpt>
      <trkpt lat="42.51973" lon="1.87741">
        <ele>2278</ele>
        <time>2018-08-02T12:30:40Z</time>
      </trkpt>
      <trkpt lat="42.51968" lon="1.87743">
        <ele>2277</ele>
        <time>2018-08-02T12:30:45Z</time>
      </trkpt>
      <trkpt lat="42.51964" lon="1.8775">
        <ele>2277</ele>
        <time>2018-08-02T12:30:53Z</time>
      </trkpt>
      <trkpt lat="42.5196" lon="1.87757">
        <ele>2277</ele>
        <time>2018-08-02T12:31:02Z</time>
      </trkpt>
      <trkpt lat="42.51953" lon="1.87768">
        <ele>2276</ele>
        <time>2018-08-02T12:31:22Z</time>
      </trkpt>
      <trkpt lat="42.51947" lon="1.87769">
        <ele>2275</ele>
        <time>2018-08-02T12:31:26Z</time>
      </trkpt>
      <trkpt lat="42.51942" lon="1.87772">
        <ele>2275</ele>
        <time>2018-08-02T12:31:35Z</time>
      </trkpt>
      <trkpt lat="42.51935" lon="1.87772">
        <ele>2274</ele>
        <time>2018-08-02T12:31:47Z</time>
      </trkpt>
      <trkpt lat="42.51929" lon="1.87773">
        <ele>2274</ele>
        <time>2018-08-02T12:31:59Z</time>
      </trkpt>
      <trkpt lat="42.51925" lon="1.87771">
        <ele>2273</ele>
        <time>2018-08-02T12:32:05Z</time>
      </trkpt>
      <trkpt lat="42.51919" lon="1.87766">
        <ele>2272</ele>
        <time>2018-08-02T12:32:17Z</time>
      </trkpt>
      <trkpt lat="42.51914" lon="1.87766">
        <ele>2266</ele>
        <time>2018-08-02T12:32:22Z</time>
      </trkpt>
      <trkpt lat="42.51908" lon="1.87773">
        <ele>2266</ele>
        <time>2018-08-02T12:32:33Z</time>
      </trkpt>
      <trkpt lat="42.51903" lon="1.87778">
        <ele>2266</ele>
        <time>2018-08-02T12:32:38Z</time>
      </trkpt>
      <trkpt lat="42.51894" lon="1.8779">
        <ele>2265</ele>
        <time>2018-08-02T12:32:51Z</time>
      </trkpt>
      <trkpt lat="42.51887" lon="1.87794">
        <ele>2265</ele>
        <time>2018-08-02T12:33:00Z</time>
      </trkpt>
      <trkpt lat="42.51871" lon="1.87811">
        <ele>2265</ele>
        <time>2018-08-02T12:33:19Z</time>
      </trkpt>
      <trkpt lat="42.51863" lon="1.87814">
        <ele>2264</ele>
        <time>2018-08-02T12:33:27Z</time>
      </trkpt>
      <trkpt lat="42.51854" lon="1.87837">
        <ele>2264</ele>
        <time>2018-08-02T12:33:45Z</time>
      </trkpt>
      <trkpt lat="42.5185" lon="1.8787">
        <ele>2264</ele>
        <time>2018-08-02T12:34:09Z</time>
      </trkpt>
      <trkpt lat="42.5185" lon="1.87879">
        <ele>2264</ele>
        <time>2018-08-02T12:34:18Z</time>
      </trkpt>
      <trkpt lat="42.51847" lon="1.87884">
        <ele>2263</ele>
        <time>2018-08-02T12:34:32Z</time>
      </trkpt>
      <trkpt lat="42.51849" lon="1.8789">
        <ele>2263</ele>
        <time>2018-08-02T12:34:38Z</time>
      </trkpt>
      <trkpt lat="42.51849" lon="1.87897">
        <ele>2263</ele>
        <time>2018-08-02T12:34:44Z</time>
      </trkpt>
      <trkpt lat="42.51846" lon="1.87905">
        <ele>2262</ele>
        <time>2018-08-02T12:34:52Z</time>
      </trkpt>
      <trkpt lat="42.51845" lon="1.87911">
        <ele>2262</ele>
        <time>2018-08-02T12:34:57Z</time>
      </trkpt>
      <trkpt lat="42.51846" lon="1.87917">
        <ele>2261</ele>
        <time>2018-08-02T12:35:02Z</time>
      </trkpt>
      <trkpt lat="42.51844" lon="1.87927">
        <ele>2261</ele>
        <time>2018-08-02T12:35:16Z</time>
      </trkpt>
      <trkpt lat="42.51841" lon="1.87934">
        <ele>2261</ele>
        <time>2018-08-02T12:35:24Z</time>
      </trkpt>
      <trkpt lat="42.5184" lon="1.87941">
        <ele>2261</ele>
        <time>2018-08-02T12:35:29Z</time>
      </trkpt>
      <trkpt lat="42.51834" lon="1.8796">
        <ele>2260</ele>
        <time>2018-08-02T12:35:45Z</time>
      </trkpt>
      <trkpt lat="42.51824" lon="1.87968">
        <ele>2254</ele>
        <time>2018-08-02T12:36:00Z</time>
      </trkpt>
      <trkpt lat="42.51819" lon="1.87972">
        <ele>2253</ele>
        <time>2018-08-02T12:36:12Z</time>
      </trkpt>
      <trkpt lat="42.51816" lon="1.87977">
        <ele>2253</ele>
        <time>2018-08-02T12:36:16Z</time>
      </trkpt>
      <trkpt lat="42.51815" lon="1.87983">
        <ele>2253</ele>
        <time>2018-08-02T12:36:21Z</time>
      </trkpt>
      <trkpt lat="42.51809" lon="1.8799">
        <ele>2253</ele>
        <time>2018-08-02T12:36:33Z</time>
      </trkpt>
      <trkpt lat="42.51804" lon="1.87994">
        <ele>2252</ele>
        <time>2018-08-02T12:36:42Z</time>
      </trkpt>
      <trkpt lat="42.518" lon="1.87998">
        <ele>2252</ele>
        <time>2018-08-02T12:36:47Z</time>
      </trkpt>
      <trkpt lat="42.51797" lon="1.88004">
        <ele>2251</ele>
        <time>2018-08-02T12:36:54Z</time>
      </trkpt>
      <trkpt lat="42.51793" lon="1.88007">
        <ele>2251</ele>
        <time>2018-08-02T12:36:58Z</time>
      </trkpt>
      <trkpt lat="42.51781" lon="1.88023">
        <ele>2250</ele>
        <time>2018-08-02T12:37:20Z</time>
      </trkpt>
      <trkpt lat="42.51779" lon="1.8803">
        <ele>2250</ele>
        <time>2018-08-02T12:37:24Z</time>
      </trkpt>
      <trkpt lat="42.51771" lon="1.88038">
        <ele>2250</ele>
        <time>2018-08-02T12:37:32Z</time>
      </trkpt>
      <trkpt lat="42.51766" lon="1.8804">
        <ele>2249</ele>
        <time>2018-08-02T12:37:37Z</time>
      </trkpt>
      <trkpt lat="42.51761" lon="1.88046">
        <ele>2249</ele>
        <time>2018-08-02T12:37:43Z</time>
      </trkpt>
      <trkpt lat="42.51756" lon="1.88056">
        <ele>2249</ele>
        <time>2018-08-02T12:37:54Z</time>
      </trkpt>
      <trkpt lat="42.51754" lon="1.88062">
        <ele>2249</ele>
        <time>2018-08-02T12:37:59Z</time>
      </trkpt>
      <trkpt lat="42.5175" lon="1.88066">
        <ele>2245</ele>
        <time>2018-08-02T12:38:03Z</time>
      </trkpt>
      <trkpt lat="42.51744" lon="1.88068">
        <ele>2245</ele>
        <time>2018-08-02T12:38:11Z</time>
      </trkpt>
      <trkpt lat="42.51741" lon="1.88073">
        <ele>2245</ele>
        <time>2018-08-02T12:38:16Z</time>
      </trkpt>
      <trkpt lat="42.51714" lon="1.88096">
        <ele>2243</ele>
        <time>2018-08-02T12:38:51Z</time>
      </trkpt>
      <trkpt lat="42.51706" lon="1.88103">
        <ele>2242</ele>
        <time>2018-08-02T12:39:03Z</time>
      </trkpt>
      <trkpt lat="42.51699" lon="1.88105">
        <ele>2242</ele>
        <time>2018-08-02T12:39:09Z</time>
      </trkpt>
      <trkpt lat="42.51692" lon="1.88119">
        <ele>2242</ele>
        <time>2018-08-02T12:39:24Z</time>
      </trkpt>
      <trkpt lat="42.51681" lon="1.88131">
        <ele>2241</ele>
        <time>2018-08-02T12:39:42Z</time>
      </trkpt>
      <trkpt lat="42.51665" lon="1.88133">
        <ele>2235</ele>
        <time>2018-08-02T12:40:01Z</time>
      </trkpt>
      <trkpt lat="42.51661" lon="1.88138">
        <ele>2235</ele>
        <time>2018-08-02T12:40:06Z</time>
      </trkpt>
      <trkpt lat="42.51656" lon="1.8814">
        <ele>2235</ele>
        <time>2018-08-02T12:40:10Z</time>
      </trkpt>
      <trkpt lat="42.51651" lon="1.88141">
        <ele>2235</ele>
        <time>2018-08-02T12:40:15Z</time>
      </trkpt>
      <trkpt lat="42.51642" lon="1.88145">
        <ele>2235</ele>
        <time>2018-08-02T12:40:23Z</time>
      </trkpt>
      <trkpt lat="42.51625" lon="1.88156">
        <ele>2234</ele>
        <time>2018-08-02T12:40:45Z</time>
      </trkpt>
      <trkpt lat="42.51622" lon="1.8816">
        <ele>2234</ele>
        <time>2018-08-02T12:40:49Z</time>
      </trkpt>
      <trkpt lat="42.5161" lon="1.88162">
        <ele>2233</ele>
        <time>2018-08-02T12:41:04Z</time>
      </trkpt>
      <trkpt lat="42.51606" lon="1.88165">
        <ele>2233</ele>
        <time>2018-08-02T12:41:09Z</time>
      </trkpt>
      <trkpt lat="42.51582" lon="1.88171">
        <ele>2231</ele>
        <time>2018-08-02T12:42:12Z</time>
      </trkpt>
      <trkpt lat="42.51568" lon="1.88175">
        <ele>2232</ele>
        <time>2018-08-02T12:42:25Z</time>
      </trkpt>
      <trkpt lat="42.51561" lon="1.88184">
        <ele>2232</ele>
        <time>2018-08-02T12:42:33Z</time>
      </trkpt>
      <trkpt lat="42.51562" lon="1.88173">
        <ele>2232</ele>
        <time>2018-08-02T12:43:15Z</time>
      </trkpt>
      <trkpt lat="42.51562" lon="1.88176">
        <ele>2232</ele>
        <time>2018-08-02T12:44:13Z</time>
      </trkpt>
      <trkpt lat="42.51561" lon="1.88183">
        <ele>2232</ele>
        <time>2018-08-02T12:44:18Z</time>
      </trkpt>
      <trkpt lat="42.51555" lon="1.88194">
        <ele>2232</ele>
        <time>2018-08-02T12:44:27Z</time>
      </trkpt>
      <trkpt lat="42.51542" lon="1.88206">
        <ele>2232</ele>
        <time>2018-08-02T12:44:40Z</time>
      </trkpt>
      <trkpt lat="42.51537" lon="1.88213">
        <ele>2232</ele>
        <time>2018-08-02T12:44:47Z</time>
      </trkpt>
      <trkpt lat="42.51533" lon="1.88216">
        <ele>2233</ele>
        <time>2018-08-02T12:44:51Z</time>
      </trkpt>
      <trkpt lat="42.5153" lon="1.88224">
        <ele>2233</ele>
        <time>2018-08-02T12:44:58Z</time>
      </trkpt>
      <trkpt lat="42.51526" lon="1.88228">
        <ele>2233</ele>
        <time>2018-08-02T12:45:02Z</time>
      </trkpt>
      <trkpt lat="42.51513" lon="1.8825">
        <ele>2235</ele>
        <time>2018-08-02T12:45:20Z</time>
      </trkpt>
      <trkpt lat="42.5151" lon="1.88255">
        <ele>2235</ele>
        <time>2018-08-02T12:45:25Z</time>
      </trkpt>
      <trkpt lat="42.51505" lon="1.88262">
        <ele>2235</ele>
        <time>2018-08-02T12:45:32Z</time>
      </trkpt>
      <trkpt lat="42.51497" lon="1.88279">
        <ele>2238</ele>
        <time>2018-08-02T12:45:45Z</time>
      </trkpt>
      <trkpt lat="42.51471" lon="1.88312">
        <ele>2239</ele>
        <time>2018-08-02T12:46:17Z</time>
      </trkpt>
      <trkpt lat="42.51471" lon="1.8831">
        <ele>2239</ele>
        <time>2018-08-02T12:47:11Z</time>
      </trkpt>
      <trkpt lat="42.51466" lon="1.88314">
        <ele>2239</ele>
        <time>2018-08-02T12:48:23Z</time>
      </trkpt>
      <trkpt lat="42.51462" lon="1.88322">
        <ele>2240</ele>
        <time>2018-08-02T12:48:34Z</time>
      </trkpt>
      <trkpt lat="42.51459" lon="1.88328">
        <ele>2240</ele>
        <time>2018-08-02T12:48:39Z</time>
      </trkpt>
      <trkpt lat="42.51455" lon="1.88337">
        <ele>2240</ele>
        <time>2018-08-02T12:48:50Z</time>
      </trkpt>
      <trkpt lat="42.51441" lon="1.88363">
        <ele>2241</ele>
        <time>2018-08-02T12:49:17Z</time>
      </trkpt>
      <trkpt lat="42.51424" lon="1.88374">
        <ele>2241</ele>
        <time>2018-08-02T12:49:37Z</time>
      </trkpt>
      <trkpt lat="42.51415" lon="1.88377">
        <ele>2243</ele>
        <time>2018-08-02T12:49:45Z</time>
      </trkpt>
      <trkpt lat="42.51409" lon="1.88376">
        <ele>2243</ele>
        <time>2018-08-02T12:49:50Z</time>
      </trkpt>
      <trkpt lat="42.51399" lon="1.88381">
        <ele>2243</ele>
        <time>2018-08-02T12:50:00Z</time>
      </trkpt>
      <trkpt lat="42.51392" lon="1.88378">
        <ele>2243</ele>
        <time>2018-08-02T12:50:07Z</time>
      </trkpt>
      <trkpt lat="42.51387" lon="1.88372">
        <ele>2243</ele>
        <time>2018-08-02T12:50:21Z</time>
      </trkpt>
      <trkpt lat="42.51384" lon="1.88368">
        <ele>2243</ele>
        <time>2018-08-02T12:50:25Z</time>
      </trkpt>
      <trkpt lat="42.5138" lon="1.88365">
        <ele>2243</ele>
        <time>2018-08-02T12:50:30Z</time>
      </trkpt>
      <trkpt lat="42.51359" lon="1.88356">
        <ele>2243</ele>
        <time>2018-08-02T12:50:57Z</time>
      </trkpt>
      <trkpt lat="42.51356" lon="1.88352">
        <ele>2243</ele>
        <time>2018-08-02T12:51:01Z</time>
      </trkpt>
      <trkpt lat="42.51346" lon="1.88348">
        <ele>2243</ele>
        <time>2018-08-02T12:51:10Z</time>
      </trkpt>
      <trkpt lat="42.51341" lon="1.88348">
        <ele>2243</ele>
        <time>2018-08-02T12:51:14Z</time>
      </trkpt>
      <trkpt lat="42.51336" lon="1.88346">
        <ele>2243</ele>
        <time>2018-08-02T12:51:19Z</time>
      </trkpt>
      <trkpt lat="42.51307" lon="1.88346">
        <ele>2243</ele>
        <time>2018-08-02T12:51:45Z</time>
      </trkpt>
      <trkpt lat="42.51287" lon="1.88338">
        <ele>2243</ele>
        <time>2018-08-02T12:52:02Z</time>
      </trkpt>
      <trkpt lat="42.51255" lon="1.88314">
        <ele>2245</ele>
        <time>2018-08-02T12:52:35Z</time>
      </trkpt>
      <trkpt lat="42.51238" lon="1.88305">
        <ele>2244</ele>
        <time>2018-08-02T12:52:51Z</time>
      </trkpt>
      <trkpt lat="42.51233" lon="1.88303">
        <ele>2244</ele>
        <time>2018-08-02T12:52:56Z</time>
      </trkpt>
      <trkpt lat="42.51218" lon="1.88299">
        <ele>2243</ele>
        <time>2018-08-02T12:53:08Z</time>
      </trkpt>
      <trkpt lat="42.51213" lon="1.88297">
        <ele>2243</ele>
        <time>2018-08-02T12:53:13Z</time>
      </trkpt>
      <trkpt lat="42.5118" lon="1.88285">
        <ele>2242</ele>
        <time>2018-08-02T12:53:46Z</time>
      </trkpt>
      <trkpt lat="42.51168" lon="1.88284">
        <ele>2242</ele>
        <time>2018-08-02T12:53:57Z</time>
      </trkpt>
      <trkpt lat="42.51163" lon="1.88282">
        <ele>2239</ele>
        <time>2018-08-02T12:54:02Z</time>
      </trkpt>
      <trkpt lat="42.51148" lon="1.88282">
        <ele>2239</ele>
        <time>2018-08-02T12:54:16Z</time>
      </trkpt>
      <trkpt lat="42.51139" lon="1.88277">
        <ele>2238</ele>
        <time>2018-08-02T12:54:25Z</time>
      </trkpt>
      <trkpt lat="42.51134" lon="1.88277">
        <ele>2238</ele>
        <time>2018-08-02T12:54:30Z</time>
      </trkpt>
      <trkpt lat="42.51121" lon="1.8829">
        <ele>2237</ele>
        <time>2018-08-02T12:54:44Z</time>
      </trkpt>
      <trkpt lat="42.51115" lon="1.88293">
        <ele>2237</ele>
        <time>2018-08-02T12:54:51Z</time>
      </trkpt>
      <trkpt lat="42.51111" lon="1.88297">
        <ele>2237</ele>
        <time>2018-08-02T12:54:56Z</time>
      </trkpt>
      <trkpt lat="42.51108" lon="1.88316">
        <ele>2235</ele>
        <time>2018-08-02T12:55:14Z</time>
      </trkpt>
      <trkpt lat="42.51109" lon="1.88323">
        <ele>2235</ele>
        <time>2018-08-02T12:55:25Z</time>
      </trkpt>
      <trkpt lat="42.51106" lon="1.88331">
        <ele>2235</ele>
        <time>2018-08-02T12:55:36Z</time>
      </trkpt>
      <trkpt lat="42.51105" lon="1.88351">
        <ele>2232</ele>
        <time>2018-08-02T12:55:52Z</time>
      </trkpt>
      <trkpt lat="42.51108" lon="1.88377">
        <ele>2232</ele>
        <time>2018-08-02T12:56:15Z</time>
      </trkpt>
      <trkpt lat="42.51107" lon="1.88384">
        <ele>2232</ele>
        <time>2018-08-02T12:56:20Z</time>
      </trkpt>
      <trkpt lat="42.51106" lon="1.88391">
        <ele>2232</ele>
        <time>2018-08-02T12:56:48Z</time>
      </trkpt>
      <trkpt lat="42.51104" lon="1.88397">
        <ele>2231</ele>
        <time>2018-08-02T12:56:54Z</time>
      </trkpt>
      <trkpt lat="42.51104" lon="1.88411">
        <ele>2231</ele>
        <time>2018-08-02T12:57:05Z</time>
      </trkpt>
      <trkpt lat="42.51108" lon="1.88424">
        <ele>2229</ele>
        <time>2018-08-02T12:57:13Z</time>
      </trkpt>
      <trkpt lat="42.51112" lon="1.88444">
        <ele>2229</ele>
        <time>2018-08-02T12:57:27Z</time>
      </trkpt>
      <trkpt lat="42.51114" lon="1.88449">
        <ele>2229</ele>
        <time>2018-08-02T12:57:31Z</time>
      </trkpt>
      <trkpt lat="42.51111" lon="1.88454">
        <ele>2229</ele>
        <time>2018-08-02T12:57:45Z</time>
      </trkpt>
      <trkpt lat="42.51107" lon="1.88456">
        <ele>2228</ele>
        <time>2018-08-02T12:58:15Z</time>
      </trkpt>
      <trkpt lat="42.51102" lon="1.88457">
        <ele>2228</ele>
        <time>2018-08-02T12:58:21Z</time>
      </trkpt>
      <trkpt lat="42.51088" lon="1.88454">
        <ele>2228</ele>
        <time>2018-08-02T12:58:34Z</time>
      </trkpt>
      <trkpt lat="42.51068" lon="1.88455">
        <ele>2223</ele>
        <time>2018-08-02T12:58:51Z</time>
      </trkpt>
      <trkpt lat="42.51059" lon="1.88452">
        <ele>2223</ele>
        <time>2018-08-02T12:58:59Z</time>
      </trkpt>
      <trkpt lat="42.5102" lon="1.88452">
        <ele>2221</ele>
        <time>2018-08-02T12:59:33Z</time>
      </trkpt>
      <trkpt lat="42.51001" lon="1.88458">
        <ele>2220</ele>
        <time>2018-08-02T12:59:50Z</time>
      </trkpt>
      <trkpt lat="42.50992" lon="1.88464">
        <ele>2215</ele>
        <time>2018-08-02T12:59:58Z</time>
      </trkpt>
      <trkpt lat="42.50986" lon="1.88462">
        <ele>2215</ele>
        <time>2018-08-02T13:00:03Z</time>
      </trkpt>
      <trkpt lat="42.50981" lon="1.88465">
        <ele>2214</ele>
        <time>2018-08-02T13:00:08Z</time>
      </trkpt>
      <trkpt lat="42.50976" lon="1.88466">
        <ele>2214</ele>
        <time>2018-08-02T13:00:13Z</time>
      </trkpt>
      <trkpt lat="42.50947" lon="1.88482">
        <ele>2212</ele>
        <time>2018-08-02T13:00:43Z</time>
      </trkpt>
      <trkpt lat="42.50932" lon="1.88487">
        <ele>2210</ele>
        <time>2018-08-02T13:00:56Z</time>
      </trkpt>
      <trkpt lat="42.50928" lon="1.88491">
        <ele>2209</ele>
        <time>2018-08-02T13:01:01Z</time>
      </trkpt>
      <trkpt lat="42.50918" lon="1.88494">
        <ele>2208</ele>
        <time>2018-08-02T13:01:13Z</time>
      </trkpt>
      <trkpt lat="42.50904" lon="1.88516">
        <ele>2202</ele>
        <time>2018-08-02T13:01:37Z</time>
      </trkpt>
      <trkpt lat="42.509" lon="1.8852">
        <ele>2201</ele>
        <time>2018-08-02T13:01:41Z</time>
      </trkpt>
      <trkpt lat="42.50881" lon="1.88527">
        <ele>2199</ele>
        <time>2018-08-02T13:02:03Z</time>
      </trkpt>
      <trkpt lat="42.50876" lon="1.88528">
        <ele>2198</ele>
        <time>2018-08-02T13:02:07Z</time>
      </trkpt>
      <trkpt lat="42.50866" lon="1.88538">
        <ele>2197</ele>
        <time>2018-08-02T13:02:20Z</time>
      </trkpt>
      <trkpt lat="42.50862" lon="1.8854">
        <ele>2197</ele>
        <time>2018-08-02T13:02:24Z</time>
      </trkpt>
      <trkpt lat="42.50856" lon="1.88546">
        <ele>2196</ele>
        <time>2018-08-02T13:02:33Z</time>
      </trkpt>
      <trkpt lat="42.50852" lon="1.88548">
        <ele>2195</ele>
        <time>2018-08-02T13:02:38Z</time>
      </trkpt>
      <trkpt lat="42.50839" lon="1.88559">
        <ele>2194</ele>
        <time>2018-08-02T13:02:52Z</time>
      </trkpt>
      <trkpt lat="42.50836" lon="1.88564">
        <ele>2193</ele>
        <time>2018-08-02T13:02:55Z</time>
      </trkpt>
      <trkpt lat="42.50815" lon="1.88572">
        <ele>2184</ele>
        <time>2018-08-02T13:03:17Z</time>
      </trkpt>
      <trkpt lat="42.50811" lon="1.88575">
        <ele>2183</ele>
        <time>2018-08-02T13:03:29Z</time>
      </trkpt>
      <trkpt lat="42.50806" lon="1.88572">
        <ele>2183</ele>
        <time>2018-08-02T13:03:41Z</time>
      </trkpt>
      <trkpt lat="42.50799" lon="1.88568">
        <ele>2182</ele>
        <time>2018-08-02T13:03:51Z</time>
      </trkpt>
      <trkpt lat="42.50793" lon="1.8857">
        <ele>2181</ele>
        <time>2018-08-02T13:03:59Z</time>
      </trkpt>
      <trkpt lat="42.50782" lon="1.8857">
        <ele>2180</ele>
        <time>2018-08-02T13:04:16Z</time>
      </trkpt>
      <trkpt lat="42.50776" lon="1.88564">
        <ele>2179</ele>
        <time>2018-08-02T13:04:32Z</time>
      </trkpt>
      <trkpt lat="42.50771" lon="1.88561">
        <ele>2179</ele>
        <time>2018-08-02T13:04:38Z</time>
      </trkpt>
      <trkpt lat="42.50766" lon="1.88558">
        <ele>2179</ele>
        <time>2018-08-02T13:04:45Z</time>
      </trkpt>
      <trkpt lat="42.5076" lon="1.88558">
        <ele>2178</ele>
        <time>2018-08-02T13:04:50Z</time>
      </trkpt>
      <trkpt lat="42.50745" lon="1.88561">
        <ele>2166</ele>
        <time>2018-08-02T13:05:03Z</time>
      </trkpt>
      <trkpt lat="42.5074" lon="1.88558">
        <ele>2165</ele>
        <time>2018-08-02T13:05:11Z</time>
      </trkpt>
      <trkpt lat="42.50727" lon="1.88557">
        <ele>2164</ele>
        <time>2018-08-02T13:05:26Z</time>
      </trkpt>
      <trkpt lat="42.50721" lon="1.88551">
        <ele>2163</ele>
        <time>2018-08-02T13:05:33Z</time>
      </trkpt>
      <trkpt lat="42.50717" lon="1.88545">
        <ele>2162</ele>
        <time>2018-08-02T13:05:41Z</time>
      </trkpt>
      <trkpt lat="42.50712" lon="1.88543">
        <ele>2162</ele>
        <time>2018-08-02T13:05:46Z</time>
      </trkpt>
      <trkpt lat="42.507" lon="1.88523">
        <ele>2160</ele>
        <time>2018-08-02T13:06:12Z</time>
      </trkpt>
      <trkpt lat="42.50695" lon="1.88519">
        <ele>2159</ele>
        <time>2018-08-02T13:06:18Z</time>
      </trkpt>
      <trkpt lat="42.50687" lon="1.88511">
        <ele>2157</ele>
        <time>2018-08-02T13:06:31Z</time>
      </trkpt>
      <trkpt lat="42.5068" lon="1.88508">
        <ele>2155</ele>
        <time>2018-08-02T13:06:41Z</time>
      </trkpt>
      <trkpt lat="42.50675" lon="1.88507">
        <ele>2154</ele>
        <time>2018-08-02T13:06:52Z</time>
      </trkpt>
      <trkpt lat="42.50672" lon="1.88502">
        <ele>2152</ele>
        <time>2018-08-02T13:06:58Z</time>
      </trkpt>
      <trkpt lat="42.50664" lon="1.88495">
        <ele>2148</ele>
        <time>2018-08-02T13:07:09Z</time>
      </trkpt>
      <trkpt lat="42.50638" lon="1.88505">
        <ele>2143</ele>
        <time>2018-08-02T13:07:45Z</time>
      </trkpt>
      <trkpt lat="42.50631" lon="1.88507">
        <ele>2142</ele>
        <time>2018-08-02T13:07:56Z</time>
      </trkpt>
      <trkpt lat="42.50627" lon="1.8851">
        <ele>2141</ele>
        <time>2018-08-02T13:08:07Z</time>
      </trkpt>
      <trkpt lat="42.5062" lon="1.88507">
        <ele>2140</ele>
        <time>2018-08-02T13:08:18Z</time>
      </trkpt>
      <trkpt lat="42.50612" lon="1.88509">
        <ele>2139</ele>
        <time>2018-08-02T13:08:29Z</time>
      </trkpt>
      <trkpt lat="42.50605" lon="1.88506">
        <ele>2138</ele>
        <time>2018-08-02T13:08:40Z</time>
      </trkpt>
      <trkpt lat="42.50601" lon="1.88508">
        <ele>2137</ele>
        <time>2018-08-02T13:08:45Z</time>
      </trkpt>
      <trkpt lat="42.50595" lon="1.88513">
        <ele>2137</ele>
        <time>2018-08-02T13:08:52Z</time>
      </trkpt>
      <trkpt lat="42.50572" lon="1.88514">
        <ele>2128</ele>
        <time>2018-08-02T13:09:16Z</time>
      </trkpt>
      <trkpt lat="42.50545" lon="1.88525">
        <ele>2124</ele>
        <time>2018-08-02T13:09:46Z</time>
      </trkpt>
      <trkpt lat="42.50524" lon="1.8854">
        <ele>2122</ele>
        <time>2018-08-02T13:10:11Z</time>
      </trkpt>
      <trkpt lat="42.5052" lon="1.8854">
        <ele>2122</ele>
        <time>2018-08-02T13:10:16Z</time>
      </trkpt>
      <trkpt lat="42.50515" lon="1.88539">
        <ele>2122</ele>
        <time>2018-08-02T13:10:21Z</time>
      </trkpt>
      <trkpt lat="42.50505" lon="1.88542">
        <ele>2121</ele>
        <time>2018-08-02T13:10:31Z</time>
      </trkpt>
      <trkpt lat="42.5048" lon="1.88552">
        <ele>2114</ele>
        <time>2018-08-02T13:11:00Z</time>
      </trkpt>
      <trkpt lat="42.50476" lon="1.88556">
        <ele>2114</ele>
        <time>2018-08-02T13:11:05Z</time>
      </trkpt>
      <trkpt lat="42.50451" lon="1.88591">
        <ele>2113</ele>
        <time>2018-08-02T13:11:38Z</time>
      </trkpt>
      <trkpt lat="42.50443" lon="1.88602">
        <ele>2113</ele>
        <time>2018-08-02T13:11:50Z</time>
      </trkpt>
      <trkpt lat="42.5043" lon="1.88612">
        <ele>2113</ele>
        <time>2018-08-02T13:12:05Z</time>
      </trkpt>
      <trkpt lat="42.50424" lon="1.88614">
        <ele>2113</ele>
        <time>2018-08-02T13:12:10Z</time>
      </trkpt>
      <trkpt lat="42.50419" lon="1.88613">
        <ele>2113</ele>
        <time>2018-08-02T13:12:15Z</time>
      </trkpt>
      <trkpt lat="42.5041" lon="1.88619">
        <ele>2110</ele>
        <time>2018-08-02T13:12:24Z</time>
      </trkpt>
      <trkpt lat="42.50405" lon="1.88619">
        <ele>2110</ele>
        <time>2018-08-02T13:12:28Z</time>
      </trkpt>
      <trkpt lat="42.504" lon="1.88622">
        <ele>2110</ele>
        <time>2018-08-02T13:12:32Z</time>
      </trkpt>
      <trkpt lat="42.50378" lon="1.88639">
        <ele>2109</ele>
        <time>2018-08-02T13:12:54Z</time>
      </trkpt>
      <trkpt lat="42.50373" lon="1.8864">
        <ele>2109</ele>
        <time>2018-08-02T13:12:58Z</time>
      </trkpt>
      <trkpt lat="42.50362" lon="1.88638">
        <ele>2109</ele>
        <time>2018-08-02T13:13:08Z</time>
      </trkpt>
      <trkpt lat="42.50352" lon="1.88639">
        <ele>2109</ele>
        <time>2018-08-02T13:13:17Z</time>
      </trkpt>
      <trkpt lat="42.50348" lon="1.88639">
        <ele>2109</ele>
        <time>2018-08-02T13:13:22Z</time>
      </trkpt>
      <trkpt lat="42.50342" lon="1.88639">
        <ele>2109</ele>
        <time>2018-08-02T13:13:26Z</time>
      </trkpt>
      <trkpt lat="42.50338" lon="1.8864">
        <ele>2109</ele>
        <time>2018-08-02T13:13:31Z</time>
      </trkpt>
      <trkpt lat="42.50318" lon="1.88658">
        <ele>2104</ele>
        <time>2018-08-02T13:13:56Z</time>
      </trkpt>
      <trkpt lat="42.50296" lon="1.88686">
        <ele>2101</ele>
        <time>2018-08-02T13:14:29Z</time>
      </trkpt>
      <trkpt lat="42.50292" lon="1.88694">
        <ele>2100</ele>
        <time>2018-08-02T13:14:47Z</time>
      </trkpt>
      <trkpt lat="42.5028" lon="1.88711">
        <ele>2099</ele>
        <time>2018-08-02T13:15:07Z</time>
      </trkpt>
      <trkpt lat="42.50275" lon="1.88713">
        <ele>2098</ele>
        <time>2018-08-02T13:15:13Z</time>
      </trkpt>
      <trkpt lat="42.5027" lon="1.88714">
        <ele>2098</ele>
        <time>2018-08-02T13:15:18Z</time>
      </trkpt>
      <trkpt lat="42.50252" lon="1.88727">
        <ele>2095</ele>
        <time>2018-08-02T13:15:36Z</time>
      </trkpt>
      <trkpt lat="42.5024" lon="1.88742">
        <ele>2087</ele>
        <time>2018-08-02T13:15:54Z</time>
      </trkpt>
      <trkpt lat="42.50236" lon="1.88753">
        <ele>2084</ele>
        <time>2018-08-02T13:16:06Z</time>
      </trkpt>
      <trkpt lat="42.50233" lon="1.88759">
        <ele>2083</ele>
        <time>2018-08-02T13:16:12Z</time>
      </trkpt>
      <trkpt lat="42.50226" lon="1.88768">
        <ele>2080</ele>
        <time>2018-08-02T13:16:23Z</time>
      </trkpt>
      <trkpt lat="42.50224" lon="1.88774">
        <ele>2080</ele>
        <time>2018-08-02T13:16:37Z</time>
      </trkpt>
      <trkpt lat="42.50217" lon="1.88774">
        <ele>2079</ele>
        <time>2018-08-02T13:16:49Z</time>
      </trkpt>
      <trkpt lat="42.50212" lon="1.88773">
        <ele>2078</ele>
        <time>2018-08-02T13:16:55Z</time>
      </trkpt>
      <trkpt lat="42.50202" lon="1.88772">
        <ele>2077</ele>
        <time>2018-08-02T13:17:05Z</time>
      </trkpt>
      <trkpt lat="42.50186" lon="1.88762">
        <ele>2076</ele>
        <time>2018-08-02T13:17:30Z</time>
      </trkpt>
      <trkpt lat="42.50173" lon="1.88772">
        <ele>2075</ele>
        <time>2018-08-02T13:17:47Z</time>
      </trkpt>
      <trkpt lat="42.50166" lon="1.88775">
        <ele>2065</ele>
        <time>2018-08-02T13:17:57Z</time>
      </trkpt>
      <trkpt lat="42.50157" lon="1.8878">
        <ele>2063</ele>
        <time>2018-08-02T13:18:09Z</time>
      </trkpt>
      <trkpt lat="42.50154" lon="1.88784">
        <ele>2062</ele>
        <time>2018-08-02T13:18:19Z</time>
      </trkpt>
      <trkpt lat="42.50152" lon="1.88791">
        <ele>2061</ele>
        <time>2018-08-02T13:18:31Z</time>
      </trkpt>
      <trkpt lat="42.50138" lon="1.88799">
        <ele>2059</ele>
        <time>2018-08-02T13:18:55Z</time>
      </trkpt>
      <trkpt lat="42.50134" lon="1.88804">
        <ele>2058</ele>
        <time>2018-08-02T13:19:01Z</time>
      </trkpt>
      <trkpt lat="42.50131" lon="1.88814">
        <ele>2057</ele>
        <time>2018-08-02T13:19:10Z</time>
      </trkpt>
      <trkpt lat="42.50129" lon="1.88821">
        <ele>2057</ele>
        <time>2018-08-02T13:19:18Z</time>
      </trkpt>
      <trkpt lat="42.50123" lon="1.88827">
        <ele>2056</ele>
        <time>2018-08-02T13:19:26Z</time>
      </trkpt>
      <trkpt lat="42.5012" lon="1.88834">
        <ele>2050</ele>
        <time>2018-08-02T13:19:38Z</time>
      </trkpt>
      <trkpt lat="42.50108" lon="1.8884">
        <ele>2048</ele>
        <time>2018-08-02T13:19:55Z</time>
      </trkpt>
      <trkpt lat="42.50107" lon="1.88846">
        <ele>2048</ele>
        <time>2018-08-02T13:20:03Z</time>
      </trkpt>
      <trkpt lat="42.50098" lon="1.88859">
        <ele>2047</ele>
        <time>2018-08-02T13:20:19Z</time>
      </trkpt>
      <trkpt lat="42.50092" lon="1.88864">
        <ele>2047</ele>
        <time>2018-08-02T13:20:26Z</time>
      </trkpt>
      <trkpt lat="42.50088" lon="1.88868">
        <ele>2046</ele>
        <time>2018-08-02T13:20:30Z</time>
      </trkpt>
      <trkpt lat="42.50085" lon="1.88873">
        <ele>2046</ele>
        <time>2018-08-02T13:20:35Z</time>
      </trkpt>
      <trkpt lat="42.50081" lon="1.88879">
        <ele>2035</ele>
        <time>2018-08-02T13:20:40Z</time>
      </trkpt>
      <trkpt lat="42.50066" lon="1.88888">
        <ele>2033</ele>
        <time>2018-08-02T13:20:59Z</time>
      </trkpt>
      <trkpt lat="42.50062" lon="1.88888">
        <ele>2033</ele>
        <time>2018-08-02T13:21:04Z</time>
      </trkpt>
      <trkpt lat="42.50057" lon="1.88893">
        <ele>2033</ele>
        <time>2018-08-02T13:21:12Z</time>
      </trkpt>
      <trkpt lat="42.50052" lon="1.88893">
        <ele>2032</ele>
        <time>2018-08-02T13:21:17Z</time>
      </trkpt>
      <trkpt lat="42.50042" lon="1.889">
        <ele>2031</ele>
        <time>2018-08-02T13:21:28Z</time>
      </trkpt>
      <trkpt lat="42.50035" lon="1.88908">
        <ele>2029</ele>
        <time>2018-08-02T13:21:39Z</time>
      </trkpt>
      <trkpt lat="42.5003" lon="1.88908">
        <ele>2028</ele>
        <time>2018-08-02T13:21:46Z</time>
      </trkpt>
      <trkpt lat="42.50026" lon="1.88905">
        <ele>2028</ele>
        <time>2018-08-02T13:21:51Z</time>
      </trkpt>
      <trkpt lat="42.50018" lon="1.88906">
        <ele>2026</ele>
        <time>2018-08-02T13:22:10Z</time>
      </trkpt>
      <trkpt lat="42.50014" lon="1.8891">
        <ele>2025</ele>
        <time>2018-08-02T13:22:16Z</time>
      </trkpt>
      <trkpt lat="42.49999" lon="1.88908">
        <ele>2017</ele>
        <time>2018-08-02T13:22:40Z</time>
      </trkpt>
      <trkpt lat="42.49992" lon="1.88915">
        <ele>2017</ele>
        <time>2018-08-02T13:22:52Z</time>
      </trkpt>
      <trkpt lat="42.49984" lon="1.88917">
        <ele>2012</ele>
        <time>2018-08-02T13:23:04Z</time>
      </trkpt>
      <trkpt lat="42.49982" lon="1.88928">
        <ele>2011</ele>
        <time>2018-08-02T13:23:22Z</time>
      </trkpt>
      <trkpt lat="42.4998" lon="1.88933">
        <ele>2010</ele>
        <time>2018-08-02T13:23:28Z</time>
      </trkpt>
      <trkpt lat="42.49979" lon="1.88941">
        <ele>2009</ele>
        <time>2018-08-02T13:23:34Z</time>
      </trkpt>
      <trkpt lat="42.49976" lon="1.88945">
        <ele>2008</ele>
        <time>2018-08-02T13:23:39Z</time>
      </trkpt>
      <trkpt lat="42.4997" lon="1.88949">
        <ele>2007</ele>
        <time>2018-08-02T13:23:47Z</time>
      </trkpt>
      <trkpt lat="42.49964" lon="1.88952">
        <ele>2006</ele>
        <time>2018-08-02T13:23:53Z</time>
      </trkpt>
      <trkpt lat="42.49937" lon="1.88946">
        <ele>2003</ele>
        <time>2018-08-02T13:24:26Z</time>
      </trkpt>
      <trkpt lat="42.49927" lon="1.88942">
        <ele>2002</ele>
        <time>2018-08-02T13:24:36Z</time>
      </trkpt>
      <trkpt lat="42.4992" lon="1.88943">
        <ele>2002</ele>
        <time>2018-08-02T13:24:43Z</time>
      </trkpt>
      <trkpt lat="42.49914" lon="1.88945">
        <ele>1990</ele>
        <time>2018-08-02T13:24:51Z</time>
      </trkpt>
      <trkpt lat="42.4991" lon="1.88957">
        <ele>1988</ele>
        <time>2018-08-02T13:25:02Z</time>
      </trkpt>
      <trkpt lat="42.49918" lon="1.88969">
        <ele>2001</ele>
        <time>2018-08-02T13:25:14Z</time>
      </trkpt>
      <trkpt lat="42.4992" lon="1.88981">
        <ele>1999</ele>
        <time>2018-08-02T13:25:25Z</time>
      </trkpt>
      <trkpt lat="42.49919" lon="1.88988">
        <ele>1997</ele>
        <time>2018-08-02T13:25:30Z</time>
      </trkpt>
      <trkpt lat="42.49915" lon="1.88994">
        <ele>1990</ele>
        <time>2018-08-02T13:25:37Z</time>
      </trkpt>
      <trkpt lat="42.49913" lon="1.89004">
        <ele>1989</ele>
        <time>2018-08-02T13:25:46Z</time>
      </trkpt>
      <trkpt lat="42.49906" lon="1.8901">
        <ele>1984</ele>
        <time>2018-08-02T13:25:59Z</time>
      </trkpt>
      <trkpt lat="42.499" lon="1.89015">
        <ele>1981</ele>
        <time>2018-08-02T13:26:11Z</time>
      </trkpt>
      <trkpt lat="42.49892" lon="1.89019">
        <ele>1979</ele>
        <time>2018-08-02T13:26:23Z</time>
      </trkpt>
      <trkpt lat="42.49887" lon="1.89019">
        <ele>1978</ele>
        <time>2018-08-02T13:26:28Z</time>
      </trkpt>
      <trkpt lat="42.49883" lon="1.89026">
        <ele>1976</ele>
        <time>2018-08-02T13:26:36Z</time>
      </trkpt>
      <trkpt lat="42.4987" lon="1.89025">
        <ele>1974</ele>
        <time>2018-08-02T13:26:51Z</time>
      </trkpt>
      <trkpt lat="42.4986" lon="1.89032">
        <ele>1973</ele>
        <time>2018-08-02T13:27:11Z</time>
      </trkpt>
      <trkpt lat="42.49855" lon="1.89032">
        <ele>1972</ele>
        <time>2018-08-02T13:27:15Z</time>
      </trkpt>
      <trkpt lat="42.49849" lon="1.89032">
        <ele>1972</ele>
        <time>2018-08-02T13:27:25Z</time>
      </trkpt>
      <trkpt lat="42.49837" lon="1.89033">
        <ele>1971</ele>
        <time>2018-08-02T13:27:42Z</time>
      </trkpt>
      <trkpt lat="42.49835" lon="1.89021">
        <ele>1971</ele>
        <time>2018-08-02T13:27:56Z</time>
      </trkpt>
      <trkpt lat="42.49827" lon="1.89005">
        <ele>1964</ele>
        <time>2018-08-02T13:28:30Z</time>
      </trkpt>
      <trkpt lat="42.49808" lon="1.88986">
        <ele>1962</ele>
        <time>2018-08-02T13:29:06Z</time>
      </trkpt>
      <trkpt lat="42.49797" lon="1.88978">
        <ele>1960</ele>
        <time>2018-08-02T13:29:24Z</time>
      </trkpt>
      <trkpt lat="42.49794" lon="1.88972">
        <ele>1959</ele>
        <time>2018-08-02T13:29:31Z</time>
      </trkpt>
      <trkpt lat="42.49789" lon="1.88967">
        <ele>1959</ele>
        <time>2018-08-02T13:29:42Z</time>
      </trkpt>
      <trkpt lat="42.49784" lon="1.88967">
        <ele>1958</ele>
        <time>2018-08-02T13:29:47Z</time>
      </trkpt>
      <trkpt lat="42.4978" lon="1.88964">
        <ele>1957</ele>
        <time>2018-08-02T13:29:52Z</time>
      </trkpt>
      <trkpt lat="42.49775" lon="1.8895">
        <ele>1957</ele>
        <time>2018-08-02T13:30:12Z</time>
      </trkpt>
      <trkpt lat="42.49761" lon="1.88935">
        <ele>1954</ele>
        <time>2018-08-02T13:30:52Z</time>
      </trkpt>
      <trkpt lat="42.49757" lon="1.88931">
        <ele>1953</ele>
        <time>2018-08-02T13:30:57Z</time>
      </trkpt>
      <trkpt lat="42.49751" lon="1.88923">
        <ele>1950</ele>
        <time>2018-08-02T13:31:09Z</time>
      </trkpt>
      <trkpt lat="42.49741" lon="1.88915">
        <ele>1945</ele>
        <time>2018-08-02T13:31:21Z</time>
      </trkpt>
      <trkpt lat="42.49736" lon="1.88911">
        <ele>1944</ele>
        <time>2018-08-02T13:31:26Z</time>
      </trkpt>
      <trkpt lat="42.49733" lon="1.88907">
        <ele>1943</ele>
        <time>2018-08-02T13:31:29Z</time>
      </trkpt>
      <trkpt lat="42.49726" lon="1.88903">
        <ele>1942</ele>
        <time>2018-08-02T13:31:39Z</time>
      </trkpt>
      <trkpt lat="42.4972" lon="1.88904">
        <ele>1941</ele>
        <time>2018-08-02T13:31:51Z</time>
      </trkpt>
      <trkpt lat="42.49704" lon="1.88918">
        <ele>1936</ele>
        <time>2018-08-02T13:32:10Z</time>
      </trkpt>
      <trkpt lat="42.49701" lon="1.88923">
        <ele>1935</ele>
        <time>2018-08-02T13:32:15Z</time>
      </trkpt>
      <trkpt lat="42.49698" lon="1.88934">
        <ele>1935</ele>
        <time>2018-08-02T13:32:24Z</time>
      </trkpt>
      <trkpt lat="42.49683" lon="1.88964">
        <ele>1932</ele>
        <time>2018-08-02T13:32:56Z</time>
      </trkpt>
      <trkpt lat="42.49679" lon="1.88969">
        <ele>1931</ele>
        <time>2018-08-02T13:33:01Z</time>
      </trkpt>
      <trkpt lat="42.49668" lon="1.89003">
        <ele>1921</ele>
        <time>2018-08-02T13:33:35Z</time>
      </trkpt>
      <trkpt lat="42.49665" lon="1.89008">
        <ele>1917</ele>
        <time>2018-08-02T13:33:40Z</time>
      </trkpt>
      <trkpt lat="42.49667" lon="1.89018">
        <ele>1914</ele>
        <time>2018-08-02T13:33:52Z</time>
      </trkpt>
      <trkpt lat="42.49665" lon="1.89032">
        <ele>1911</ele>
        <time>2018-08-02T13:34:01Z</time>
      </trkpt>
      <trkpt lat="42.49666" lon="1.89039">
        <ele>1910</ele>
        <time>2018-08-02T13:34:06Z</time>
      </trkpt>
      <trkpt lat="42.49673" lon="1.89046">
        <ele>1921</ele>
        <time>2018-08-02T13:34:19Z</time>
      </trkpt>
      <trkpt lat="42.49676" lon="1.89054">
        <ele>1920</ele>
        <time>2018-08-02T13:34:29Z</time>
      </trkpt>
      <trkpt lat="42.49678" lon="1.89073">
        <ele>1916</ele>
        <time>2018-08-02T13:34:44Z</time>
      </trkpt>
      <trkpt lat="42.49679" lon="1.89089">
        <ele>1910</ele>
        <time>2018-08-02T13:34:56Z</time>
      </trkpt>
      <trkpt lat="42.49682" lon="1.89103">
        <ele>1911</ele>
        <time>2018-08-02T13:35:11Z</time>
      </trkpt>
      <trkpt lat="42.49675" lon="1.89108">
        <ele>1910</ele>
        <time>2018-08-02T13:35:24Z</time>
      </trkpt>
      <trkpt lat="42.49664" lon="1.89102">
        <ele>1898</ele>
        <time>2018-08-02T13:35:42Z</time>
      </trkpt>
      <trkpt lat="42.4966" lon="1.89097">
        <ele>1899</ele>
        <time>2018-08-02T13:35:47Z</time>
      </trkpt>
      <trkpt lat="42.49657" lon="1.89105">
        <ele>1896</ele>
        <time>2018-08-02T13:35:54Z</time>
      </trkpt>
      <trkpt lat="42.4966" lon="1.89115">
        <ele>1894</ele>
        <time>2018-08-02T13:36:14Z</time>
      </trkpt>
      <trkpt lat="42.49663" lon="1.8912">
        <ele>1893</ele>
        <time>2018-08-02T13:36:18Z</time>
      </trkpt>
      <trkpt lat="42.49668" lon="1.89134">
        <ele>1906</ele>
        <time>2018-08-02T13:36:29Z</time>
      </trkpt>
      <trkpt lat="42.49666" lon="1.8914">
        <ele>1891</ele>
        <time>2018-08-02T13:36:34Z</time>
      </trkpt>
      <trkpt lat="42.49663" lon="1.89148">
        <ele>1890</ele>
        <time>2018-08-02T13:36:52Z</time>
      </trkpt>
      <trkpt lat="42.49642" lon="1.89139">
        <ele>1889</ele>
        <time>2018-08-02T13:37:16Z</time>
      </trkpt>
      <trkpt lat="42.49636" lon="1.8914">
        <ele>1889</ele>
        <time>2018-08-02T13:37:23Z</time>
      </trkpt>
      <trkpt lat="42.49631" lon="1.89139">
        <ele>1888</ele>
        <time>2018-08-02T13:37:28Z</time>
      </trkpt>
      <trkpt lat="42.49626" lon="1.89136">
        <ele>1888</ele>
        <time>2018-08-02T13:37:32Z</time>
      </trkpt>
      <trkpt lat="42.49618" lon="1.89134">
        <ele>1887</ele>
        <time>2018-08-02T13:37:40Z</time>
      </trkpt>
      <trkpt lat="42.49608" lon="1.89136">
        <ele>1886</ele>
        <time>2018-08-02T13:38:04Z</time>
      </trkpt>
      <trkpt lat="42.49602" lon="1.89133">
        <ele>1886</ele>
        <time>2018-08-02T13:38:11Z</time>
      </trkpt>
      <trkpt lat="42.49578" lon="1.89133">
        <ele>1871</ele>
        <time>2018-08-02T13:38:37Z</time>
      </trkpt>
      <trkpt lat="42.49574" lon="1.89135">
        <ele>1871</ele>
        <time>2018-08-02T13:38:41Z</time>
      </trkpt>
      <trkpt lat="42.4957" lon="1.8914">
        <ele>1870</ele>
        <time>2018-08-02T13:38:45Z</time>
      </trkpt>
      <trkpt lat="42.49565" lon="1.89142">
        <ele>1869</ele>
        <time>2018-08-02T13:38:50Z</time>
      </trkpt>
      <trkpt lat="42.49555" lon="1.89142">
        <ele>1868</ele>
        <time>2018-08-02T13:38:59Z</time>
      </trkpt>
      <trkpt lat="42.4955" lon="1.89146">
        <ele>1867</ele>
        <time>2018-08-02T13:39:04Z</time>
      </trkpt>
      <trkpt lat="42.49545" lon="1.89144">
        <ele>1867</ele>
        <time>2018-08-02T13:39:12Z</time>
      </trkpt>
      <trkpt lat="42.49527" lon="1.89147">
        <ele>1863</ele>
        <time>2018-08-02T13:39:32Z</time>
      </trkpt>
      <trkpt lat="42.49525" lon="1.89153">
        <ele>1862</ele>
        <time>2018-08-02T13:39:37Z</time>
      </trkpt>
      <trkpt lat="42.49525" lon="1.8916">
        <ele>1861</ele>
        <time>2018-08-02T13:39:41Z</time>
      </trkpt>
      <trkpt lat="42.49527" lon="1.89174">
        <ele>1848</ele>
        <time>2018-08-02T13:39:50Z</time>
      </trkpt>
      <trkpt lat="42.49528" lon="1.89182">
        <ele>1848</ele>
        <time>2018-08-02T13:40:00Z</time>
      </trkpt>
      <trkpt lat="42.49532" lon="1.89185">
        <ele>1848</ele>
        <time>2018-08-02T13:40:07Z</time>
      </trkpt>
      <trkpt lat="42.49538" lon="1.89182">
        <ele>1849</ele>
        <time>2018-08-02T13:40:25Z</time>
      </trkpt>
      <trkpt lat="42.49543" lon="1.89183">
        <ele>1850</ele>
        <time>2018-08-02T13:40:29Z</time>
      </trkpt>
      <trkpt lat="42.49547" lon="1.89186">
        <ele>1850</ele>
        <time>2018-08-02T13:40:33Z</time>
      </trkpt>
      <trkpt lat="42.49554" lon="1.8919">
        <ele>1850</ele>
        <time>2018-08-02T13:40:41Z</time>
      </trkpt>
      <trkpt lat="42.49557" lon="1.89186">
        <ele>1851</ele>
        <time>2018-08-02T13:40:46Z</time>
      </trkpt>
      <trkpt lat="42.49563" lon="1.89186">
        <ele>1853</ele>
        <time>2018-08-02T13:40:51Z</time>
      </trkpt>
      <trkpt lat="42.49571" lon="1.89188">
        <ele>1854</ele>
        <time>2018-08-02T13:40:59Z</time>
      </trkpt>
      <trkpt lat="42.49573" lon="1.89195">
        <ele>1852</ele>
        <time>2018-08-02T13:41:03Z</time>
      </trkpt>
      <trkpt lat="42.49573" lon="1.89202">
        <ele>1850</ele>
        <time>2018-08-02T13:41:07Z</time>
      </trkpt>
      <trkpt lat="42.49577" lon="1.89208">
        <ele>1848</ele>
        <time>2018-08-02T13:41:15Z</time>
      </trkpt>
      <trkpt lat="42.49582" lon="1.89209">
        <ele>1848</ele>
        <time>2018-08-02T13:41:20Z</time>
      </trkpt>
      <trkpt lat="42.49586" lon="1.89216">
        <ele>1859</ele>
        <time>2018-08-02T13:41:30Z</time>
      </trkpt>
      <trkpt lat="42.49581" lon="1.89217">
        <ele>1846</ele>
        <time>2018-08-02T13:41:36Z</time>
      </trkpt>
      <trkpt lat="42.49571" lon="1.89216">
        <ele>1846</ele>
        <time>2018-08-02T13:41:43Z</time>
      </trkpt>
      <trkpt lat="42.49567" lon="1.89219">
        <ele>1845</ele>
        <time>2018-08-02T13:41:47Z</time>
      </trkpt>
      <trkpt lat="42.49564" lon="1.89225">
        <ele>1844</ele>
        <time>2018-08-02T13:41:52Z</time>
      </trkpt>
      <trkpt lat="42.4956" lon="1.89226">
        <ele>1844</ele>
        <time>2018-08-02T13:41:56Z</time>
      </trkpt>
      <trkpt lat="42.49556" lon="1.89233">
        <ele>1843</ele>
        <time>2018-08-02T13:42:03Z</time>
      </trkpt>
      <trkpt lat="42.49545" lon="1.89236">
        <ele>1842</ele>
        <time>2018-08-02T13:42:17Z</time>
      </trkpt>
      <trkpt lat="42.49541" lon="1.8924">
        <ele>1842</ele>
        <time>2018-08-02T13:42:21Z</time>
      </trkpt>
      <trkpt lat="42.49545" lon="1.89244">
        <ele>1841</ele>
        <time>2018-08-02T13:42:26Z</time>
      </trkpt>
      <trkpt lat="42.4955" lon="1.89245">
        <ele>1842</ele>
        <time>2018-08-02T13:42:31Z</time>
      </trkpt>
      <trkpt lat="42.49553" lon="1.89251">
        <ele>1828</ele>
        <time>2018-08-02T13:42:35Z</time>
      </trkpt>
      <trkpt lat="42.49564" lon="1.89258">
        <ele>1829</ele>
        <time>2018-08-02T13:42:44Z</time>
      </trkpt>
      <trkpt lat="42.49575" lon="1.8926">
        <ele>1831</ele>
        <time>2018-08-02T13:42:56Z</time>
      </trkpt>
      <trkpt lat="42.49578" lon="1.8927">
        <ele>1829</ele>
        <time>2018-08-02T13:43:08Z</time>
      </trkpt>
      <trkpt lat="42.49576" lon="1.89284">
        <ele>1826</ele>
        <time>2018-08-02T13:43:23Z</time>
      </trkpt>
      <trkpt lat="42.49576" lon="1.8929">
        <ele>1824</ele>
        <time>2018-08-02T13:43:28Z</time>
      </trkpt>
      <trkpt lat="42.49572" lon="1.89308">
        <ele>1822</ele>
        <time>2018-08-02T13:43:52Z</time>
      </trkpt>
      <trkpt lat="42.49572" lon="1.89317">
        <ele>1821</ele>
        <time>2018-08-02T13:44:04Z</time>
      </trkpt>
      <trkpt lat="42.49575" lon="1.89336">
        <ele>1813</ele>
        <time>2018-08-02T13:44:18Z</time>
      </trkpt>
      <trkpt lat="42.49571" lon="1.89343">
        <ele>1811</ele>
        <time>2018-08-02T13:44:29Z</time>
      </trkpt>
      <trkpt lat="42.49567" lon="1.89345">
        <ele>1809</ele>
        <time>2018-08-02T13:44:35Z</time>
      </trkpt>
      <trkpt lat="42.49559" lon="1.89343">
        <ele>1807</ele>
        <time>2018-08-02T13:44:48Z</time>
      </trkpt>
      <trkpt lat="42.49553" lon="1.89354">
        <ele>1805</ele>
        <time>2018-08-02T13:45:00Z</time>
      </trkpt>
      <trkpt lat="42.49552" lon="1.8936">
        <ele>1804</ele>
        <time>2018-08-02T13:45:05Z</time>
      </trkpt>
      <trkpt lat="42.4955" lon="1.89366">
        <ele>1803</ele>
        <time>2018-08-02T13:45:13Z</time>
      </trkpt>
      <trkpt lat="42.49546" lon="1.89371">
        <ele>1802</ele>
        <time>2018-08-02T13:45:24Z</time>
      </trkpt>
      <trkpt lat="42.49537" lon="1.89382">
        <ele>1799</ele>
        <time>2018-08-02T13:45:41Z</time>
      </trkpt>
      <trkpt lat="42.49533" lon="1.89389">
        <ele>1798</ele>
        <time>2018-08-02T13:45:54Z</time>
      </trkpt>
      <trkpt lat="42.49535" lon="1.89397">
        <ele>1797</ele>
        <time>2018-08-02T13:46:05Z</time>
      </trkpt>
      <trkpt lat="42.49529" lon="1.89403">
        <ele>1795</ele>
        <time>2018-08-02T13:46:42Z</time>
      </trkpt>
      <trkpt lat="42.49524" lon="1.89411">
        <ele>1793</ele>
        <time>2018-08-02T13:46:58Z</time>
      </trkpt>
      <trkpt lat="42.49512" lon="1.89413">
        <ele>1787</ele>
        <time>2018-08-02T13:47:16Z</time>
      </trkpt>
      <trkpt lat="42.49495" lon="1.89397">
        <ele>1786</ele>
        <time>2018-08-02T13:47:33Z</time>
      </trkpt>
      <trkpt lat="42.4949" lon="1.89398">
        <ele>1786</ele>
        <time>2018-08-02T13:47:37Z</time>
      </trkpt>
      <trkpt lat="42.49481" lon="1.89398">
        <ele>1787</ele>
        <time>2018-08-02T13:47:47Z</time>
      </trkpt>
      <trkpt lat="42.49468" lon="1.89399">
        <ele>1788</ele>
        <time>2018-08-02T13:48:15Z</time>
      </trkpt>
      <trkpt lat="42.49458" lon="1.89415">
        <ele>1786</ele>
        <time>2018-08-02T13:48:37Z</time>
      </trkpt>
      <trkpt lat="42.49463" lon="1.89421">
        <ele>1772</ele>
        <time>2018-08-02T13:49:22Z</time>
      </trkpt>
      <trkpt lat="42.49467" lon="1.89427">
        <ele>1772</ele>
        <time>2018-08-02T13:49:29Z</time>
      </trkpt>
      <trkpt lat="42.49468" lon="1.8944">
        <ele>1770</ele>
        <time>2018-08-02T13:49:39Z</time>
      </trkpt>
      <trkpt lat="42.49466" lon="1.89445">
        <ele>1770</ele>
        <time>2018-08-02T13:49:47Z</time>
      </trkpt>
      <trkpt lat="42.49458" lon="1.89448">
        <ele>1769</ele>
        <time>2018-08-02T13:50:04Z</time>
      </trkpt>
      <trkpt lat="42.49454" lon="1.89459">
        <ele>1768</ele>
        <time>2018-08-02T13:50:17Z</time>
      </trkpt>
      <trkpt lat="42.49449" lon="1.89469">
        <ele>1766</ele>
        <time>2018-08-02T13:50:28Z</time>
      </trkpt>
      <trkpt lat="42.49437" lon="1.89487">
        <ele>1762</ele>
        <time>2018-08-02T13:50:47Z</time>
      </trkpt>
      <trkpt lat="42.49433" lon="1.89488">
        <ele>1761</ele>
        <time>2018-08-02T13:50:52Z</time>
      </trkpt>
      <trkpt lat="42.49428" lon="1.89491">
        <ele>1760</ele>
        <time>2018-08-02T13:51:02Z</time>
      </trkpt>
      <trkpt lat="42.49427" lon="1.89496">
        <ele>1758</ele>
        <time>2018-08-02T13:52:06Z</time>
      </trkpt>
      <trkpt lat="42.49423" lon="1.89505">
        <ele>1752</ele>
        <time>2018-08-02T13:53:23Z</time>
      </trkpt>
      <trkpt lat="42.49416" lon="1.89526">
        <ele>1749</ele>
        <time>2018-08-02T13:53:40Z</time>
      </trkpt>
      <trkpt lat="42.49414" lon="1.89545">
        <ele>1746</ele>
        <time>2018-08-02T13:53:58Z</time>
      </trkpt>
      <trkpt lat="42.49408" lon="1.89569">
        <ele>1742</ele>
        <time>2018-08-02T13:54:19Z</time>
      </trkpt>
      <trkpt lat="42.49408" lon="1.89581">
        <ele>1740</ele>
        <time>2018-08-02T13:54:30Z</time>
      </trkpt>
      <trkpt lat="42.49406" lon="1.8959">
        <ele>1735</ele>
        <time>2018-08-02T13:54:38Z</time>
      </trkpt>
      <trkpt lat="42.49395" lon="1.89617">
        <ele>1732</ele>
        <time>2018-08-02T13:55:05Z</time>
      </trkpt>
      <trkpt lat="42.49392" lon="1.89621">
        <ele>1732</ele>
        <time>2018-08-02T13:55:10Z</time>
      </trkpt>
      <trkpt lat="42.49388" lon="1.89631">
        <ele>1731</ele>
        <time>2018-08-02T13:55:23Z</time>
      </trkpt>
      <trkpt lat="42.49386" lon="1.89638">
        <ele>1730</ele>
        <time>2018-08-02T13:55:31Z</time>
      </trkpt>
      <trkpt lat="42.49377" lon="1.89644">
        <ele>1730</ele>
        <time>2018-08-02T13:55:46Z</time>
      </trkpt>
      <trkpt lat="42.49364" lon="1.89663">
        <ele>1728</ele>
        <time>2018-08-02T13:56:12Z</time>
      </trkpt>
      <trkpt lat="42.49351" lon="1.89683">
        <ele>1719</ele>
        <time>2018-08-02T13:56:40Z</time>
      </trkpt>
      <trkpt lat="42.4934" lon="1.89688">
        <ele>1719</ele>
        <time>2018-08-02T13:56:53Z</time>
      </trkpt>
      <trkpt lat="42.49334" lon="1.89688">
        <ele>1719</ele>
        <time>2018-08-02T13:57:01Z</time>
      </trkpt>
      <trkpt lat="42.49326" lon="1.89689">
        <ele>1716</ele>
        <time>2018-08-02T13:57:14Z</time>
      </trkpt>
      <trkpt lat="42.49322" lon="1.89687">
        <ele>1716</ele>
        <time>2018-08-02T13:57:22Z</time>
      </trkpt>
      <trkpt lat="42.49297" lon="1.89692">
        <ele>1715</ele>
        <time>2018-08-02T13:57:49Z</time>
      </trkpt>
      <trkpt lat="42.49292" lon="1.89694">
        <ele>1715</ele>
        <time>2018-08-02T13:57:54Z</time>
      </trkpt>
      <trkpt lat="42.49288" lon="1.89696">
        <ele>1715</ele>
        <time>2018-08-02T13:58:02Z</time>
      </trkpt>
      <trkpt lat="42.49283" lon="1.89696">
        <ele>1715</ele>
        <time>2018-08-02T13:58:08Z</time>
      </trkpt>
      <trkpt lat="42.49275" lon="1.89702">
        <ele>1714</ele>
        <time>2018-08-02T13:58:18Z</time>
      </trkpt>
      <trkpt lat="42.49271" lon="1.89701">
        <ele>1714</ele>
        <time>2018-08-02T13:58:23Z</time>
      </trkpt>
      <trkpt lat="42.49265" lon="1.89705">
        <ele>1714</ele>
        <time>2018-08-02T13:58:32Z</time>
      </trkpt>
      <trkpt lat="42.49261" lon="1.8971">
        <ele>1713</ele>
        <time>2018-08-02T13:58:38Z</time>
      </trkpt>
      <trkpt lat="42.49251" lon="1.89714">
        <ele>1712</ele>
        <time>2018-08-02T13:58:49Z</time>
      </trkpt>
      <trkpt lat="42.49243" lon="1.89727">
        <ele>1711</ele>
        <time>2018-08-02T13:59:00Z</time>
      </trkpt>
      <trkpt lat="42.49238" lon="1.89729">
        <ele>1711</ele>
        <time>2018-08-02T13:59:04Z</time>
      </trkpt>
      <trkpt lat="42.49235" lon="1.89733">
        <ele>1711</ele>
        <time>2018-08-02T13:59:09Z</time>
      </trkpt>
      <trkpt lat="42.49234" lon="1.89741">
        <ele>1710</ele>
        <time>2018-08-02T13:59:13Z</time>
      </trkpt>
      <trkpt lat="42.49228" lon="1.89751">
        <ele>1701</ele>
        <time>2018-08-02T13:59:21Z</time>
      </trkpt>
      <trkpt lat="42.4921" lon="1.89764">
        <ele>1701</ele>
        <time>2018-08-02T13:59:42Z</time>
      </trkpt>
      <trkpt lat="42.49202" lon="1.89764">
        <ele>1701</ele>
        <time>2018-08-02T13:59:49Z</time>
      </trkpt>
      <trkpt lat="42.49197" lon="1.89766">
        <ele>1701</ele>
        <time>2018-08-02T13:59:54Z</time>
      </trkpt>
      <trkpt lat="42.49185" lon="1.89778">
        <ele>1701</ele>
        <time>2018-08-02T14:00:07Z</time>
      </trkpt>
      <trkpt lat="42.49171" lon="1.89786">
        <ele>1700</ele>
        <time>2018-08-02T14:00:20Z</time>
      </trkpt>
      <trkpt lat="42.49161" lon="1.89786">
        <ele>1699</ele>
        <time>2018-08-02T14:00:29Z</time>
      </trkpt>
      <trkpt lat="42.49156" lon="1.89787">
        <ele>1698</ele>
        <time>2018-08-02T14:00:33Z</time>
      </trkpt>
      <trkpt lat="42.49152" lon="1.89792">
        <ele>1697</ele>
        <time>2018-08-02T14:00:38Z</time>
      </trkpt>
      <trkpt lat="42.49148" lon="1.89794">
        <ele>1697</ele>
        <time>2018-08-02T14:00:42Z</time>
      </trkpt>
      <trkpt lat="42.49142" lon="1.89795">
        <ele>1697</ele>
        <time>2018-08-02T14:00:47Z</time>
      </trkpt>
      <trkpt lat="42.49137" lon="1.89794">
        <ele>1697</ele>
        <time>2018-08-02T14:00:51Z</time>
      </trkpt>
      <trkpt lat="42.49132" lon="1.89795">
        <ele>1697</ele>
        <time>2018-08-02T14:00:55Z</time>
      </trkpt>
      <trkpt lat="42.49121" lon="1.89794">
        <ele>1696</ele>
        <time>2018-08-02T14:01:05Z</time>
      </trkpt>
      <trkpt lat="42.49116" lon="1.89792">
        <ele>1696</ele>
        <time>2018-08-02T14:01:09Z</time>
      </trkpt>
      <trkpt lat="42.49111" lon="1.8978">
        <ele>1697</ele>
        <time>2018-08-02T14:01:25Z</time>
      </trkpt>
      <trkpt lat="42.49107" lon="1.89774">
        <ele>1698</ele>
        <time>2018-08-02T14:01:31Z</time>
      </trkpt>
      <trkpt lat="42.49105" lon="1.89768">
        <ele>1698</ele>
        <time>2018-08-02T14:01:36Z</time>
      </trkpt>
      <trkpt lat="42.49101" lon="1.89766">
        <ele>1698</ele>
        <time>2018-08-02T14:01:40Z</time>
      </trkpt>
      <trkpt lat="42.49097" lon="1.89761">
        <ele>1698</ele>
        <time>2018-08-02T14:01:44Z</time>
      </trkpt>
      <trkpt lat="42.49092" lon="1.8975">
        <ele>1699</ele>
        <time>2018-08-02T14:01:52Z</time>
      </trkpt>
      <trkpt lat="42.4908" lon="1.89745">
        <ele>1699</ele>
        <time>2018-08-02T14:02:06Z</time>
      </trkpt>
      <trkpt lat="42.49076" lon="1.89739">
        <ele>1699</ele>
        <time>2018-08-02T14:02:10Z</time>
      </trkpt>
      <trkpt lat="42.49067" lon="1.8972">
        <ele>1699</ele>
        <time>2018-08-02T14:02:22Z</time>
      </trkpt>
      <trkpt lat="42.49056" lon="1.8971">
        <ele>1699</ele>
        <time>2018-08-02T14:02:36Z</time>
      </trkpt>
      <trkpt lat="42.49045" lon="1.89696">
        <ele>1699</ele>
        <time>2018-08-02T14:02:48Z</time>
      </trkpt>
      <trkpt lat="42.49034" lon="1.897">
        <ele>1698</ele>
        <time>2018-08-02T14:03:00Z</time>
      </trkpt>
      <trkpt lat="42.4903" lon="1.89697">
        <ele>1698</ele>
        <time>2018-08-02T14:03:06Z</time>
      </trkpt>
      <trkpt lat="42.49026" lon="1.89693">
        <ele>1697</ele>
        <time>2018-08-02T14:03:10Z</time>
      </trkpt>
      <trkpt lat="42.49019" lon="1.89686">
        <ele>1697</ele>
        <time>2018-08-02T14:03:18Z</time>
      </trkpt>
      <trkpt lat="42.49016" lon="1.89681">
        <ele>1696</ele>
        <time>2018-08-02T14:03:23Z</time>
      </trkpt>
      <trkpt lat="42.48987" lon="1.89658">
        <ele>1694</ele>
        <time>2018-08-02T14:03:51Z</time>
      </trkpt>
      <trkpt lat="42.48982" lon="1.89657">
        <ele>1694</ele>
        <time>2018-08-02T14:03:55Z</time>
      </trkpt>
      <trkpt lat="42.48969" lon="1.89649">
        <ele>1694</ele>
        <time>2018-08-02T14:04:09Z</time>
      </trkpt>
      <trkpt lat="42.48965" lon="1.89648">
        <ele>1694</ele>
        <time>2018-08-02T14:04:14Z</time>
      </trkpt>
      <trkpt lat="42.48958" lon="1.8965">
        <ele>1693</ele>
        <time>2018-08-02T14:04:40Z</time>
      </trkpt>
      <trkpt lat="42.48952" lon="1.89653">
        <ele>1693</ele>
        <time>2018-08-02T14:04:52Z</time>
      </trkpt>
      <trkpt lat="42.4893" lon="1.89639">
        <ele>1692</ele>
        <time>2018-08-02T14:05:21Z</time>
      </trkpt>
      <trkpt lat="42.48927" lon="1.89635">
        <ele>1692</ele>
        <time>2018-08-02T14:05:25Z</time>
      </trkpt>
      <trkpt lat="42.48927" lon="1.89627">
        <ele>1692</ele>
        <time>2018-08-02T14:05:29Z</time>
      </trkpt>
      <trkpt lat="42.48925" lon="1.8962">
        <ele>1692</ele>
        <time>2018-08-02T14:05:33Z</time>
      </trkpt>
      <trkpt lat="42.48906" lon="1.89585">
        <ele>1685</ele>
        <time>2018-08-02T14:06:04Z</time>
      </trkpt>
      <trkpt lat="42.48902" lon="1.89581">
        <ele>1684</ele>
        <time>2018-08-02T14:06:10Z</time>
      </trkpt>
      <trkpt lat="42.48899" lon="1.89576">
        <ele>1684</ele>
        <time>2018-08-02T14:06:15Z</time>
      </trkpt>
      <trkpt lat="42.48898" lon="1.89567">
        <ele>1683</ele>
        <time>2018-08-02T14:06:22Z</time>
      </trkpt>
      <trkpt lat="42.48897" lon="1.89561">
        <ele>1682</ele>
        <time>2018-08-02T14:06:26Z</time>
      </trkpt>
      <trkpt lat="42.48897" lon="1.89532">
        <ele>1682</ele>
        <time>2018-08-02T14:06:48Z</time>
      </trkpt>
      <trkpt lat="42.48895" lon="1.89526">
        <ele>1682</ele>
        <time>2018-08-02T14:06:53Z</time>
      </trkpt>
      <trkpt lat="42.4889" lon="1.89522">
        <ele>1681</ele>
        <time>2018-08-02T14:07:01Z</time>
      </trkpt>
      <trkpt lat="42.48885" lon="1.8952">
        <ele>1681</ele>
        <time>2018-08-02T14:07:06Z</time>
      </trkpt>
      <trkpt lat="42.48878" lon="1.89521">
        <ele>1680</ele>
        <time>2018-08-02T14:07:14Z</time>
      </trkpt>
      <trkpt lat="42.48873" lon="1.89524">
        <ele>1679</ele>
        <time>2018-08-02T14:07:19Z</time>
      </trkpt>
      <trkpt lat="42.48868" lon="1.89526">
        <ele>1678</ele>
        <time>2018-08-02T14:07:24Z</time>
      </trkpt>
      <trkpt lat="42.48864" lon="1.89524">
        <ele>1678</ele>
        <time>2018-08-02T14:07:28Z</time>
      </trkpt>
      <trkpt lat="42.48856" lon="1.89515">
        <ele>1676</ele>
        <time>2018-08-02T14:07:38Z</time>
      </trkpt>
      <trkpt lat="42.48857" lon="1.89506">
        <ele>1675</ele>
        <time>2018-08-02T14:07:45Z</time>
      </trkpt>
      <trkpt lat="42.48861" lon="1.89501">
        <ele>1676</ele>
        <time>2018-08-02T14:07:50Z</time>
      </trkpt>
      <trkpt lat="42.48868" lon="1.89489">
        <ele>1676</ele>
        <time>2018-08-02T14:11:22Z</time>
      </trkpt>
      <trkpt lat="42.48857" lon="1.89464">
        <ele>1674</ele>
        <time>2018-08-02T14:11:51Z</time>
      </trkpt>
      <trkpt lat="42.48856" lon="1.89455">
        <ele>1674</ele>
        <time>2018-08-02T14:12:03Z</time>
      </trkpt>
      <trkpt lat="42.48852" lon="1.89435">
        <ele>1671</ele>
        <time>2018-08-02T14:12:17Z</time>
      </trkpt>
      <trkpt lat="42.48849" lon="1.8943">
        <ele>1670</ele>
        <time>2018-08-02T14:12:21Z</time>
      </trkpt>
      <trkpt lat="42.48843" lon="1.89418">
        <ele>1666</ele>
        <time>2018-08-02T14:12:30Z</time>
      </trkpt>
      <trkpt lat="42.48841" lon="1.89412">
        <ele>1665</ele>
        <time>2018-08-02T14:12:38Z</time>
      </trkpt>
      <trkpt lat="42.48837" lon="1.89407">
        <ele>1665</ele>
        <time>2018-08-02T14:12:42Z</time>
      </trkpt>
      <trkpt lat="42.48834" lon="1.89399">
        <ele>1667</ele>
        <time>2018-08-02T14:12:52Z</time>
      </trkpt>
      <trkpt lat="42.48831" lon="1.89395">
        <ele>1654</ele>
        <time>2018-08-02T14:13:04Z</time>
      </trkpt>
      <trkpt lat="42.48827" lon="1.89386">
        <ele>1653</ele>
        <time>2018-08-02T14:13:16Z</time>
      </trkpt>
      <trkpt lat="42.48821" lon="1.89386">
        <ele>1652</ele>
        <time>2018-08-02T14:13:28Z</time>
      </trkpt>
      <trkpt lat="42.48815" lon="1.89384">
        <ele>1651</ele>
        <time>2018-08-02T14:13:34Z</time>
      </trkpt>
      <trkpt lat="42.48804" lon="1.89369">
        <ele>1650</ele>
        <time>2018-08-02T14:13:55Z</time>
      </trkpt>
      <trkpt lat="42.48797" lon="1.8935">
        <ele>1649</ele>
        <time>2018-08-02T14:14:08Z</time>
      </trkpt>
      <trkpt lat="42.48795" lon="1.89334">
        <ele>1649</ele>
        <time>2018-08-02T14:14:16Z</time>
      </trkpt>
      <trkpt lat="42.48792" lon="1.89328">
        <ele>1648</ele>
        <time>2018-08-02T14:14:21Z</time>
      </trkpt>
      <trkpt lat="42.4879" lon="1.89322">
        <ele>1648</ele>
        <time>2018-08-02T14:14:25Z</time>
      </trkpt>
      <trkpt lat="42.48786" lon="1.89316">
        <ele>1647</ele>
        <time>2018-08-02T14:14:32Z</time>
      </trkpt>
      <trkpt lat="42.48781" lon="1.89316">
        <ele>1646</ele>
        <time>2018-08-02T14:14:37Z</time>
      </trkpt>
      <trkpt lat="42.48776" lon="1.89309">
        <ele>1645</ele>
        <time>2018-08-02T14:14:45Z</time>
      </trkpt>
      <trkpt lat="42.4877" lon="1.89305">
        <ele>1645</ele>
        <time>2018-08-02T14:14:54Z</time>
      </trkpt>
      <trkpt lat="42.48742" lon="1.89279">
        <ele>1630</ele>
        <time>2018-08-02T14:15:31Z</time>
      </trkpt>
      <trkpt lat="42.48738" lon="1.89276">
        <ele>1630</ele>
        <time>2018-08-02T14:15:36Z</time>
      </trkpt>
      <trkpt lat="42.48733" lon="1.8927">
        <ele>1630</ele>
        <time>2018-08-02T14:15:40Z</time>
      </trkpt>
      <trkpt lat="42.48729" lon="1.89259">
        <ele>1631</ele>
        <time>2018-08-02T14:15:48Z</time>
      </trkpt>
      <trkpt lat="42.48725" lon="1.89247">
        <ele>1631</ele>
        <time>2018-08-02T14:15:56Z</time>
      </trkpt>
      <trkpt lat="42.48722" lon="1.89241">
        <ele>1631</ele>
        <time>2018-08-02T14:16:01Z</time>
      </trkpt>
      <trkpt lat="42.48718" lon="1.89236">
        <ele>1630</ele>
        <time>2018-08-02T14:16:09Z</time>
      </trkpt>
      <trkpt lat="42.48717" lon="1.89229">
        <ele>1629</ele>
        <time>2018-08-02T14:16:14Z</time>
      </trkpt>
      <trkpt lat="42.48717" lon="1.89223">
        <ele>1629</ele>
        <time>2018-08-02T14:16:18Z</time>
      </trkpt>
      <trkpt lat="42.48713" lon="1.89209">
        <ele>1629</ele>
        <time>2018-08-02T14:16:28Z</time>
      </trkpt>
      <trkpt lat="42.487" lon="1.89182">
        <ele>1627</ele>
        <time>2018-08-02T14:16:50Z</time>
      </trkpt>
      <trkpt lat="42.48698" lon="1.89176">
        <ele>1627</ele>
        <time>2018-08-02T14:16:54Z</time>
      </trkpt>
      <trkpt lat="42.48693" lon="1.89164">
        <ele>1626</ele>
        <time>2018-08-02T14:17:02Z</time>
      </trkpt>
      <trkpt lat="42.4869" lon="1.8916">
        <ele>1626</ele>
        <time>2018-08-02T14:17:06Z</time>
      </trkpt>
      <trkpt lat="42.48686" lon="1.89158">
        <ele>1625</ele>
        <time>2018-08-02T14:17:11Z</time>
      </trkpt>
      <trkpt lat="42.48672" lon="1.89142">
        <ele>1625</ele>
        <time>2018-08-02T14:17:29Z</time>
      </trkpt>
      <trkpt lat="42.48651" lon="1.89099">
        <ele>1618</ele>
        <time>2018-08-02T14:18:00Z</time>
      </trkpt>
      <trkpt lat="42.48647" lon="1.89095">
        <ele>1617</ele>
        <time>2018-08-02T14:18:05Z</time>
      </trkpt>
      <trkpt lat="42.48633" lon="1.89093">
        <ele>1616</ele>
        <time>2018-08-02T14:18:19Z</time>
      </trkpt>
      <trkpt lat="42.48628" lon="1.89094">
        <ele>1615</ele>
        <time>2018-08-02T14:18:59Z</time>
      </trkpt>
      <trkpt lat="42.48624" lon="1.89095">
        <ele>1614</ele>
        <time>2018-08-02T14:19:04Z</time>
      </trkpt>
      <trkpt lat="42.48613" lon="1.89091">
        <ele>1613</ele>
        <time>2018-08-02T14:19:17Z</time>
      </trkpt>
      <trkpt lat="42.48597" lon="1.89088">
        <ele>1610</ele>
        <time>2018-08-02T14:19:34Z</time>
      </trkpt>
      <trkpt lat="42.48582" lon="1.89085">
        <ele>1607</ele>
        <time>2018-08-02T14:19:50Z</time>
      </trkpt>
      <trkpt lat="42.48577" lon="1.89085">
        <ele>1606</ele>
        <time>2018-08-02T14:19:55Z</time>
      </trkpt>
      <trkpt lat="42.48572" lon="1.89087">
        <ele>1605</ele>
        <time>2018-08-02T14:19:59Z</time>
      </trkpt>
      <trkpt lat="42.48567" lon="1.89092">
        <ele>1605</ele>
        <time>2018-08-02T14:20:04Z</time>
      </trkpt>
      <trkpt lat="42.48562" lon="1.89092">
        <ele>1604</ele>
        <time>2018-08-02T14:20:08Z</time>
      </trkpt>
      <trkpt lat="42.4854" lon="1.89105">
        <ele>1603</ele>
        <time>2018-08-02T14:20:29Z</time>
      </trkpt>
      <trkpt lat="42.4853" lon="1.89114">
        <ele>1602</ele>
        <time>2018-08-02T14:20:41Z</time>
      </trkpt>
      <trkpt lat="42.48525" lon="1.89117">
        <ele>1602</ele>
        <time>2018-08-02T14:20:49Z</time>
      </trkpt>
      <trkpt lat="42.48521" lon="1.89122">
        <ele>1602</ele>
        <time>2018-08-02T14:20:55Z</time>
      </trkpt>
      <trkpt lat="42.48511" lon="1.89129">
        <ele>1601</ele>
        <time>2018-08-02T14:21:03Z</time>
      </trkpt>
      <trkpt lat="42.485" lon="1.89146">
        <ele>1601</ele>
        <time>2018-08-02T14:21:16Z</time>
      </trkpt>
      <trkpt lat="42.48498" lon="1.89151">
        <ele>1597</ele>
        <time>2018-08-02T14:21:20Z</time>
      </trkpt>
      <trkpt lat="42.48494" lon="1.8916">
        <ele>1598</ele>
        <time>2018-08-02T14:21:29Z</time>
      </trkpt>
    </trkseg>
  </trk>
</gpx>